<?xml version="1.0" encoding="UTF-8" standalone="no" ?>
<gpx xmlns="http://www.topografix.com/GPX/1/1" xmlns:xsi="http://www.w3.org/2001/XMLSchema-instance" xsi:schemaLocation="http://www.topografix.com/GPX/1/1 http://www.topografix.com/GPX/1/1/gpx.xsd" version="1.1" creator="VisuGPX - https://www.visugpx.com">
  <metadata>
    <name>TAHITI - VOITURE - Huahine - Tour de l'île</name>
    <desc><![CDATA[Soleil, tour tranquille découverte]]></desc>
  </metadata>
  <wpt lat="-16.82033" lon="-150.98338">
    <ele>-4.44043</ele>
    <name><![CDATA[Hiva Plage]]></name>
    <desc><![CDATA[11-MAI-12 20:27:42]]></desc>
  </wpt>
  <trk>
    <name><![CDATA[ACTIVE LOG 005]]></name>
    <trkseg>
      <trkpt lat="-16.8139" lon="-150.98346">
        <ele>-2.265991</ele>
        <time>2012-05-10T18:15:33Z</time>
      </trkpt>
      <trkpt lat="-16.81392" lon="-150.98339">
        <ele>1.098633</ele>
        <time>2012-05-10T18:15:42Z</time>
      </trkpt>
      <trkpt lat="-16.81392" lon="-150.98339">
        <ele>4.463257</ele>
        <time>2012-05-10T18:15:46Z</time>
      </trkpt>
      <trkpt lat="-16.81392" lon="-150.98339">
        <ele>5.424561</ele>
        <time>2012-05-10T18:15:51Z</time>
      </trkpt>
      <trkpt lat="-16.81392" lon="-150.98341">
        <ele>8.308594</ele>
        <time>2012-05-10T18:16:01Z</time>
      </trkpt>
      <trkpt lat="-16.81391" lon="-150.98341">
        <ele>9.269897</ele>
        <time>2012-05-10T18:16:03Z</time>
      </trkpt>
      <trkpt lat="-16.81385" lon="-150.98343">
        <ele>10.711792</ele>
        <time>2012-05-10T18:16:06Z</time>
      </trkpt>
      <trkpt lat="-16.81348" lon="-150.9835">
        <ele>13.595825</ele>
        <time>2012-05-10T18:16:13Z</time>
      </trkpt>
      <trkpt lat="-16.81234" lon="-150.98369">
        <ele>17.441162</ele>
        <time>2012-05-10T18:16:26Z</time>
      </trkpt>
      <trkpt lat="-16.8111" lon="-150.98367">
        <ele>17.441162</ele>
        <time>2012-05-10T18:16:39Z</time>
      </trkpt>
      <trkpt lat="-16.80997" lon="-150.98336">
        <ele>16.960449</ele>
        <time>2012-05-10T18:16:51Z</time>
      </trkpt>
      <trkpt lat="-16.80919" lon="-150.98302">
        <ele>16.960449</ele>
        <time>2012-05-10T18:17:01Z</time>
      </trkpt>
      <trkpt lat="-16.80897" lon="-150.98278">
        <ele>17.441162</ele>
        <time>2012-05-10T18:17:05Z</time>
      </trkpt>
      <trkpt lat="-16.8089" lon="-150.98253">
        <ele>18.883057</ele>
        <time>2012-05-10T18:17:08Z</time>
      </trkpt>
      <trkpt lat="-16.80886" lon="-150.98106">
        <ele>18.883057</ele>
        <time>2012-05-10T18:17:23Z</time>
      </trkpt>
      <trkpt lat="-16.80872" lon="-150.97961">
        <ele>19.84436</ele>
        <time>2012-05-10T18:17:38Z</time>
      </trkpt>
      <trkpt lat="-16.80868" lon="-150.97952">
        <ele>19.84436</ele>
        <time>2012-05-10T18:17:39Z</time>
      </trkpt>
      <trkpt lat="-16.8081" lon="-150.97878">
        <ele>19.36377</ele>
        <time>2012-05-10T18:17:49Z</time>
      </trkpt>
      <trkpt lat="-16.80727" lon="-150.97781">
        <ele>17.921753</ele>
        <time>2012-05-10T18:18:04Z</time>
      </trkpt>
      <trkpt lat="-16.80668" lon="-150.97671">
        <ele>19.84436</ele>
        <time>2012-05-10T18:18:18Z</time>
      </trkpt>
      <trkpt lat="-16.80593" lon="-150.97571">
        <ele>21.286377</ele>
        <time>2012-05-10T18:18:31Z</time>
      </trkpt>
      <trkpt lat="-16.80551" lon="-150.97526">
        <ele>20.324951</ele>
        <time>2012-05-10T18:18:37Z</time>
      </trkpt>
      <trkpt lat="-16.80484" lon="-150.97466">
        <ele>18.402344</ele>
        <time>2012-05-10T18:18:46Z</time>
      </trkpt>
      <trkpt lat="-16.80339" lon="-150.97353">
        <ele>20.324951</ele>
        <time>2012-05-10T18:19:03Z</time>
      </trkpt>
      <trkpt lat="-16.80252" lon="-150.97281">
        <ele>18.883057</ele>
        <time>2012-05-10T18:19:14Z</time>
      </trkpt>
      <trkpt lat="-16.80223" lon="-150.97268">
        <ele>17.921753</ele>
        <time>2012-05-10T18:19:17Z</time>
      </trkpt>
      <trkpt lat="-16.8019" lon="-150.97247">
        <ele>18.883057</ele>
        <time>2012-05-10T18:19:21Z</time>
      </trkpt>
      <trkpt lat="-16.80144" lon="-150.97195">
        <ele>18.402344</ele>
        <time>2012-05-10T18:19:28Z</time>
      </trkpt>
      <trkpt lat="-16.8013" lon="-150.97154">
        <ele>20.805664</ele>
        <time>2012-05-10T18:19:33Z</time>
      </trkpt>
      <trkpt lat="-16.80114" lon="-150.97105">
        <ele>19.36377</ele>
        <time>2012-05-10T18:19:40Z</time>
      </trkpt>
      <trkpt lat="-16.80086" lon="-150.97081">
        <ele>17.921753</ele>
        <time>2012-05-10T18:19:44Z</time>
      </trkpt>
      <trkpt lat="-16.80046" lon="-150.97049">
        <ele>16.960449</ele>
        <time>2012-05-10T18:19:50Z</time>
      </trkpt>
      <trkpt lat="-16.79987" lon="-150.97051">
        <ele>14.076416</ele>
        <time>2012-05-10T18:19:58Z</time>
      </trkpt>
      <trkpt lat="-16.79976" lon="-150.97079">
        <ele>13.115112</ele>
        <time>2012-05-10T18:20:02Z</time>
      </trkpt>
      <trkpt lat="-16.79973" lon="-150.97102">
        <ele>14.076416</ele>
        <time>2012-05-10T18:20:05Z</time>
      </trkpt>
      <trkpt lat="-16.7995" lon="-150.97137">
        <ele>14.557007</ele>
        <time>2012-05-10T18:20:11Z</time>
      </trkpt>
      <trkpt lat="-16.79927" lon="-150.97148">
        <ele>15.999023</ele>
        <time>2012-05-10T18:20:14Z</time>
      </trkpt>
      <trkpt lat="-16.7982" lon="-150.97206">
        <ele>14.557007</ele>
        <time>2012-05-10T18:20:27Z</time>
      </trkpt>
      <trkpt lat="-16.79797" lon="-150.97223">
        <ele>15.03772</ele>
        <time>2012-05-10T18:20:30Z</time>
      </trkpt>
      <trkpt lat="-16.79775" lon="-150.97255">
        <ele>15.518433</ele>
        <time>2012-05-10T18:20:34Z</time>
      </trkpt>
      <trkpt lat="-16.79705" lon="-150.97397">
        <ele>15.999023</ele>
        <time>2012-05-10T18:20:49Z</time>
      </trkpt>
      <trkpt lat="-16.79627" lon="-150.97534">
        <ele>16.479736</ele>
        <time>2012-05-10T18:21:04Z</time>
      </trkpt>
      <trkpt lat="-16.79607" lon="-150.97555">
        <ele>15.03772</ele>
        <time>2012-05-10T18:21:07Z</time>
      </trkpt>
      <trkpt lat="-16.79591" lon="-150.97599">
        <ele>16.479736</ele>
        <time>2012-05-10T18:21:12Z</time>
      </trkpt>
      <trkpt lat="-16.79582" lon="-150.97662">
        <ele>16.479736</ele>
        <time>2012-05-10T18:21:19Z</time>
      </trkpt>
      <trkpt lat="-16.79556" lon="-150.97693">
        <ele>15.999023</ele>
        <time>2012-05-10T18:21:24Z</time>
      </trkpt>
      <trkpt lat="-16.7944" lon="-150.97741">
        <ele>15.999023</ele>
        <time>2012-05-10T18:21:38Z</time>
      </trkpt>
      <trkpt lat="-16.79366" lon="-150.97745">
        <ele>15.999023</ele>
        <time>2012-05-10T18:21:46Z</time>
      </trkpt>
      <trkpt lat="-16.79312" lon="-150.97772">
        <ele>15.03772</ele>
        <time>2012-05-10T18:21:53Z</time>
      </trkpt>
      <trkpt lat="-16.79271" lon="-150.97806">
        <ele>14.557007</ele>
        <time>2012-05-10T18:21:59Z</time>
      </trkpt>
      <trkpt lat="-16.79218" lon="-150.97802">
        <ele>15.03772</ele>
        <time>2012-05-10T18:22:06Z</time>
      </trkpt>
      <trkpt lat="-16.79197" lon="-150.97764">
        <ele>15.518433</ele>
        <time>2012-05-10T18:22:11Z</time>
      </trkpt>
      <trkpt lat="-16.79189" lon="-150.97662">
        <ele>15.518433</ele>
        <time>2012-05-10T18:22:24Z</time>
      </trkpt>
      <trkpt lat="-16.79222" lon="-150.97576">
        <ele>15.518433</ele>
        <time>2012-05-10T18:22:35Z</time>
      </trkpt>
      <trkpt lat="-16.79237" lon="-150.97546">
        <ele>15.03772</ele>
        <time>2012-05-10T18:22:39Z</time>
      </trkpt>
      <trkpt lat="-16.79273" lon="-150.97435">
        <ele>15.999023</ele>
        <time>2012-05-10T18:22:53Z</time>
      </trkpt>
      <trkpt lat="-16.79276" lon="-150.97427">
        <ele>16.479736</ele>
        <time>2012-05-10T18:22:54Z</time>
      </trkpt>
      <trkpt lat="-16.79297" lon="-150.97303">
        <ele>16.479736</ele>
        <time>2012-05-10T18:23:09Z</time>
      </trkpt>
      <trkpt lat="-16.79288" lon="-150.97167">
        <ele>15.999023</ele>
        <time>2012-05-10T18:23:24Z</time>
      </trkpt>
      <trkpt lat="-16.79274" lon="-150.9703">
        <ele>17.441162</ele>
        <time>2012-05-10T18:23:38Z</time>
      </trkpt>
      <trkpt lat="-16.79268" lon="-150.96907">
        <ele>15.518433</ele>
        <time>2012-05-10T18:23:52Z</time>
      </trkpt>
      <trkpt lat="-16.79268" lon="-150.96898">
        <ele>15.518433</ele>
        <time>2012-05-10T18:23:53Z</time>
      </trkpt>
      <trkpt lat="-16.79282" lon="-150.96785">
        <ele>15.999023</ele>
        <time>2012-05-10T18:24:06Z</time>
      </trkpt>
      <trkpt lat="-16.79332" lon="-150.96679">
        <ele>18.402344</ele>
        <time>2012-05-10T18:24:19Z</time>
      </trkpt>
      <trkpt lat="-16.79335" lon="-150.96663">
        <ele>18.402344</ele>
        <time>2012-05-10T18:24:21Z</time>
      </trkpt>
      <trkpt lat="-16.79316" lon="-150.96583">
        <ele>15.999023</ele>
        <time>2012-05-10T18:24:31Z</time>
      </trkpt>
      <trkpt lat="-16.79313" lon="-150.96566">
        <ele>19.84436</ele>
        <time>2012-05-10T18:24:33Z</time>
      </trkpt>
      <trkpt lat="-16.79311" lon="-150.96557">
        <ele>19.84436</ele>
        <time>2012-05-10T18:24:34Z</time>
      </trkpt>
      <trkpt lat="-16.79308" lon="-150.96533">
        <ele>17.921753</ele>
        <time>2012-05-10T18:24:37Z</time>
      </trkpt>
      <trkpt lat="-16.79305" lon="-150.96495">
        <ele>16.479736</ele>
        <time>2012-05-10T18:24:42Z</time>
      </trkpt>
      <trkpt lat="-16.79289" lon="-150.96389">
        <ele>18.402344</ele>
        <time>2012-05-10T18:24:57Z</time>
      </trkpt>
      <trkpt lat="-16.7922" lon="-150.96291">
        <ele>17.441162</ele>
        <time>2012-05-10T18:25:11Z</time>
      </trkpt>
      <trkpt lat="-16.79205" lon="-150.96282">
        <ele>16.960449</ele>
        <time>2012-05-10T18:25:13Z</time>
      </trkpt>
      <trkpt lat="-16.79167" lon="-150.96263">
        <ele>15.03772</ele>
        <time>2012-05-10T18:25:18Z</time>
      </trkpt>
      <trkpt lat="-16.79074" lon="-150.96264">
        <ele>15.03772</ele>
        <time>2012-05-10T18:25:28Z</time>
      </trkpt>
      <trkpt lat="-16.7903" lon="-150.96261">
        <ele>14.557007</ele>
        <time>2012-05-10T18:25:33Z</time>
      </trkpt>
      <trkpt lat="-16.78981" lon="-150.96244">
        <ele>13.595825</ele>
        <time>2012-05-10T18:25:39Z</time>
      </trkpt>
      <trkpt lat="-16.78952" lon="-150.96221">
        <ele>15.03772</ele>
        <time>2012-05-10T18:25:43Z</time>
      </trkpt>
      <trkpt lat="-16.78923" lon="-150.96196">
        <ele>16.960449</ele>
        <time>2012-05-10T18:25:47Z</time>
      </trkpt>
      <trkpt lat="-16.78904" lon="-150.96155">
        <ele>20.324951</ele>
        <time>2012-05-10T18:25:52Z</time>
      </trkpt>
      <trkpt lat="-16.78904" lon="-150.96145">
        <ele>20.324951</ele>
        <time>2012-05-10T18:25:53Z</time>
      </trkpt>
      <trkpt lat="-16.78906" lon="-150.96116">
        <ele>25.131714</ele>
        <time>2012-05-10T18:25:56Z</time>
      </trkpt>
      <trkpt lat="-16.78909" lon="-150.9609">
        <ele>29.45752</ele>
        <time>2012-05-10T18:25:59Z</time>
      </trkpt>
      <trkpt lat="-16.78899" lon="-150.96054">
        <ele>35.225464</ele>
        <time>2012-05-10T18:26:04Z</time>
      </trkpt>
      <trkpt lat="-16.78879" lon="-150.96045">
        <ele>39.55127</ele>
        <time>2012-05-10T18:26:07Z</time>
      </trkpt>
      <trkpt lat="-16.78838" lon="-150.96031">
        <ele>39.55127</ele>
        <time>2012-05-10T18:26:17Z</time>
      </trkpt>
      <trkpt lat="-16.78836" lon="-150.96025">
        <ele>39.070679</ele>
        <time>2012-05-10T18:26:21Z</time>
      </trkpt>
      <trkpt lat="-16.78833" lon="-150.96025">
        <ele>38.590088</ele>
        <time>2012-05-10T18:26:35Z</time>
      </trkpt>
      <trkpt lat="-16.78835" lon="-150.96026">
        <ele>37.628662</ele>
        <time>2012-05-10T18:28:13Z</time>
      </trkpt>
      <trkpt lat="-16.78834" lon="-150.96026">
        <ele>38.109375</ele>
        <time>2012-05-10T18:28:46Z</time>
      </trkpt>
      <trkpt lat="-16.78824" lon="-150.96032">
        <ele>38.590088</ele>
        <time>2012-05-10T18:28:53Z</time>
      </trkpt>
      <trkpt lat="-16.78784" lon="-150.96035">
        <ele>37.628662</ele>
        <time>2012-05-10T18:29:03Z</time>
      </trkpt>
      <trkpt lat="-16.78749" lon="-150.96003">
        <ele>38.590088</ele>
        <time>2012-05-10T18:29:11Z</time>
      </trkpt>
      <trkpt lat="-16.78751" lon="-150.95988">
        <ele>38.109375</ele>
        <time>2012-05-10T18:29:13Z</time>
      </trkpt>
      <trkpt lat="-16.7876" lon="-150.9594">
        <ele>36.186768</ele>
        <time>2012-05-10T18:29:20Z</time>
      </trkpt>
      <trkpt lat="-16.78734" lon="-150.95908">
        <ele>34.744873</ele>
        <time>2012-05-10T18:29:27Z</time>
      </trkpt>
      <trkpt lat="-16.78726" lon="-150.95908">
        <ele>33.783447</ele>
        <time>2012-05-10T18:29:28Z</time>
      </trkpt>
      <trkpt lat="-16.78693" lon="-150.95908">
        <ele>30.899536</ele>
        <time>2012-05-10T18:29:32Z</time>
      </trkpt>
      <trkpt lat="-16.78636" lon="-150.95911">
        <ele>27.534912</ele>
        <time>2012-05-10T18:29:39Z</time>
      </trkpt>
      <trkpt lat="-16.78628" lon="-150.95912">
        <ele>27.054321</ele>
        <time>2012-05-10T18:29:40Z</time>
      </trkpt>
      <trkpt lat="-16.78595" lon="-150.9594">
        <ele>22.728271</ele>
        <time>2012-05-10T18:29:46Z</time>
      </trkpt>
      <trkpt lat="-16.78588" lon="-150.95956">
        <ele>20.324951</ele>
        <time>2012-05-10T18:29:48Z</time>
      </trkpt>
      <trkpt lat="-16.78549" lon="-150.95961">
        <ele>16.479736</ele>
        <time>2012-05-10T18:29:55Z</time>
      </trkpt>
      <trkpt lat="-16.78544" lon="-150.95954">
        <ele>16.479736</ele>
        <time>2012-05-10T18:29:56Z</time>
      </trkpt>
      <trkpt lat="-16.78533" lon="-150.95938">
        <ele>15.999023</ele>
        <time>2012-05-10T18:29:58Z</time>
      </trkpt>
      <trkpt lat="-16.78442" lon="-150.95883">
        <ele>15.999023</ele>
        <time>2012-05-10T18:30:09Z</time>
      </trkpt>
      <trkpt lat="-16.7836" lon="-150.95838">
        <ele>15.03772</ele>
        <time>2012-05-10T18:30:19Z</time>
      </trkpt>
      <trkpt lat="-16.78326" lon="-150.95837">
        <ele>15.03772</ele>
        <time>2012-05-10T18:30:23Z</time>
      </trkpt>
      <trkpt lat="-16.78153" lon="-150.95848">
        <ele>14.557007</ele>
        <time>2012-05-10T18:30:42Z</time>
      </trkpt>
      <trkpt lat="-16.7799" lon="-150.95853">
        <ele>13.595825</ele>
        <time>2012-05-10T18:31:01Z</time>
      </trkpt>
      <trkpt lat="-16.77884" lon="-150.95874">
        <ele>13.595825</ele>
        <time>2012-05-10T18:31:14Z</time>
      </trkpt>
      <trkpt lat="-16.77775" lon="-150.95852">
        <ele>14.076416</ele>
        <time>2012-05-10T18:31:27Z</time>
      </trkpt>
      <trkpt lat="-16.77659" lon="-150.95811">
        <ele>14.076416</ele>
        <time>2012-05-10T18:31:41Z</time>
      </trkpt>
      <trkpt lat="-16.77532" lon="-150.95823">
        <ele>13.595825</ele>
        <time>2012-05-10T18:31:55Z</time>
      </trkpt>
      <trkpt lat="-16.77392" lon="-150.9584">
        <ele>13.115112</ele>
        <time>2012-05-10T18:32:11Z</time>
      </trkpt>
      <trkpt lat="-16.77303" lon="-150.95913">
        <ele>12.634399</ele>
        <time>2012-05-10T18:32:23Z</time>
      </trkpt>
      <trkpt lat="-16.77158" lon="-150.96029">
        <ele>14.076416</ele>
        <time>2012-05-10T18:32:41Z</time>
      </trkpt>
      <trkpt lat="-16.77008" lon="-150.96135">
        <ele>13.115112</ele>
        <time>2012-05-10T18:32:59Z</time>
      </trkpt>
      <trkpt lat="-16.76902" lon="-150.9618">
        <ele>14.076416</ele>
        <time>2012-05-10T18:33:11Z</time>
      </trkpt>
      <trkpt lat="-16.76865" lon="-150.96197">
        <ele>15.03772</ele>
        <time>2012-05-10T18:33:15Z</time>
      </trkpt>
      <trkpt lat="-16.76744" lon="-150.96252">
        <ele>15.518433</ele>
        <time>2012-05-10T18:33:27Z</time>
      </trkpt>
      <trkpt lat="-16.76716" lon="-150.96266">
        <ele>14.076416</ele>
        <time>2012-05-10T18:33:30Z</time>
      </trkpt>
      <trkpt lat="-16.76581" lon="-150.96329">
        <ele>14.557007</ele>
        <time>2012-05-10T18:33:45Z</time>
      </trkpt>
      <trkpt lat="-16.7645" lon="-150.96407">
        <ele>14.076416</ele>
        <time>2012-05-10T18:34:00Z</time>
      </trkpt>
      <trkpt lat="-16.76408" lon="-150.96433">
        <ele>14.557007</ele>
        <time>2012-05-10T18:34:05Z</time>
      </trkpt>
      <trkpt lat="-16.76271" lon="-150.96514">
        <ele>12.153809</ele>
        <time>2012-05-10T18:34:21Z</time>
      </trkpt>
      <trkpt lat="-16.76237" lon="-150.96533">
        <ele>11.673218</ele>
        <time>2012-05-10T18:34:25Z</time>
      </trkpt>
      <trkpt lat="-16.76135" lon="-150.96644">
        <ele>14.557007</ele>
        <time>2012-05-10T18:34:40Z</time>
      </trkpt>
      <trkpt lat="-16.76129" lon="-150.96652">
        <ele>14.076416</ele>
        <time>2012-05-10T18:34:41Z</time>
      </trkpt>
      <trkpt lat="-16.76075" lon="-150.96785">
        <ele>13.595825</ele>
        <time>2012-05-10T18:34:56Z</time>
      </trkpt>
      <trkpt lat="-16.76046" lon="-150.9684">
        <ele>11.192505</ele>
        <time>2012-05-10T18:35:06Z</time>
      </trkpt>
      <trkpt lat="-16.76044" lon="-150.96844">
        <ele>12.153809</ele>
        <time>2012-05-10T18:35:18Z</time>
      </trkpt>
      <trkpt lat="-16.76034" lon="-150.96865">
        <ele>11.192505</ele>
        <time>2012-05-10T18:35:46Z</time>
      </trkpt>
      <trkpt lat="-16.75984" lon="-150.96931">
        <ele>12.634399</ele>
        <time>2012-05-10T18:35:58Z</time>
      </trkpt>
      <trkpt lat="-16.75978" lon="-150.96937">
        <ele>12.153809</ele>
        <time>2012-05-10T18:35:59Z</time>
      </trkpt>
      <trkpt lat="-16.75862" lon="-150.96988">
        <ele>12.634399</ele>
        <time>2012-05-10T18:36:13Z</time>
      </trkpt>
      <trkpt lat="-16.758" lon="-150.97013">
        <ele>12.634399</ele>
        <time>2012-05-10T18:36:20Z</time>
      </trkpt>
      <trkpt lat="-16.75767" lon="-150.97067">
        <ele>14.076416</ele>
        <time>2012-05-10T18:36:27Z</time>
      </trkpt>
      <trkpt lat="-16.75777" lon="-150.97119">
        <ele>14.076416</ele>
        <time>2012-05-10T18:36:32Z</time>
      </trkpt>
      <trkpt lat="-16.75785" lon="-150.97138">
        <ele>15.03772</ele>
        <time>2012-05-10T18:36:34Z</time>
      </trkpt>
      <trkpt lat="-16.75839" lon="-150.97205">
        <ele>15.03772</ele>
        <time>2012-05-10T18:36:42Z</time>
      </trkpt>
      <trkpt lat="-16.75855" lon="-150.97246">
        <ele>13.595825</ele>
        <time>2012-05-10T18:36:47Z</time>
      </trkpt>
      <trkpt lat="-16.75854" lon="-150.97262">
        <ele>11.673218</ele>
        <time>2012-05-10T18:36:55Z</time>
      </trkpt>
      <trkpt lat="-16.75853" lon="-150.97282">
        <ele>13.115112</ele>
        <time>2012-05-10T18:37:28Z</time>
      </trkpt>
      <trkpt lat="-16.75832" lon="-150.9735">
        <ele>11.673218</ele>
        <time>2012-05-10T18:37:41Z</time>
      </trkpt>
      <trkpt lat="-16.75779" lon="-150.97437">
        <ele>13.115112</ele>
        <time>2012-05-10T18:37:53Z</time>
      </trkpt>
      <trkpt lat="-16.75719" lon="-150.97503">
        <ele>15.03772</ele>
        <time>2012-05-10T18:38:02Z</time>
      </trkpt>
      <trkpt lat="-16.75671" lon="-150.97519">
        <ele>15.03772</ele>
        <time>2012-05-10T18:38:07Z</time>
      </trkpt>
      <trkpt lat="-16.75553" lon="-150.97522">
        <ele>15.999023</ele>
        <time>2012-05-10T18:38:18Z</time>
      </trkpt>
      <trkpt lat="-16.75432" lon="-150.97496">
        <ele>16.479736</ele>
        <time>2012-05-10T18:38:29Z</time>
      </trkpt>
      <trkpt lat="-16.75379" lon="-150.9753">
        <ele>16.960449</ele>
        <time>2012-05-10T18:38:37Z</time>
      </trkpt>
      <trkpt lat="-16.75362" lon="-150.97573">
        <ele>15.518433</ele>
        <time>2012-05-10T18:38:41Z</time>
      </trkpt>
      <trkpt lat="-16.75354" lon="-150.97595">
        <ele>15.999023</ele>
        <time>2012-05-10T18:38:43Z</time>
      </trkpt>
      <trkpt lat="-16.7527" lon="-150.97719">
        <ele>15.999023</ele>
        <time>2012-05-10T18:38:56Z</time>
      </trkpt>
      <trkpt lat="-16.75259" lon="-150.97735">
        <ele>16.960449</ele>
        <time>2012-05-10T18:38:58Z</time>
      </trkpt>
      <trkpt lat="-16.75229" lon="-150.97843">
        <ele>14.557007</ele>
        <time>2012-05-10T18:39:09Z</time>
      </trkpt>
      <trkpt lat="-16.75228" lon="-150.97862">
        <ele>15.518433</ele>
        <time>2012-05-10T18:39:11Z</time>
      </trkpt>
      <trkpt lat="-16.75239" lon="-150.97906">
        <ele>15.03772</ele>
        <time>2012-05-10T18:39:16Z</time>
      </trkpt>
      <trkpt lat="-16.75268" lon="-150.97954">
        <ele>14.557007</ele>
        <time>2012-05-10T18:39:26Z</time>
      </trkpt>
      <trkpt lat="-16.75272" lon="-150.97956">
        <ele>15.03772</ele>
        <time>2012-05-10T18:39:39Z</time>
      </trkpt>
      <trkpt lat="-16.7529" lon="-150.97977">
        <ele>14.557007</ele>
        <time>2012-05-10T18:39:53Z</time>
      </trkpt>
      <trkpt lat="-16.75353" lon="-150.98027">
        <ele>15.999023</ele>
        <time>2012-05-10T18:40:05Z</time>
      </trkpt>
      <trkpt lat="-16.75369" lon="-150.98033">
        <ele>16.479736</ele>
        <time>2012-05-10T18:40:07Z</time>
      </trkpt>
      <trkpt lat="-16.7544" lon="-150.98087">
        <ele>18.883057</ele>
        <time>2012-05-10T18:40:17Z</time>
      </trkpt>
      <trkpt lat="-16.75527" lon="-150.98206">
        <ele>20.805664</ele>
        <time>2012-05-10T18:40:31Z</time>
      </trkpt>
      <trkpt lat="-16.75557" lon="-150.98251">
        <ele>20.805664</ele>
        <time>2012-05-10T18:40:36Z</time>
      </trkpt>
      <trkpt lat="-16.75661" lon="-150.98335">
        <ele>18.402344</ele>
        <time>2012-05-10T18:40:49Z</time>
      </trkpt>
      <trkpt lat="-16.75727" lon="-150.98369">
        <ele>16.960449</ele>
        <time>2012-05-10T18:40:56Z</time>
      </trkpt>
      <trkpt lat="-16.758" lon="-150.9845">
        <ele>15.999023</ele>
        <time>2012-05-10T18:41:07Z</time>
      </trkpt>
      <trkpt lat="-16.7584" lon="-150.98516">
        <ele>17.441162</ele>
        <time>2012-05-10T18:41:15Z</time>
      </trkpt>
      <trkpt lat="-16.7585" lon="-150.98542">
        <ele>15.999023</ele>
        <time>2012-05-10T18:41:18Z</time>
      </trkpt>
      <trkpt lat="-16.7588" lon="-150.98655">
        <ele>14.076416</ele>
        <time>2012-05-10T18:41:31Z</time>
      </trkpt>
      <trkpt lat="-16.7589" lon="-150.98709">
        <ele>15.03772</ele>
        <time>2012-05-10T18:41:38Z</time>
      </trkpt>
      <trkpt lat="-16.75912" lon="-150.98738">
        <ele>15.518433</ele>
        <time>2012-05-10T18:41:43Z</time>
      </trkpt>
      <trkpt lat="-16.76015" lon="-150.98794">
        <ele>16.479736</ele>
        <time>2012-05-10T18:41:57Z</time>
      </trkpt>
      <trkpt lat="-16.76148" lon="-150.98889">
        <ele>15.999023</ele>
        <time>2012-05-10T18:42:13Z</time>
      </trkpt>
      <trkpt lat="-16.76242" lon="-150.98988">
        <ele>15.518433</ele>
        <time>2012-05-10T18:42:26Z</time>
      </trkpt>
      <trkpt lat="-16.76308" lon="-150.99091">
        <ele>15.518433</ele>
        <time>2012-05-10T18:42:38Z</time>
      </trkpt>
      <trkpt lat="-16.76382" lon="-150.9917">
        <ele>15.999023</ele>
        <time>2012-05-10T18:42:50Z</time>
      </trkpt>
      <trkpt lat="-16.76437" lon="-150.99281">
        <ele>13.595825</ele>
        <time>2012-05-10T18:43:02Z</time>
      </trkpt>
      <trkpt lat="-16.76447" lon="-150.99309">
        <ele>14.076416</ele>
        <time>2012-05-10T18:43:05Z</time>
      </trkpt>
      <trkpt lat="-16.76449" lon="-150.99347">
        <ele>12.634399</ele>
        <time>2012-05-10T18:43:09Z</time>
      </trkpt>
      <trkpt lat="-16.76432" lon="-150.99436">
        <ele>14.076416</ele>
        <time>2012-05-10T18:43:20Z</time>
      </trkpt>
      <trkpt lat="-16.76404" lon="-150.99587">
        <ele>14.076416</ele>
        <time>2012-05-10T18:43:36Z</time>
      </trkpt>
      <trkpt lat="-16.76399" lon="-150.99612">
        <ele>13.595825</ele>
        <time>2012-05-10T18:43:39Z</time>
      </trkpt>
      <trkpt lat="-16.76384" lon="-150.9964">
        <ele>12.634399</ele>
        <time>2012-05-10T18:43:47Z</time>
      </trkpt>
      <trkpt lat="-16.76385" lon="-150.99654">
        <ele>13.115112</ele>
        <time>2012-05-10T18:43:56Z</time>
      </trkpt>
      <trkpt lat="-16.76383" lon="-150.99654">
        <ele>12.153809</ele>
        <time>2012-05-10T18:44:50Z</time>
      </trkpt>
      <trkpt lat="-16.7639" lon="-150.99663">
        <ele>12.634399</ele>
        <time>2012-05-10T18:46:13Z</time>
      </trkpt>
      <trkpt lat="-16.76418" lon="-150.99683">
        <ele>13.115112</ele>
        <time>2012-05-10T18:46:25Z</time>
      </trkpt>
      <trkpt lat="-16.76474" lon="-150.99741">
        <ele>15.03772</ele>
        <time>2012-05-10T18:46:38Z</time>
      </trkpt>
      <trkpt lat="-16.76569" lon="-150.99841">
        <ele>14.557007</ele>
        <time>2012-05-10T18:46:53Z</time>
      </trkpt>
      <trkpt lat="-16.76633" lon="-150.99922">
        <ele>15.999023</ele>
        <time>2012-05-10T18:47:04Z</time>
      </trkpt>
      <trkpt lat="-16.76648" lon="-150.99957">
        <ele>17.441162</ele>
        <time>2012-05-10T18:47:08Z</time>
      </trkpt>
      <trkpt lat="-16.76672" lon="-151.00001">
        <ele>18.402344</ele>
        <time>2012-05-10T18:47:13Z</time>
      </trkpt>
      <trkpt lat="-16.76682" lon="-151.0006">
        <ele>18.402344</ele>
        <time>2012-05-10T18:47:19Z</time>
      </trkpt>
      <trkpt lat="-16.7667" lon="-151.00111">
        <ele>17.441162</ele>
        <time>2012-05-10T18:47:24Z</time>
      </trkpt>
      <trkpt lat="-16.76701" lon="-151.00166">
        <ele>18.402344</ele>
        <time>2012-05-10T18:47:31Z</time>
      </trkpt>
      <trkpt lat="-16.7672" lon="-151.00172">
        <ele>19.36377</ele>
        <time>2012-05-10T18:47:33Z</time>
      </trkpt>
      <trkpt lat="-16.76749" lon="-151.00179">
        <ele>21.766968</ele>
        <time>2012-05-10T18:47:36Z</time>
      </trkpt>
      <trkpt lat="-16.76799" lon="-151.00232">
        <ele>24.170288</ele>
        <time>2012-05-10T18:47:44Z</time>
      </trkpt>
      <trkpt lat="-16.76801" lon="-151.00249">
        <ele>24.170288</ele>
        <time>2012-05-10T18:47:46Z</time>
      </trkpt>
      <trkpt lat="-16.76804" lon="-151.00275">
        <ele>25.612305</ele>
        <time>2012-05-10T18:47:49Z</time>
      </trkpt>
      <trkpt lat="-16.76815" lon="-151.00301">
        <ele>25.131714</ele>
        <time>2012-05-10T18:47:52Z</time>
      </trkpt>
      <trkpt lat="-16.76821" lon="-151.00338">
        <ele>23.689575</ele>
        <time>2012-05-10T18:47:56Z</time>
      </trkpt>
      <trkpt lat="-16.76819" lon="-151.00349">
        <ele>23.689575</ele>
        <time>2012-05-10T18:47:57Z</time>
      </trkpt>
      <trkpt lat="-16.76815" lon="-151.0037">
        <ele>22.728271</ele>
        <time>2012-05-10T18:47:59Z</time>
      </trkpt>
      <trkpt lat="-16.768" lon="-151.00408">
        <ele>21.286377</ele>
        <time>2012-05-10T18:48:03Z</time>
      </trkpt>
      <trkpt lat="-16.76807" lon="-151.00453">
        <ele>17.441162</ele>
        <time>2012-05-10T18:48:08Z</time>
      </trkpt>
      <trkpt lat="-16.76823" lon="-151.00481">
        <ele>18.883057</ele>
        <time>2012-05-10T18:48:11Z</time>
      </trkpt>
      <trkpt lat="-16.76853" lon="-151.00534">
        <ele>16.479736</ele>
        <time>2012-05-10T18:48:17Z</time>
      </trkpt>
      <trkpt lat="-16.76883" lon="-151.00555">
        <ele>17.441162</ele>
        <time>2012-05-10T18:48:21Z</time>
      </trkpt>
      <trkpt lat="-16.76898" lon="-151.00562">
        <ele>17.921753</ele>
        <time>2012-05-10T18:48:23Z</time>
      </trkpt>
      <trkpt lat="-16.76902" lon="-151.00606">
        <ele>16.960449</ele>
        <time>2012-05-10T18:48:30Z</time>
      </trkpt>
      <trkpt lat="-16.76877" lon="-151.00648">
        <ele>18.402344</ele>
        <time>2012-05-10T18:48:35Z</time>
      </trkpt>
      <trkpt lat="-16.76832" lon="-151.00715">
        <ele>18.883057</ele>
        <time>2012-05-10T18:48:43Z</time>
      </trkpt>
      <trkpt lat="-16.76821" lon="-151.00743">
        <ele>17.441162</ele>
        <time>2012-05-10T18:48:46Z</time>
      </trkpt>
      <trkpt lat="-16.76819" lon="-151.00753">
        <ele>16.960449</ele>
        <time>2012-05-10T18:48:47Z</time>
      </trkpt>
      <trkpt lat="-16.76804" lon="-151.00829">
        <ele>15.518433</ele>
        <time>2012-05-10T18:48:56Z</time>
      </trkpt>
      <trkpt lat="-16.76802" lon="-151.00841">
        <ele>15.03772</ele>
        <time>2012-05-10T18:48:58Z</time>
      </trkpt>
      <trkpt lat="-16.76805" lon="-151.00862">
        <ele>13.595825</ele>
        <time>2012-05-10T18:49:08Z</time>
      </trkpt>
      <trkpt lat="-16.7681" lon="-151.00879">
        <ele>14.076416</ele>
        <time>2012-05-10T18:49:31Z</time>
      </trkpt>
      <trkpt lat="-16.7679" lon="-151.00922">
        <ele>17.441162</ele>
        <time>2012-05-10T18:49:42Z</time>
      </trkpt>
      <trkpt lat="-16.76785" lon="-151.00931">
        <ele>18.402344</ele>
        <time>2012-05-10T18:49:44Z</time>
      </trkpt>
      <trkpt lat="-16.76748" lon="-151.0099">
        <ele>16.479736</ele>
        <time>2012-05-10T18:49:58Z</time>
      </trkpt>
      <trkpt lat="-16.76723" lon="-151.01002">
        <ele>15.999023</ele>
        <time>2012-05-10T18:50:03Z</time>
      </trkpt>
      <trkpt lat="-16.76626" lon="-151.0101">
        <ele>15.999023</ele>
        <time>2012-05-10T18:50:15Z</time>
      </trkpt>
      <trkpt lat="-16.7651" lon="-151.01046">
        <ele>15.03772</ele>
        <time>2012-05-10T18:50:28Z</time>
      </trkpt>
      <trkpt lat="-16.76417" lon="-151.01077">
        <ele>17.921753</ele>
        <time>2012-05-10T18:50:38Z</time>
      </trkpt>
      <trkpt lat="-16.76353" lon="-151.01097">
        <ele>19.36377</ele>
        <time>2012-05-10T18:50:45Z</time>
      </trkpt>
      <trkpt lat="-16.76344" lon="-151.01099">
        <ele>18.402344</ele>
        <time>2012-05-10T18:50:46Z</time>
      </trkpt>
      <trkpt lat="-16.76234" lon="-151.01146">
        <ele>20.805664</ele>
        <time>2012-05-10T18:50:59Z</time>
      </trkpt>
      <trkpt lat="-16.76138" lon="-151.01155">
        <ele>17.921753</ele>
        <time>2012-05-10T18:51:08Z</time>
      </trkpt>
      <trkpt lat="-16.76127" lon="-151.01157">
        <ele>17.921753</ele>
        <time>2012-05-10T18:51:09Z</time>
      </trkpt>
      <trkpt lat="-16.76096" lon="-151.01163">
        <ele>19.36377</ele>
        <time>2012-05-10T18:51:12Z</time>
      </trkpt>
      <trkpt lat="-16.76028" lon="-151.01173">
        <ele>22.728271</ele>
        <time>2012-05-10T18:51:19Z</time>
      </trkpt>
      <trkpt lat="-16.75937" lon="-151.01214">
        <ele>23.208984</ele>
        <time>2012-05-10T18:51:28Z</time>
      </trkpt>
      <trkpt lat="-16.75917" lon="-151.01226">
        <ele>21.766968</ele>
        <time>2012-05-10T18:51:30Z</time>
      </trkpt>
      <trkpt lat="-16.7578" lon="-151.01311">
        <ele>23.208984</ele>
        <time>2012-05-10T18:51:44Z</time>
      </trkpt>
      <trkpt lat="-16.75673" lon="-151.0137">
        <ele>21.286377</ele>
        <time>2012-05-10T18:51:56Z</time>
      </trkpt>
      <trkpt lat="-16.75665" lon="-151.01376">
        <ele>21.286377</ele>
        <time>2012-05-10T18:51:57Z</time>
      </trkpt>
      <trkpt lat="-16.75649" lon="-151.01388">
        <ele>22.247559</ele>
        <time>2012-05-10T18:51:59Z</time>
      </trkpt>
      <trkpt lat="-16.75612" lon="-151.01403">
        <ele>21.286377</ele>
        <time>2012-05-10T18:52:03Z</time>
      </trkpt>
      <trkpt lat="-16.75531" lon="-151.01438">
        <ele>18.883057</ele>
        <time>2012-05-10T18:52:12Z</time>
      </trkpt>
      <trkpt lat="-16.75495" lon="-151.01475">
        <ele>19.36377</ele>
        <time>2012-05-10T18:52:17Z</time>
      </trkpt>
      <trkpt lat="-16.75403" lon="-151.01588">
        <ele>22.247559</ele>
        <time>2012-05-10T18:52:31Z</time>
      </trkpt>
      <trkpt lat="-16.75347" lon="-151.01715">
        <ele>24.651001</ele>
        <time>2012-05-10T18:52:44Z</time>
      </trkpt>
      <trkpt lat="-16.7534" lon="-151.01758">
        <ele>27.054321</ele>
        <time>2012-05-10T18:52:48Z</time>
      </trkpt>
      <trkpt lat="-16.75333" lon="-151.0188">
        <ele>30.899536</ele>
        <time>2012-05-10T18:52:59Z</time>
      </trkpt>
      <trkpt lat="-16.75333" lon="-151.01891">
        <ele>31.380127</ele>
        <time>2012-05-10T18:53:00Z</time>
      </trkpt>
      <trkpt lat="-16.75336" lon="-151.01938">
        <ele>32.822266</ele>
        <time>2012-05-10T18:53:04Z</time>
      </trkpt>
      <trkpt lat="-16.7533" lon="-151.0197">
        <ele>35.225464</ele>
        <time>2012-05-10T18:53:07Z</time>
      </trkpt>
      <trkpt lat="-16.75318" lon="-151.0199">
        <ele>37.628662</ele>
        <time>2012-05-10T18:53:09Z</time>
      </trkpt>
      <trkpt lat="-16.7529" lon="-151.02027">
        <ele>42.435425</ele>
        <time>2012-05-10T18:53:13Z</time>
      </trkpt>
      <trkpt lat="-16.75277" lon="-151.02044">
        <ele>43.396606</ele>
        <time>2012-05-10T18:53:15Z</time>
      </trkpt>
      <trkpt lat="-16.75263" lon="-151.02059">
        <ele>44.838623</ele>
        <time>2012-05-10T18:53:17Z</time>
      </trkpt>
      <trkpt lat="-16.75221" lon="-151.02085">
        <ele>48.68396</ele>
        <time>2012-05-10T18:53:22Z</time>
      </trkpt>
      <trkpt lat="-16.75202" lon="-151.02091">
        <ele>51.567871</ele>
        <time>2012-05-10T18:53:24Z</time>
      </trkpt>
      <trkpt lat="-16.75175" lon="-151.02099">
        <ele>52.048584</ele>
        <time>2012-05-10T18:53:27Z</time>
      </trkpt>
      <trkpt lat="-16.75144" lon="-151.02118">
        <ele>53.971191</ele>
        <time>2012-05-10T18:53:31Z</time>
      </trkpt>
      <trkpt lat="-16.75132" lon="-151.0213">
        <ele>54.932373</ele>
        <time>2012-05-10T18:53:33Z</time>
      </trkpt>
      <trkpt lat="-16.75098" lon="-151.02179">
        <ele>55.893799</ele>
        <time>2012-05-10T18:53:40Z</time>
      </trkpt>
      <trkpt lat="-16.75064" lon="-151.02194">
        <ele>57.335815</ele>
        <time>2012-05-10T18:53:45Z</time>
      </trkpt>
      <trkpt lat="-16.75037" lon="-151.02187">
        <ele>56.855103</ele>
        <time>2012-05-10T18:53:48Z</time>
      </trkpt>
      <trkpt lat="-16.74995" lon="-151.02158">
        <ele>51.567871</ele>
        <time>2012-05-10T18:53:53Z</time>
      </trkpt>
      <trkpt lat="-16.74957" lon="-151.02118">
        <ele>45.799927</ele>
        <time>2012-05-10T18:53:58Z</time>
      </trkpt>
      <trkpt lat="-16.74872" lon="-151.02082">
        <ele>42.435425</ele>
        <time>2012-05-10T18:54:06Z</time>
      </trkpt>
      <trkpt lat="-16.74808" lon="-151.021">
        <ele>44.358032</ele>
        <time>2012-05-10T18:54:13Z</time>
      </trkpt>
      <trkpt lat="-16.74783" lon="-151.02129">
        <ele>45.799927</ele>
        <time>2012-05-10T18:54:17Z</time>
      </trkpt>
      <trkpt lat="-16.7476" lon="-151.02174">
        <ele>49.164551</ele>
        <time>2012-05-10T18:54:22Z</time>
      </trkpt>
      <trkpt lat="-16.74749" lon="-151.02203">
        <ele>52.048584</ele>
        <time>2012-05-10T18:54:25Z</time>
      </trkpt>
      <trkpt lat="-16.74738" lon="-151.0223">
        <ele>53.971191</ele>
        <time>2012-05-10T18:54:28Z</time>
      </trkpt>
      <trkpt lat="-16.74734" lon="-151.02237">
        <ele>53.971191</ele>
        <time>2012-05-10T18:54:29Z</time>
      </trkpt>
      <trkpt lat="-16.74695" lon="-151.0228">
        <ele>57.816528</ele>
        <time>2012-05-10T18:54:35Z</time>
      </trkpt>
      <trkpt lat="-16.74658" lon="-151.02311">
        <ele>60.219727</ele>
        <time>2012-05-10T18:54:40Z</time>
      </trkpt>
      <trkpt lat="-16.74644" lon="-151.02332">
        <ele>61.661743</ele>
        <time>2012-05-10T18:54:43Z</time>
      </trkpt>
      <trkpt lat="-16.74639" lon="-151.02338">
        <ele>61.661743</ele>
        <time>2012-05-10T18:54:44Z</time>
      </trkpt>
      <trkpt lat="-16.74594" lon="-151.02386">
        <ele>59.258423</ele>
        <time>2012-05-10T18:54:50Z</time>
      </trkpt>
      <trkpt lat="-16.74567" lon="-151.02448">
        <ele>55.413086</ele>
        <time>2012-05-10T18:54:57Z</time>
      </trkpt>
      <trkpt lat="-16.7456" lon="-151.02458">
        <ele>55.413086</ele>
        <time>2012-05-10T18:54:58Z</time>
      </trkpt>
      <trkpt lat="-16.74543" lon="-151.02491">
        <ele>52.048584</ele>
        <time>2012-05-10T18:55:01Z</time>
      </trkpt>
      <trkpt lat="-16.74527" lon="-151.02523">
        <ele>48.68396</ele>
        <time>2012-05-10T18:55:04Z</time>
      </trkpt>
      <trkpt lat="-16.74503" lon="-151.02571">
        <ele>45.799927</ele>
        <time>2012-05-10T18:55:08Z</time>
      </trkpt>
      <trkpt lat="-16.74498" lon="-151.02582">
        <ele>44.838623</ele>
        <time>2012-05-10T18:55:09Z</time>
      </trkpt>
      <trkpt lat="-16.74471" lon="-151.02613">
        <ele>40.512817</ele>
        <time>2012-05-10T18:55:12Z</time>
      </trkpt>
      <trkpt lat="-16.74464" lon="-151.02623">
        <ele>39.55127</ele>
        <time>2012-05-10T18:55:13Z</time>
      </trkpt>
      <trkpt lat="-16.74433" lon="-151.02646">
        <ele>35.225464</ele>
        <time>2012-05-10T18:55:17Z</time>
      </trkpt>
      <trkpt lat="-16.74368" lon="-151.02673">
        <ele>29.93811</ele>
        <time>2012-05-10T18:55:22Z</time>
      </trkpt>
      <trkpt lat="-16.74357" lon="-151.02682">
        <ele>28.496216</ele>
        <time>2012-05-10T18:55:23Z</time>
      </trkpt>
      <trkpt lat="-16.7421" lon="-151.0281">
        <ele>31.380127</ele>
        <time>2012-05-10T18:55:38Z</time>
      </trkpt>
      <trkpt lat="-16.74145" lon="-151.02895">
        <ele>32.341553</ele>
        <time>2012-05-10T18:55:48Z</time>
      </trkpt>
      <trkpt lat="-16.74083" lon="-151.02944">
        <ele>31.380127</ele>
        <time>2012-05-10T18:55:56Z</time>
      </trkpt>
      <trkpt lat="-16.74045" lon="-151.02955">
        <ele>28.015503</ele>
        <time>2012-05-10T18:56:00Z</time>
      </trkpt>
      <trkpt lat="-16.7399" lon="-151.02957">
        <ele>26.092896</ele>
        <time>2012-05-10T18:56:05Z</time>
      </trkpt>
      <trkpt lat="-16.73907" lon="-151.02979">
        <ele>22.728271</ele>
        <time>2012-05-10T18:56:13Z</time>
      </trkpt>
      <trkpt lat="-16.73897" lon="-151.02982">
        <ele>22.247559</ele>
        <time>2012-05-10T18:56:14Z</time>
      </trkpt>
      <trkpt lat="-16.73886" lon="-151.02986">
        <ele>22.247559</ele>
        <time>2012-05-10T18:56:15Z</time>
      </trkpt>
      <trkpt lat="-16.73821" lon="-151.03024">
        <ele>19.84436</ele>
        <time>2012-05-10T18:56:22Z</time>
      </trkpt>
      <trkpt lat="-16.73809" lon="-151.03037">
        <ele>19.36377</ele>
        <time>2012-05-10T18:56:24Z</time>
      </trkpt>
      <trkpt lat="-16.73767" lon="-151.0308">
        <ele>17.441162</ele>
        <time>2012-05-10T18:56:31Z</time>
      </trkpt>
      <trkpt lat="-16.73678" lon="-151.03156">
        <ele>16.960449</ele>
        <time>2012-05-10T18:56:44Z</time>
      </trkpt>
      <trkpt lat="-16.73605" lon="-151.03221">
        <ele>15.999023</ele>
        <time>2012-05-10T18:56:56Z</time>
      </trkpt>
      <trkpt lat="-16.73599" lon="-151.03227">
        <ele>15.999023</ele>
        <time>2012-05-10T18:56:57Z</time>
      </trkpt>
      <trkpt lat="-16.73488" lon="-151.03276">
        <ele>15.999023</ele>
        <time>2012-05-10T18:57:11Z</time>
      </trkpt>
      <trkpt lat="-16.73418" lon="-151.03308">
        <ele>16.479736</ele>
        <time>2012-05-10T18:57:22Z</time>
      </trkpt>
      <trkpt lat="-16.73406" lon="-151.03316">
        <ele>15.999023</ele>
        <time>2012-05-10T18:57:24Z</time>
      </trkpt>
      <trkpt lat="-16.73353" lon="-151.03399">
        <ele>15.999023</ele>
        <time>2012-05-10T18:57:35Z</time>
      </trkpt>
      <trkpt lat="-16.73292" lon="-151.03474">
        <ele>15.999023</ele>
        <time>2012-05-10T18:57:47Z</time>
      </trkpt>
      <trkpt lat="-16.73192" lon="-151.03523">
        <ele>15.518433</ele>
        <time>2012-05-10T18:58:00Z</time>
      </trkpt>
      <trkpt lat="-16.73091" lon="-151.03546">
        <ele>15.03772</ele>
        <time>2012-05-10T18:58:14Z</time>
      </trkpt>
      <trkpt lat="-16.73078" lon="-151.03552">
        <ele>15.03772</ele>
        <time>2012-05-10T18:58:16Z</time>
      </trkpt>
      <trkpt lat="-16.7305" lon="-151.03579">
        <ele>14.557007</ele>
        <time>2012-05-10T18:58:21Z</time>
      </trkpt>
      <trkpt lat="-16.72974" lon="-151.03688">
        <ele>15.03772</ele>
        <time>2012-05-10T18:58:38Z</time>
      </trkpt>
      <trkpt lat="-16.72891" lon="-151.03753">
        <ele>15.999023</ele>
        <time>2012-05-10T18:58:50Z</time>
      </trkpt>
      <trkpt lat="-16.72763" lon="-151.03781">
        <ele>15.03772</ele>
        <time>2012-05-10T18:59:05Z</time>
      </trkpt>
      <trkpt lat="-16.72644" lon="-151.03757">
        <ele>15.518433</ele>
        <time>2012-05-10T18:59:19Z</time>
      </trkpt>
      <trkpt lat="-16.72533" lon="-151.03704">
        <ele>15.518433</ele>
        <time>2012-05-10T18:59:33Z</time>
      </trkpt>
      <trkpt lat="-16.72454" lon="-151.03684">
        <ele>15.518433</ele>
        <time>2012-05-10T18:59:43Z</time>
      </trkpt>
      <trkpt lat="-16.72411" lon="-151.03688">
        <ele>15.03772</ele>
        <time>2012-05-10T18:59:48Z</time>
      </trkpt>
      <trkpt lat="-16.72328" lon="-151.03714">
        <ele>15.03772</ele>
        <time>2012-05-10T18:59:58Z</time>
      </trkpt>
      <trkpt lat="-16.72289" lon="-151.03707">
        <ele>15.518433</ele>
        <time>2012-05-10T19:00:03Z</time>
      </trkpt>
      <trkpt lat="-16.72207" lon="-151.03673">
        <ele>15.999023</ele>
        <time>2012-05-10T19:00:14Z</time>
      </trkpt>
      <trkpt lat="-16.72183" lon="-151.03637">
        <ele>15.999023</ele>
        <time>2012-05-10T19:00:20Z</time>
      </trkpt>
      <trkpt lat="-16.7218" lon="-151.03506">
        <ele>15.03772</ele>
        <time>2012-05-10T19:00:36Z</time>
      </trkpt>
      <trkpt lat="-16.72186" lon="-151.03456">
        <ele>15.03772</ele>
        <time>2012-05-10T19:00:43Z</time>
      </trkpt>
      <trkpt lat="-16.7222" lon="-151.03375">
        <ele>15.03772</ele>
        <time>2012-05-10T19:00:55Z</time>
      </trkpt>
      <trkpt lat="-16.72262" lon="-151.03271">
        <ele>14.557007</ele>
        <time>2012-05-10T19:01:09Z</time>
      </trkpt>
      <trkpt lat="-16.7227" lon="-151.03244">
        <ele>14.557007</ele>
        <time>2012-05-10T19:01:13Z</time>
      </trkpt>
      <trkpt lat="-16.72255" lon="-151.03179">
        <ele>14.557007</ele>
        <time>2012-05-10T19:01:22Z</time>
      </trkpt>
      <trkpt lat="-16.72184" lon="-151.0312">
        <ele>15.03772</ele>
        <time>2012-05-10T19:01:35Z</time>
      </trkpt>
      <trkpt lat="-16.72154" lon="-151.03102">
        <ele>14.557007</ele>
        <time>2012-05-10T19:01:40Z</time>
      </trkpt>
      <trkpt lat="-16.72116" lon="-151.03116">
        <ele>14.557007</ele>
        <time>2012-05-10T19:01:47Z</time>
      </trkpt>
      <trkpt lat="-16.72066" lon="-151.03212">
        <ele>14.557007</ele>
        <time>2012-05-10T19:02:03Z</time>
      </trkpt>
      <trkpt lat="-16.72049" lon="-151.03232">
        <ele>14.557007</ele>
        <time>2012-05-10T19:02:07Z</time>
      </trkpt>
      <trkpt lat="-16.71961" lon="-151.03277">
        <ele>14.076416</ele>
        <time>2012-05-10T19:02:21Z</time>
      </trkpt>
      <trkpt lat="-16.71892" lon="-151.03327">
        <ele>15.03772</ele>
        <time>2012-05-10T19:02:33Z</time>
      </trkpt>
      <trkpt lat="-16.71821" lon="-151.03358">
        <ele>14.557007</ele>
        <time>2012-05-10T19:02:43Z</time>
      </trkpt>
      <trkpt lat="-16.71799" lon="-151.03362">
        <ele>14.557007</ele>
        <time>2012-05-10T19:02:46Z</time>
      </trkpt>
      <trkpt lat="-16.71671" lon="-151.03352">
        <ele>14.557007</ele>
        <time>2012-05-10T19:03:03Z</time>
      </trkpt>
      <trkpt lat="-16.71658" lon="-151.0335">
        <ele>15.03772</ele>
        <time>2012-05-10T19:03:05Z</time>
      </trkpt>
      <trkpt lat="-16.71568" lon="-151.03318">
        <ele>15.03772</ele>
        <time>2012-05-10T19:03:20Z</time>
      </trkpt>
      <trkpt lat="-16.71539" lon="-151.03315">
        <ele>15.03772</ele>
        <time>2012-05-10T19:03:25Z</time>
      </trkpt>
      <trkpt lat="-16.71526" lon="-151.0333">
        <ele>14.076416</ele>
        <time>2012-05-10T19:03:30Z</time>
      </trkpt>
      <trkpt lat="-16.71505" lon="-151.03365">
        <ele>15.03772</ele>
        <time>2012-05-10T19:03:38Z</time>
      </trkpt>
      <trkpt lat="-16.71471" lon="-151.03391">
        <ele>14.076416</ele>
        <time>2012-05-10T19:03:46Z</time>
      </trkpt>
      <trkpt lat="-16.71442" lon="-151.0343">
        <ele>13.595825</ele>
        <time>2012-05-10T19:03:58Z</time>
      </trkpt>
      <trkpt lat="-16.7143" lon="-151.03453">
        <ele>14.076416</ele>
        <time>2012-05-10T19:04:08Z</time>
      </trkpt>
      <trkpt lat="-16.71418" lon="-151.03475">
        <ele>13.595825</ele>
        <time>2012-05-10T19:04:21Z</time>
      </trkpt>
      <trkpt lat="-16.71408" lon="-151.03505">
        <ele>13.595825</ele>
        <time>2012-05-10T19:04:34Z</time>
      </trkpt>
      <trkpt lat="-16.71399" lon="-151.03533">
        <ele>13.595825</ele>
        <time>2012-05-10T19:04:46Z</time>
      </trkpt>
      <trkpt lat="-16.71388" lon="-151.03572">
        <ele>13.595825</ele>
        <time>2012-05-10T19:05:00Z</time>
      </trkpt>
      <trkpt lat="-16.71388" lon="-151.03577">
        <ele>13.115112</ele>
        <time>2012-05-10T19:05:06Z</time>
      </trkpt>
      <trkpt lat="-16.71394" lon="-151.03582">
        <ele>13.115112</ele>
        <time>2012-05-10T19:05:18Z</time>
      </trkpt>
      <trkpt lat="-16.71396" lon="-151.03583">
        <ele>14.557007</ele>
        <time>2012-05-10T19:05:51Z</time>
      </trkpt>
      <trkpt lat="-16.71396" lon="-151.03584">
        <ele>14.076416</ele>
        <time>2012-05-10T19:06:08Z</time>
      </trkpt>
      <trkpt lat="-16.71395" lon="-151.03584">
        <ele>13.595825</ele>
        <time>2012-05-10T19:06:31Z</time>
      </trkpt>
      <trkpt lat="-16.71395" lon="-151.03586">
        <ele>12.634399</ele>
        <time>2012-05-10T19:06:51Z</time>
      </trkpt>
      <trkpt lat="-16.71396" lon="-151.03584">
        <ele>13.595825</ele>
        <time>2012-05-10T19:07:27Z</time>
      </trkpt>
      <trkpt lat="-16.71396" lon="-151.03583">
        <ele>12.634399</ele>
        <time>2012-05-10T19:09:03Z</time>
      </trkpt>
      <trkpt lat="-16.71398" lon="-151.03582">
        <ele>13.595825</ele>
        <time>2012-05-10T19:09:58Z</time>
      </trkpt>
      <trkpt lat="-16.71394" lon="-151.03582">
        <ele>13.115112</ele>
        <time>2012-05-10T19:10:48Z</time>
      </trkpt>
      <trkpt lat="-16.71393" lon="-151.03584">
        <ele>13.595825</ele>
        <time>2012-05-10T19:11:25Z</time>
      </trkpt>
      <trkpt lat="-16.71396" lon="-151.03584">
        <ele>13.595825</ele>
        <time>2012-05-10T19:12:40Z</time>
      </trkpt>
      <trkpt lat="-16.71398" lon="-151.03583">
        <ele>13.595825</ele>
        <time>2012-05-10T19:15:33Z</time>
      </trkpt>
      <trkpt lat="-16.71396" lon="-151.03584">
        <ele>15.03772</ele>
        <time>2012-05-10T19:17:33Z</time>
      </trkpt>
      <trkpt lat="-16.7139" lon="-151.03583">
        <ele>15.03772</ele>
        <time>2012-05-10T19:20:19Z</time>
      </trkpt>
      <trkpt lat="-16.71391" lon="-151.03583">
        <ele>15.03772</ele>
        <time>2012-05-10T19:21:06Z</time>
      </trkpt>
      <trkpt lat="-16.71396" lon="-151.03584">
        <ele>15.03772</ele>
        <time>2012-05-10T19:23:20Z</time>
      </trkpt>
      <trkpt lat="-16.71392" lon="-151.0358">
        <ele>15.999023</ele>
        <time>2012-05-10T19:26:41Z</time>
      </trkpt>
      <trkpt lat="-16.71394" lon="-151.0358">
        <ele>16.479736</ele>
        <time>2012-05-10T19:28:00Z</time>
      </trkpt>
      <trkpt lat="-16.71395" lon="-151.03585">
        <ele>15.518433</ele>
        <time>2012-05-10T19:30:54Z</time>
      </trkpt>
      <trkpt lat="-16.71392" lon="-151.03585">
        <ele>15.03772</ele>
        <time>2012-05-10T19:31:44Z</time>
      </trkpt>
      <trkpt lat="-16.71394" lon="-151.03586">
        <ele>15.03772</ele>
        <time>2012-05-10T19:33:02Z</time>
      </trkpt>
      <trkpt lat="-16.71394" lon="-151.03586">
        <ele>15.03772</ele>
        <time>2012-05-10T19:33:31Z</time>
      </trkpt>
      <trkpt lat="-16.71394" lon="-151.03586">
        <ele>15.03772</ele>
        <time>2012-05-10T19:33:55Z</time>
      </trkpt>
      <trkpt lat="-16.71392" lon="-151.03586">
        <ele>15.999023</ele>
        <time>2012-05-10T19:34:25Z</time>
      </trkpt>
      <trkpt lat="-16.71387" lon="-151.03588">
        <ele>15.999023</ele>
        <time>2012-05-10T19:35:25Z</time>
      </trkpt>
      <trkpt lat="-16.71385" lon="-151.03588">
        <ele>16.479736</ele>
        <time>2012-05-10T19:36:02Z</time>
      </trkpt>
      <trkpt lat="-16.71384" lon="-151.03589">
        <ele>16.479736</ele>
        <time>2012-05-10T19:36:31Z</time>
      </trkpt>
      <trkpt lat="-16.71393" lon="-151.03589">
        <ele>17.441162</ele>
        <time>2012-05-10T19:38:27Z</time>
      </trkpt>
      <trkpt lat="-16.7139" lon="-151.03582">
        <ele>17.921753</ele>
        <time>2012-05-10T19:50:15Z</time>
      </trkpt>
      <trkpt lat="-16.71397" lon="-151.0358">
        <ele>17.441162</ele>
        <time>2012-05-10T19:51:24Z</time>
      </trkpt>
      <trkpt lat="-16.714" lon="-151.03581">
        <ele>17.441162</ele>
        <time>2012-05-10T19:51:50Z</time>
      </trkpt>
      <trkpt lat="-16.71394" lon="-151.03582">
        <ele>16.960449</ele>
        <time>2012-05-10T19:53:02Z</time>
      </trkpt>
      <trkpt lat="-16.71392" lon="-151.03581">
        <ele>16.479736</ele>
        <time>2012-05-10T19:54:19Z</time>
      </trkpt>
      <trkpt lat="-16.7139" lon="-151.0358">
        <ele>15.518433</ele>
        <time>2012-05-10T19:56:10Z</time>
      </trkpt>
      <trkpt lat="-16.71391" lon="-151.0358">
        <ele>16.479736</ele>
        <time>2012-05-10T19:58:02Z</time>
      </trkpt>
      <trkpt lat="-16.71394" lon="-151.0358">
        <ele>15.999023</ele>
        <time>2012-05-10T20:01:36Z</time>
      </trkpt>
      <trkpt lat="-16.71392" lon="-151.03581">
        <ele>14.557007</ele>
        <time>2012-05-10T20:04:00Z</time>
      </trkpt>
      <trkpt lat="-16.71389" lon="-151.03583">
        <ele>14.557007</ele>
        <time>2012-05-10T20:05:55Z</time>
      </trkpt>
      <trkpt lat="-16.71389" lon="-151.03582">
        <ele>13.115112</ele>
        <time>2012-05-10T20:08:07Z</time>
      </trkpt>
      <trkpt lat="-16.71387" lon="-151.03587">
        <ele>14.076416</ele>
        <time>2012-05-10T20:16:58Z</time>
      </trkpt>
      <trkpt lat="-16.7139" lon="-151.03581">
        <ele>15.518433</ele>
        <time>2012-05-10T20:19:52Z</time>
      </trkpt>
      <trkpt lat="-16.71392" lon="-151.03584">
        <ele>15.999023</ele>
        <time>2012-05-10T20:21:27Z</time>
      </trkpt>
      <trkpt lat="-16.71389" lon="-151.03579">
        <ele>16.479736</ele>
        <time>2012-05-10T20:22:21Z</time>
      </trkpt>
      <trkpt lat="-16.71388" lon="-151.03581">
        <ele>16.479736</ele>
        <time>2012-05-10T20:22:46Z</time>
      </trkpt>
      <trkpt lat="-16.71389" lon="-151.03582">
        <ele>16.960449</ele>
        <time>2012-05-10T20:23:23Z</time>
      </trkpt>
      <trkpt lat="-16.71392" lon="-151.03588">
        <ele>17.441162</ele>
        <time>2012-05-10T20:24:51Z</time>
      </trkpt>
      <trkpt lat="-16.71391" lon="-151.03584">
        <ele>17.921753</ele>
        <time>2012-05-10T20:25:46Z</time>
      </trkpt>
      <trkpt lat="-16.71393" lon="-151.03584">
        <ele>18.402344</ele>
        <time>2012-05-10T20:26:16Z</time>
      </trkpt>
      <trkpt lat="-16.71392" lon="-151.03583">
        <ele>19.36377</ele>
        <time>2012-05-10T20:26:51Z</time>
      </trkpt>
      <trkpt lat="-16.71394" lon="-151.03583">
        <ele>19.36377</ele>
        <time>2012-05-10T20:27:51Z</time>
      </trkpt>
      <trkpt lat="-16.71392" lon="-151.03583">
        <ele>19.36377</ele>
        <time>2012-05-10T20:29:46Z</time>
      </trkpt>
      <trkpt lat="-16.71393" lon="-151.03578">
        <ele>18.883057</ele>
        <time>2012-05-10T20:30:35Z</time>
      </trkpt>
      <trkpt lat="-16.71392" lon="-151.03579">
        <ele>19.36377</ele>
        <time>2012-05-10T20:31:03Z</time>
      </trkpt>
      <trkpt lat="-16.71387" lon="-151.03581">
        <ele>19.84436</ele>
        <time>2012-05-10T20:31:48Z</time>
      </trkpt>
      <trkpt lat="-16.71385" lon="-151.03579">
        <ele>19.36377</ele>
        <time>2012-05-10T20:31:54Z</time>
      </trkpt>
      <trkpt lat="-16.71359" lon="-151.03589">
        <ele>19.84436</ele>
        <time>2012-05-10T20:32:05Z</time>
      </trkpt>
      <trkpt lat="-16.71328" lon="-151.03571">
        <ele>19.84436</ele>
        <time>2012-05-10T20:32:17Z</time>
      </trkpt>
      <trkpt lat="-16.71293" lon="-151.03548">
        <ele>20.324951</ele>
        <time>2012-05-10T20:32:31Z</time>
      </trkpt>
      <trkpt lat="-16.71262" lon="-151.03521">
        <ele>20.324951</ele>
        <time>2012-05-10T20:32:45Z</time>
      </trkpt>
      <trkpt lat="-16.71241" lon="-151.03502">
        <ele>19.84436</ele>
        <time>2012-05-10T20:32:57Z</time>
      </trkpt>
      <trkpt lat="-16.71233" lon="-151.03495">
        <ele>20.805664</ele>
        <time>2012-05-10T20:33:03Z</time>
      </trkpt>
      <trkpt lat="-16.71178" lon="-151.03507">
        <ele>21.766968</ele>
        <time>2012-05-10T20:33:13Z</time>
      </trkpt>
      <trkpt lat="-16.71097" lon="-151.03531">
        <ele>20.324951</ele>
        <time>2012-05-10T20:33:26Z</time>
      </trkpt>
      <trkpt lat="-16.71021" lon="-151.03527">
        <ele>21.286377</ele>
        <time>2012-05-10T20:33:38Z</time>
      </trkpt>
      <trkpt lat="-16.70897" lon="-151.03512">
        <ele>20.805664</ele>
        <time>2012-05-10T20:33:54Z</time>
      </trkpt>
      <trkpt lat="-16.70794" lon="-151.03488">
        <ele>22.728271</ele>
        <time>2012-05-10T20:34:07Z</time>
      </trkpt>
      <trkpt lat="-16.70675" lon="-151.03443">
        <ele>23.208984</ele>
        <time>2012-05-10T20:34:22Z</time>
      </trkpt>
      <trkpt lat="-16.70627" lon="-151.03429">
        <ele>22.728271</ele>
        <time>2012-05-10T20:34:28Z</time>
      </trkpt>
      <trkpt lat="-16.70545" lon="-151.03368">
        <ele>23.208984</ele>
        <time>2012-05-10T20:34:39Z</time>
      </trkpt>
      <trkpt lat="-16.70438" lon="-151.03301">
        <ele>26.092896</ele>
        <time>2012-05-10T20:34:52Z</time>
      </trkpt>
      <trkpt lat="-16.70375" lon="-151.03219">
        <ele>24.651001</ele>
        <time>2012-05-10T20:35:03Z</time>
      </trkpt>
      <trkpt lat="-16.70322" lon="-151.03088">
        <ele>24.170288</ele>
        <time>2012-05-10T20:35:17Z</time>
      </trkpt>
      <trkpt lat="-16.70278" lon="-151.02966">
        <ele>25.612305</ele>
        <time>2012-05-10T20:35:29Z</time>
      </trkpt>
      <trkpt lat="-16.70261" lon="-151.0293">
        <ele>27.054321</ele>
        <time>2012-05-10T20:35:33Z</time>
      </trkpt>
      <trkpt lat="-16.70247" lon="-151.02894">
        <ele>23.208984</ele>
        <time>2012-05-10T20:35:37Z</time>
      </trkpt>
      <trkpt lat="-16.70244" lon="-151.02886">
        <ele>23.208984</ele>
        <time>2012-05-10T20:35:38Z</time>
      </trkpt>
      <trkpt lat="-16.70203" lon="-151.02801">
        <ele>23.208984</ele>
        <time>2012-05-10T20:35:48Z</time>
      </trkpt>
      <trkpt lat="-16.70194" lon="-151.02782">
        <ele>22.728271</ele>
        <time>2012-05-10T20:35:50Z</time>
      </trkpt>
      <trkpt lat="-16.70163" lon="-151.0267">
        <ele>23.208984</ele>
        <time>2012-05-10T20:36:02Z</time>
      </trkpt>
      <trkpt lat="-16.70162" lon="-151.02629">
        <ele>24.170288</ele>
        <time>2012-05-10T20:36:06Z</time>
      </trkpt>
      <trkpt lat="-16.70168" lon="-151.0245">
        <ele>23.689575</ele>
        <time>2012-05-10T20:36:22Z</time>
      </trkpt>
      <trkpt lat="-16.7016" lon="-151.02415">
        <ele>22.728271</ele>
        <time>2012-05-10T20:36:25Z</time>
      </trkpt>
      <trkpt lat="-16.7011" lon="-151.0223">
        <ele>23.208984</ele>
        <time>2012-05-10T20:36:41Z</time>
      </trkpt>
      <trkpt lat="-16.70112" lon="-151.02185">
        <ele>22.728271</ele>
        <time>2012-05-10T20:36:45Z</time>
      </trkpt>
      <trkpt lat="-16.70146" lon="-151.02076">
        <ele>21.766968</ele>
        <time>2012-05-10T20:36:55Z</time>
      </trkpt>
      <trkpt lat="-16.70146" lon="-151.02035">
        <ele>23.208984</ele>
        <time>2012-05-10T20:36:59Z</time>
      </trkpt>
      <trkpt lat="-16.70108" lon="-151.01881">
        <ele>19.84436</ele>
        <time>2012-05-10T20:37:14Z</time>
      </trkpt>
      <trkpt lat="-16.70098" lon="-151.01852">
        <ele>19.36377</ele>
        <time>2012-05-10T20:37:22Z</time>
      </trkpt>
      <trkpt lat="-16.70082" lon="-151.018">
        <ele>21.286377</ele>
        <time>2012-05-10T20:37:30Z</time>
      </trkpt>
      <trkpt lat="-16.70073" lon="-151.01774">
        <ele>22.728271</ele>
        <time>2012-05-10T20:37:33Z</time>
      </trkpt>
      <trkpt lat="-16.70057" lon="-151.01727">
        <ele>23.208984</ele>
        <time>2012-05-10T20:37:38Z</time>
      </trkpt>
      <trkpt lat="-16.70023" lon="-151.01596">
        <ele>23.208984</ele>
        <time>2012-05-10T20:37:51Z</time>
      </trkpt>
      <trkpt lat="-16.70008" lon="-151.01464">
        <ele>22.728271</ele>
        <time>2012-05-10T20:38:03Z</time>
      </trkpt>
      <trkpt lat="-16.70008" lon="-151.01454">
        <ele>22.728271</ele>
        <time>2012-05-10T20:38:04Z</time>
      </trkpt>
      <trkpt lat="-16.7001" lon="-151.01324">
        <ele>23.689575</ele>
        <time>2012-05-10T20:38:15Z</time>
      </trkpt>
      <trkpt lat="-16.70006" lon="-151.01239">
        <ele>22.247559</ele>
        <time>2012-05-10T20:38:22Z</time>
      </trkpt>
      <trkpt lat="-16.70018" lon="-151.01186">
        <ele>20.805664</ele>
        <time>2012-05-10T20:38:27Z</time>
      </trkpt>
      <trkpt lat="-16.70033" lon="-151.01156">
        <ele>21.286377</ele>
        <time>2012-05-10T20:38:30Z</time>
      </trkpt>
      <trkpt lat="-16.70104" lon="-151.01079">
        <ele>20.324951</ele>
        <time>2012-05-10T20:38:40Z</time>
      </trkpt>
      <trkpt lat="-16.70137" lon="-151.01027">
        <ele>19.84436</ele>
        <time>2012-05-10T20:38:46Z</time>
      </trkpt>
      <trkpt lat="-16.70148" lon="-151.01">
        <ele>19.84436</ele>
        <time>2012-05-10T20:38:49Z</time>
      </trkpt>
      <trkpt lat="-16.70149" lon="-151.0095">
        <ele>22.247559</ele>
        <time>2012-05-10T20:38:54Z</time>
      </trkpt>
      <trkpt lat="-16.70135" lon="-151.009">
        <ele>20.324951</ele>
        <time>2012-05-10T20:38:59Z</time>
      </trkpt>
      <trkpt lat="-16.70083" lon="-151.00833">
        <ele>23.689575</ele>
        <time>2012-05-10T20:39:07Z</time>
      </trkpt>
      <trkpt lat="-16.70043" lon="-151.00811">
        <ele>21.286377</ele>
        <time>2012-05-10T20:39:11Z</time>
      </trkpt>
      <trkpt lat="-16.69916" lon="-151.00772">
        <ele>20.324951</ele>
        <time>2012-05-10T20:39:23Z</time>
      </trkpt>
      <trkpt lat="-16.69898" lon="-151.00767">
        <ele>19.36377</ele>
        <time>2012-05-10T20:39:25Z</time>
      </trkpt>
      <trkpt lat="-16.69878" lon="-151.00743">
        <ele>19.36377</ele>
        <time>2012-05-10T20:39:29Z</time>
      </trkpt>
      <trkpt lat="-16.69822" lon="-151.00578">
        <ele>20.324951</ele>
        <time>2012-05-10T20:39:46Z</time>
      </trkpt>
      <trkpt lat="-16.69809" lon="-151.00452">
        <ele>22.247559</ele>
        <time>2012-05-10T20:39:58Z</time>
      </trkpt>
      <trkpt lat="-16.69807" lon="-151.00408">
        <ele>22.728271</ele>
        <time>2012-05-10T20:40:02Z</time>
      </trkpt>
      <trkpt lat="-16.69814" lon="-151.0019">
        <ele>21.286377</ele>
        <time>2012-05-10T20:40:21Z</time>
      </trkpt>
      <trkpt lat="-16.69819" lon="-151.00026">
        <ele>19.84436</ele>
        <time>2012-05-10T20:40:36Z</time>
      </trkpt>
      <trkpt lat="-16.69834" lon="-150.99842">
        <ele>19.84436</ele>
        <time>2012-05-10T20:40:53Z</time>
      </trkpt>
      <trkpt lat="-16.69875" lon="-150.99748">
        <ele>18.883057</ele>
        <time>2012-05-10T20:41:03Z</time>
      </trkpt>
      <trkpt lat="-16.69898" lon="-150.99713">
        <ele>19.36377</ele>
        <time>2012-05-10T20:41:07Z</time>
      </trkpt>
      <trkpt lat="-16.69913" lon="-150.9966">
        <ele>21.766968</ele>
        <time>2012-05-10T20:41:12Z</time>
      </trkpt>
      <trkpt lat="-16.69912" lon="-150.99589">
        <ele>24.170288</ele>
        <time>2012-05-10T20:41:18Z</time>
      </trkpt>
      <trkpt lat="-16.69919" lon="-150.99492">
        <ele>20.805664</ele>
        <time>2012-05-10T20:41:27Z</time>
      </trkpt>
      <trkpt lat="-16.69907" lon="-150.99444">
        <ele>18.402344</ele>
        <time>2012-05-10T20:41:32Z</time>
      </trkpt>
      <trkpt lat="-16.69838" lon="-150.99325">
        <ele>18.402344</ele>
        <time>2012-05-10T20:41:47Z</time>
      </trkpt>
      <trkpt lat="-16.69805" lon="-150.9923">
        <ele>17.921753</ele>
        <time>2012-05-10T20:42:01Z</time>
      </trkpt>
      <trkpt lat="-16.69802" lon="-150.99188">
        <ele>15.999023</ele>
        <time>2012-05-10T20:42:11Z</time>
      </trkpt>
      <trkpt lat="-16.69801" lon="-150.99148">
        <ele>17.441162</ele>
        <time>2012-05-10T20:42:25Z</time>
      </trkpt>
      <trkpt lat="-16.69794" lon="-150.99064">
        <ele>17.921753</ele>
        <time>2012-05-10T20:42:39Z</time>
      </trkpt>
      <trkpt lat="-16.69816" lon="-150.98989">
        <ele>18.402344</ele>
        <time>2012-05-10T20:42:52Z</time>
      </trkpt>
      <trkpt lat="-16.69869" lon="-150.98931">
        <ele>18.402344</ele>
        <time>2012-05-10T20:43:04Z</time>
      </trkpt>
      <trkpt lat="-16.6994" lon="-150.98853">
        <ele>17.921753</ele>
        <time>2012-05-10T20:43:20Z</time>
      </trkpt>
      <trkpt lat="-16.69999" lon="-150.98779">
        <ele>17.921753</ele>
        <time>2012-05-10T20:43:34Z</time>
      </trkpt>
      <trkpt lat="-16.70069" lon="-150.98704">
        <ele>16.960449</ele>
        <time>2012-05-10T20:43:50Z</time>
      </trkpt>
      <trkpt lat="-16.70166" lon="-150.98624">
        <ele>17.921753</ele>
        <time>2012-05-10T20:44:09Z</time>
      </trkpt>
      <trkpt lat="-16.70193" lon="-150.98607">
        <ele>16.960449</ele>
        <time>2012-05-10T20:44:14Z</time>
      </trkpt>
      <trkpt lat="-16.70216" lon="-150.98593">
        <ele>15.518433</ele>
        <time>2012-05-10T20:44:23Z</time>
      </trkpt>
      <trkpt lat="-16.70215" lon="-150.98591">
        <ele>15.518433</ele>
        <time>2012-05-10T20:44:39Z</time>
      </trkpt>
      <trkpt lat="-16.70213" lon="-150.98589">
        <ele>15.518433</ele>
        <time>2012-05-10T20:45:20Z</time>
      </trkpt>
      <trkpt lat="-16.70216" lon="-150.98589">
        <ele>15.03772</ele>
        <time>2012-05-10T20:45:48Z</time>
      </trkpt>
      <trkpt lat="-16.70218" lon="-150.98589">
        <ele>15.518433</ele>
        <time>2012-05-10T20:46:17Z</time>
      </trkpt>
      <trkpt lat="-16.70217" lon="-150.98588">
        <ele>15.518433</ele>
        <time>2012-05-10T20:46:58Z</time>
      </trkpt>
      <trkpt lat="-16.70219" lon="-150.98589">
        <ele>15.999023</ele>
        <time>2012-05-10T20:47:34Z</time>
      </trkpt>
      <trkpt lat="-16.70221" lon="-150.98587">
        <ele>15.518433</ele>
        <time>2012-05-10T20:48:13Z</time>
      </trkpt>
      <trkpt lat="-16.70212" lon="-150.98585">
        <ele>15.518433</ele>
        <time>2012-05-10T20:49:09Z</time>
      </trkpt>
      <trkpt lat="-16.7021" lon="-150.98587">
        <ele>15.03772</ele>
        <time>2012-05-10T20:49:39Z</time>
      </trkpt>
      <trkpt lat="-16.70218" lon="-150.98585">
        <ele>14.557007</ele>
        <time>2012-05-10T20:50:07Z</time>
      </trkpt>
      <trkpt lat="-16.70218" lon="-150.98586">
        <ele>14.557007</ele>
        <time>2012-05-10T20:50:35Z</time>
      </trkpt>
      <trkpt lat="-16.70215" lon="-150.98588">
        <ele>15.03772</ele>
        <time>2012-05-10T20:51:07Z</time>
      </trkpt>
      <trkpt lat="-16.70212" lon="-150.98594">
        <ele>15.518433</ele>
        <time>2012-05-10T20:51:18Z</time>
      </trkpt>
      <trkpt lat="-16.70215" lon="-150.98596">
        <ele>15.03772</ele>
        <time>2012-05-10T20:51:19Z</time>
      </trkpt>
      <trkpt lat="-16.70237" lon="-150.98607">
        <ele>15.518433</ele>
        <time>2012-05-10T20:51:25Z</time>
      </trkpt>
      <trkpt lat="-16.70254" lon="-150.98623">
        <ele>15.999023</ele>
        <time>2012-05-10T20:51:29Z</time>
      </trkpt>
      <trkpt lat="-16.70333" lon="-150.98658">
        <ele>17.441162</ele>
        <time>2012-05-10T20:51:41Z</time>
      </trkpt>
      <trkpt lat="-16.70447" lon="-150.98711">
        <ele>16.960449</ele>
        <time>2012-05-10T20:51:55Z</time>
      </trkpt>
      <trkpt lat="-16.7052" lon="-150.98743">
        <ele>16.479736</ele>
        <time>2012-05-10T20:52:03Z</time>
      </trkpt>
      <trkpt lat="-16.70627" lon="-150.98732">
        <ele>17.441162</ele>
        <time>2012-05-10T20:52:15Z</time>
      </trkpt>
      <trkpt lat="-16.70762" lon="-150.98707">
        <ele>16.960449</ele>
        <time>2012-05-10T20:52:30Z</time>
      </trkpt>
      <trkpt lat="-16.70838" lon="-150.98711">
        <ele>16.479736</ele>
        <time>2012-05-10T20:52:38Z</time>
      </trkpt>
      <trkpt lat="-16.70962" lon="-150.9873">
        <ele>16.960449</ele>
        <time>2012-05-10T20:52:51Z</time>
      </trkpt>
      <trkpt lat="-16.71066" lon="-150.98727">
        <ele>15.999023</ele>
        <time>2012-05-10T20:53:02Z</time>
      </trkpt>
      <trkpt lat="-16.71184" lon="-150.98713">
        <ele>18.402344</ele>
        <time>2012-05-10T20:53:14Z</time>
      </trkpt>
      <trkpt lat="-16.71335" lon="-150.987">
        <ele>16.960449</ele>
        <time>2012-05-10T20:53:30Z</time>
      </trkpt>
      <trkpt lat="-16.71516" lon="-150.98679">
        <ele>16.960449</ele>
        <time>2012-05-10T20:53:50Z</time>
      </trkpt>
      <trkpt lat="-16.71646" lon="-150.98664">
        <ele>15.03772</ele>
        <time>2012-05-10T20:54:05Z</time>
      </trkpt>
      <trkpt lat="-16.71757" lon="-150.98659">
        <ele>15.999023</ele>
        <time>2012-05-10T20:54:18Z</time>
      </trkpt>
      <trkpt lat="-16.71915" lon="-150.98689">
        <ele>16.960449</ele>
        <time>2012-05-10T20:54:34Z</time>
      </trkpt>
      <trkpt lat="-16.72027" lon="-150.9874">
        <ele>16.479736</ele>
        <time>2012-05-10T20:54:46Z</time>
      </trkpt>
      <trkpt lat="-16.72061" lon="-150.98751">
        <ele>16.479736</ele>
        <time>2012-05-10T20:54:50Z</time>
      </trkpt>
      <trkpt lat="-16.72097" lon="-150.98751">
        <ele>18.883057</ele>
        <time>2012-05-10T20:54:54Z</time>
      </trkpt>
      <trkpt lat="-16.72215" lon="-150.98732">
        <ele>17.441162</ele>
        <time>2012-05-10T20:55:08Z</time>
      </trkpt>
      <trkpt lat="-16.72244" lon="-150.98728">
        <ele>17.441162</ele>
        <time>2012-05-10T20:55:12Z</time>
      </trkpt>
      <trkpt lat="-16.72291" lon="-150.98682">
        <ele>17.441162</ele>
        <time>2012-05-10T20:55:21Z</time>
      </trkpt>
      <trkpt lat="-16.72303" lon="-150.98652">
        <ele>16.960449</ele>
        <time>2012-05-10T20:55:25Z</time>
      </trkpt>
      <trkpt lat="-16.72369" lon="-150.98582">
        <ele>16.960449</ele>
        <time>2012-05-10T20:55:37Z</time>
      </trkpt>
      <trkpt lat="-16.72391" lon="-150.9856">
        <ele>15.518433</ele>
        <time>2012-05-10T20:55:41Z</time>
      </trkpt>
      <trkpt lat="-16.72434" lon="-150.98542">
        <ele>15.03772</ele>
        <time>2012-05-10T20:55:47Z</time>
      </trkpt>
      <trkpt lat="-16.7246" lon="-150.98533">
        <ele>14.557007</ele>
        <time>2012-05-10T20:55:52Z</time>
      </trkpt>
      <trkpt lat="-16.7246" lon="-150.9853">
        <ele>14.076416</ele>
        <time>2012-05-10T20:56:03Z</time>
      </trkpt>
      <trkpt lat="-16.7246" lon="-150.98532">
        <ele>14.557007</ele>
        <time>2012-05-10T20:56:09Z</time>
      </trkpt>
      <trkpt lat="-16.72437" lon="-150.98539">
        <ele>16.960449</ele>
        <time>2012-05-10T20:56:15Z</time>
      </trkpt>
      <trkpt lat="-16.72417" lon="-150.98546">
        <ele>15.999023</ele>
        <time>2012-05-10T20:56:18Z</time>
      </trkpt>
      <trkpt lat="-16.72402" lon="-150.98551">
        <ele>15.518433</ele>
        <time>2012-05-10T20:56:20Z</time>
      </trkpt>
      <trkpt lat="-16.72375" lon="-150.9857">
        <ele>15.999023</ele>
        <time>2012-05-10T20:56:24Z</time>
      </trkpt>
      <trkpt lat="-16.72314" lon="-150.98631">
        <ele>15.518433</ele>
        <time>2012-05-10T20:56:33Z</time>
      </trkpt>
      <trkpt lat="-16.72294" lon="-150.98662">
        <ele>15.518433</ele>
        <time>2012-05-10T20:56:37Z</time>
      </trkpt>
      <trkpt lat="-16.72277" lon="-150.98698">
        <ele>16.479736</ele>
        <time>2012-05-10T20:56:41Z</time>
      </trkpt>
      <trkpt lat="-16.72225" lon="-150.98729">
        <ele>16.960449</ele>
        <time>2012-05-10T20:56:48Z</time>
      </trkpt>
      <trkpt lat="-16.7208" lon="-150.98747">
        <ele>17.921753</ele>
        <time>2012-05-10T20:57:03Z</time>
      </trkpt>
      <trkpt lat="-16.72031" lon="-150.9874">
        <ele>19.36377</ele>
        <time>2012-05-10T20:57:08Z</time>
      </trkpt>
      <trkpt lat="-16.71905" lon="-150.98683">
        <ele>19.36377</ele>
        <time>2012-05-10T20:57:21Z</time>
      </trkpt>
      <trkpt lat="-16.71791" lon="-150.98661">
        <ele>19.36377</ele>
        <time>2012-05-10T20:57:31Z</time>
      </trkpt>
      <trkpt lat="-16.71652" lon="-150.9866">
        <ele>17.921753</ele>
        <time>2012-05-10T20:57:43Z</time>
      </trkpt>
      <trkpt lat="-16.71464" lon="-150.98683">
        <ele>19.36377</ele>
        <time>2012-05-10T20:57:58Z</time>
      </trkpt>
      <trkpt lat="-16.71325" lon="-150.98699">
        <ele>17.441162</ele>
        <time>2012-05-10T20:58:11Z</time>
      </trkpt>
      <trkpt lat="-16.7129" lon="-150.98702">
        <ele>16.960449</ele>
        <time>2012-05-10T20:58:16Z</time>
      </trkpt>
      <trkpt lat="-16.71209" lon="-150.98709">
        <ele>17.921753</ele>
        <time>2012-05-10T20:58:26Z</time>
      </trkpt>
      <trkpt lat="-16.71054" lon="-150.98725">
        <ele>19.36377</ele>
        <time>2012-05-10T20:58:40Z</time>
      </trkpt>
      <trkpt lat="-16.70896" lon="-150.98722">
        <ele>20.324951</ele>
        <time>2012-05-10T20:58:54Z</time>
      </trkpt>
      <trkpt lat="-16.70771" lon="-150.98703">
        <ele>18.883057</ele>
        <time>2012-05-10T20:59:05Z</time>
      </trkpt>
      <trkpt lat="-16.70647" lon="-150.98724">
        <ele>17.441162</ele>
        <time>2012-05-10T20:59:16Z</time>
      </trkpt>
      <trkpt lat="-16.70518" lon="-150.98737">
        <ele>19.84436</ele>
        <time>2012-05-10T20:59:28Z</time>
      </trkpt>
      <trkpt lat="-16.70489" lon="-150.9873">
        <ele>17.921753</ele>
        <time>2012-05-10T20:59:31Z</time>
      </trkpt>
      <trkpt lat="-16.7037" lon="-150.9867">
        <ele>18.402344</ele>
        <time>2012-05-10T20:59:43Z</time>
      </trkpt>
      <trkpt lat="-16.70297" lon="-150.98644">
        <ele>19.36377</ele>
        <time>2012-05-10T20:59:51Z</time>
      </trkpt>
      <trkpt lat="-16.70255" lon="-150.98619">
        <ele>17.921753</ele>
        <time>2012-05-10T20:59:56Z</time>
      </trkpt>
      <trkpt lat="-16.70236" lon="-150.98602">
        <ele>16.479736</ele>
        <time>2012-05-10T20:59:59Z</time>
      </trkpt>
      <trkpt lat="-16.70224" lon="-150.98575">
        <ele>18.402344</ele>
        <time>2012-05-10T21:00:03Z</time>
      </trkpt>
      <trkpt lat="-16.70216" lon="-150.98543">
        <ele>18.402344</ele>
        <time>2012-05-10T21:00:07Z</time>
      </trkpt>
      <trkpt lat="-16.70186" lon="-150.98501">
        <ele>16.960449</ele>
        <time>2012-05-10T21:00:14Z</time>
      </trkpt>
      <trkpt lat="-16.70182" lon="-150.98483">
        <ele>17.921753</ele>
        <time>2012-05-10T21:00:16Z</time>
      </trkpt>
      <trkpt lat="-16.70161" lon="-150.9831">
        <ele>19.36377</ele>
        <time>2012-05-10T21:00:32Z</time>
      </trkpt>
      <trkpt lat="-16.70144" lon="-150.98184">
        <ele>19.36377</ele>
        <time>2012-05-10T21:00:45Z</time>
      </trkpt>
      <trkpt lat="-16.70144" lon="-150.98177">
        <ele>18.402344</ele>
        <time>2012-05-10T21:00:46Z</time>
      </trkpt>
      <trkpt lat="-16.70148" lon="-150.98164">
        <ele>17.441162</ele>
        <time>2012-05-10T21:00:48Z</time>
      </trkpt>
      <trkpt lat="-16.70174" lon="-150.98146">
        <ele>20.324951</ele>
        <time>2012-05-10T21:00:52Z</time>
      </trkpt>
      <trkpt lat="-16.70321" lon="-150.98104">
        <ele>20.805664</ele>
        <time>2012-05-10T21:01:08Z</time>
      </trkpt>
      <trkpt lat="-16.70465" lon="-150.98104">
        <ele>20.805664</ele>
        <time>2012-05-10T21:01:22Z</time>
      </trkpt>
      <trkpt lat="-16.70594" lon="-150.98081">
        <ele>20.324951</ele>
        <time>2012-05-10T21:01:35Z</time>
      </trkpt>
      <trkpt lat="-16.70701" lon="-150.98064">
        <ele>19.36377</ele>
        <time>2012-05-10T21:01:46Z</time>
      </trkpt>
      <trkpt lat="-16.70752" lon="-150.98083">
        <ele>19.84436</ele>
        <time>2012-05-10T21:01:52Z</time>
      </trkpt>
      <trkpt lat="-16.70774" lon="-150.981">
        <ele>19.36377</ele>
        <time>2012-05-10T21:01:55Z</time>
      </trkpt>
      <trkpt lat="-16.70812" lon="-150.9811">
        <ele>18.402344</ele>
        <time>2012-05-10T21:02:00Z</time>
      </trkpt>
      <trkpt lat="-16.70927" lon="-150.98104">
        <ele>17.441162</ele>
        <time>2012-05-10T21:02:14Z</time>
      </trkpt>
      <trkpt lat="-16.71021" lon="-150.98082">
        <ele>18.402344</ele>
        <time>2012-05-10T21:02:25Z</time>
      </trkpt>
      <trkpt lat="-16.71068" lon="-150.98066">
        <ele>18.402344</ele>
        <time>2012-05-10T21:02:30Z</time>
      </trkpt>
      <trkpt lat="-16.7117" lon="-150.98058">
        <ele>17.441162</ele>
        <time>2012-05-10T21:02:41Z</time>
      </trkpt>
      <trkpt lat="-16.71291" lon="-150.98093">
        <ele>17.921753</ele>
        <time>2012-05-10T21:02:54Z</time>
      </trkpt>
      <trkpt lat="-16.71343" lon="-150.98117">
        <ele>15.518433</ele>
        <time>2012-05-10T21:03:03Z</time>
      </trkpt>
      <trkpt lat="-16.71347" lon="-150.98118">
        <ele>15.518433</ele>
        <time>2012-05-10T21:03:13Z</time>
      </trkpt>
      <trkpt lat="-16.71344" lon="-150.98117">
        <ele>15.518433</ele>
        <time>2012-05-10T21:03:22Z</time>
      </trkpt>
      <trkpt lat="-16.71336" lon="-150.98116">
        <ele>15.518433</ele>
        <time>2012-05-10T21:03:27Z</time>
      </trkpt>
      <trkpt lat="-16.71328" lon="-150.98111">
        <ele>15.518433</ele>
        <time>2012-05-10T21:03:36Z</time>
      </trkpt>
      <trkpt lat="-16.71341" lon="-150.98113">
        <ele>15.518433</ele>
        <time>2012-05-10T21:03:52Z</time>
      </trkpt>
      <trkpt lat="-16.71341" lon="-150.98117">
        <ele>15.518433</ele>
        <time>2012-05-10T21:04:15Z</time>
      </trkpt>
      <trkpt lat="-16.7134" lon="-150.98118">
        <ele>15.518433</ele>
        <time>2012-05-10T21:04:55Z</time>
      </trkpt>
      <trkpt lat="-16.71339" lon="-150.98115">
        <ele>15.518433</ele>
        <time>2012-05-10T21:05:37Z</time>
      </trkpt>
      <trkpt lat="-16.71337" lon="-150.98113">
        <ele>16.479736</ele>
        <time>2012-05-10T21:06:24Z</time>
      </trkpt>
      <trkpt lat="-16.71337" lon="-150.98113">
        <ele>16.960449</ele>
        <time>2012-05-10T21:06:58Z</time>
      </trkpt>
      <trkpt lat="-16.71336" lon="-150.98116">
        <ele>17.441162</ele>
        <time>2012-05-10T21:07:35Z</time>
      </trkpt>
      <trkpt lat="-16.71336" lon="-150.98118">
        <ele>17.441162</ele>
        <time>2012-05-10T21:08:12Z</time>
      </trkpt>
      <trkpt lat="-16.71336" lon="-150.98117">
        <ele>17.921753</ele>
        <time>2012-05-10T21:08:49Z</time>
      </trkpt>
      <trkpt lat="-16.71335" lon="-150.98116">
        <ele>17.441162</ele>
        <time>2012-05-10T21:09:50Z</time>
      </trkpt>
      <trkpt lat="-16.71336" lon="-150.98112">
        <ele>17.441162</ele>
        <time>2012-05-10T21:10:24Z</time>
      </trkpt>
      <trkpt lat="-16.71337" lon="-150.98113">
        <ele>17.441162</ele>
        <time>2012-05-10T21:10:55Z</time>
      </trkpt>
      <trkpt lat="-16.7134" lon="-150.98115">
        <ele>16.960449</ele>
        <time>2012-05-10T21:12:03Z</time>
      </trkpt>
      <trkpt lat="-16.71341" lon="-150.98115">
        <ele>15.999023</ele>
        <time>2012-05-10T21:12:49Z</time>
      </trkpt>
      <trkpt lat="-16.71341" lon="-150.98114">
        <ele>15.999023</ele>
        <time>2012-05-10T21:13:34Z</time>
      </trkpt>
      <trkpt lat="-16.71343" lon="-150.98112">
        <ele>15.518433</ele>
        <time>2012-05-10T21:14:13Z</time>
      </trkpt>
      <trkpt lat="-16.71343" lon="-150.98113">
        <ele>15.03772</ele>
        <time>2012-05-10T21:14:46Z</time>
      </trkpt>
      <trkpt lat="-16.71341" lon="-150.98113">
        <ele>15.03772</ele>
        <time>2012-05-10T21:15:20Z</time>
      </trkpt>
      <trkpt lat="-16.71349" lon="-150.98117">
        <ele>15.03772</ele>
        <time>2012-05-10T21:15:53Z</time>
      </trkpt>
      <trkpt lat="-16.71348" lon="-150.98114">
        <ele>15.999023</ele>
        <time>2012-05-10T21:16:08Z</time>
      </trkpt>
      <trkpt lat="-16.71347" lon="-150.98117">
        <ele>15.518433</ele>
        <time>2012-05-10T21:16:22Z</time>
      </trkpt>
      <trkpt lat="-16.71345" lon="-150.98117">
        <ele>16.479736</ele>
        <time>2012-05-10T21:16:24Z</time>
      </trkpt>
      <trkpt lat="-16.71327" lon="-150.98111">
        <ele>15.999023</ele>
        <time>2012-05-10T21:16:31Z</time>
      </trkpt>
      <trkpt lat="-16.71252" lon="-150.98076">
        <ele>15.999023</ele>
        <time>2012-05-10T21:16:45Z</time>
      </trkpt>
      <trkpt lat="-16.71161" lon="-150.98055">
        <ele>16.960449</ele>
        <time>2012-05-10T21:16:57Z</time>
      </trkpt>
      <trkpt lat="-16.7109" lon="-150.98054">
        <ele>17.441162</ele>
        <time>2012-05-10T21:17:05Z</time>
      </trkpt>
      <trkpt lat="-16.70953" lon="-150.98099">
        <ele>18.402344</ele>
        <time>2012-05-10T21:17:20Z</time>
      </trkpt>
      <trkpt lat="-16.70861" lon="-150.98099">
        <ele>17.921753</ele>
        <time>2012-05-10T21:17:29Z</time>
      </trkpt>
      <trkpt lat="-16.70805" lon="-150.98106">
        <ele>18.402344</ele>
        <time>2012-05-10T21:17:35Z</time>
      </trkpt>
      <trkpt lat="-16.70764" lon="-150.98095">
        <ele>18.402344</ele>
        <time>2012-05-10T21:17:40Z</time>
      </trkpt>
      <trkpt lat="-16.70727" lon="-150.9807">
        <ele>19.36377</ele>
        <time>2012-05-10T21:17:45Z</time>
      </trkpt>
      <trkpt lat="-16.70686" lon="-150.98062">
        <ele>20.324951</ele>
        <time>2012-05-10T21:17:50Z</time>
      </trkpt>
      <trkpt lat="-16.70532" lon="-150.98089">
        <ele>20.324951</ele>
        <time>2012-05-10T21:18:05Z</time>
      </trkpt>
      <trkpt lat="-16.70424" lon="-150.98106">
        <ele>20.324951</ele>
        <time>2012-05-10T21:18:17Z</time>
      </trkpt>
      <trkpt lat="-16.70284" lon="-150.98105">
        <ele>20.805664</ele>
        <time>2012-05-10T21:18:31Z</time>
      </trkpt>
      <trkpt lat="-16.70175" lon="-150.98147">
        <ele>19.84436</ele>
        <time>2012-05-10T21:18:43Z</time>
      </trkpt>
      <trkpt lat="-16.70167" lon="-150.98151">
        <ele>19.84436</ele>
        <time>2012-05-10T21:18:44Z</time>
      </trkpt>
      <trkpt lat="-16.70144" lon="-150.98192">
        <ele>17.921753</ele>
        <time>2012-05-10T21:18:51Z</time>
      </trkpt>
      <trkpt lat="-16.70156" lon="-150.98281">
        <ele>17.921753</ele>
        <time>2012-05-10T21:19:00Z</time>
      </trkpt>
      <trkpt lat="-16.70172" lon="-150.98408">
        <ele>19.84436</ele>
        <time>2012-05-10T21:19:11Z</time>
      </trkpt>
      <trkpt lat="-16.70181" lon="-150.98487">
        <ele>16.479736</ele>
        <time>2012-05-10T21:19:18Z</time>
      </trkpt>
      <trkpt lat="-16.70183" lon="-150.98496">
        <ele>16.479736</ele>
        <time>2012-05-10T21:19:19Z</time>
      </trkpt>
      <trkpt lat="-16.70197" lon="-150.98523">
        <ele>16.960449</ele>
        <time>2012-05-10T21:19:23Z</time>
      </trkpt>
      <trkpt lat="-16.70214" lon="-150.98548">
        <ele>17.921753</ele>
        <time>2012-05-10T21:19:27Z</time>
      </trkpt>
      <trkpt lat="-16.70217" lon="-150.98556">
        <ele>19.36377</ele>
        <time>2012-05-10T21:19:28Z</time>
      </trkpt>
      <trkpt lat="-16.70227" lon="-150.98594">
        <ele>15.999023</ele>
        <time>2012-05-10T21:19:35Z</time>
      </trkpt>
      <trkpt lat="-16.70266" lon="-150.98635">
        <ele>17.921753</ele>
        <time>2012-05-10T21:19:43Z</time>
      </trkpt>
      <trkpt lat="-16.70296" lon="-150.9865">
        <ele>18.883057</ele>
        <time>2012-05-10T21:19:47Z</time>
      </trkpt>
      <trkpt lat="-16.70363" lon="-150.98672">
        <ele>19.36377</ele>
        <time>2012-05-10T21:19:54Z</time>
      </trkpt>
      <trkpt lat="-16.70517" lon="-150.98741">
        <ele>18.402344</ele>
        <time>2012-05-10T21:20:10Z</time>
      </trkpt>
      <trkpt lat="-16.70546" lon="-150.98743">
        <ele>20.324951</ele>
        <time>2012-05-10T21:20:13Z</time>
      </trkpt>
      <trkpt lat="-16.7068" lon="-150.98722">
        <ele>18.402344</ele>
        <time>2012-05-10T21:20:25Z</time>
      </trkpt>
      <trkpt lat="-16.70796" lon="-150.98707">
        <ele>17.921753</ele>
        <time>2012-05-10T21:20:36Z</time>
      </trkpt>
      <trkpt lat="-16.70817" lon="-150.98708">
        <ele>19.36377</ele>
        <time>2012-05-10T21:20:38Z</time>
      </trkpt>
      <trkpt lat="-16.70957" lon="-150.98728">
        <ele>19.36377</ele>
        <time>2012-05-10T21:20:51Z</time>
      </trkpt>
      <trkpt lat="-16.7112" lon="-150.9872">
        <ele>19.36377</ele>
        <time>2012-05-10T21:21:05Z</time>
      </trkpt>
      <trkpt lat="-16.71294" lon="-150.98705">
        <ele>18.883057</ele>
        <time>2012-05-10T21:21:21Z</time>
      </trkpt>
      <trkpt lat="-16.7142" lon="-150.98691">
        <ele>17.441162</ele>
        <time>2012-05-10T21:21:33Z</time>
      </trkpt>
      <trkpt lat="-16.71554" lon="-150.98674">
        <ele>18.402344</ele>
        <time>2012-05-10T21:21:47Z</time>
      </trkpt>
      <trkpt lat="-16.71598" lon="-150.9867">
        <ele>14.557007</ele>
        <time>2012-05-10T21:21:53Z</time>
      </trkpt>
      <trkpt lat="-16.71614" lon="-150.98667">
        <ele>13.595825</ele>
        <time>2012-05-10T21:22:02Z</time>
      </trkpt>
      <trkpt lat="-16.71639" lon="-150.98662">
        <ele>13.115112</ele>
        <time>2012-05-10T21:22:11Z</time>
      </trkpt>
      <trkpt lat="-16.71649" lon="-150.98662">
        <ele>13.595825</ele>
        <time>2012-05-10T21:22:51Z</time>
      </trkpt>
      <trkpt lat="-16.71733" lon="-150.98656">
        <ele>16.479736</ele>
        <time>2012-05-10T21:23:03Z</time>
      </trkpt>
      <trkpt lat="-16.71846" lon="-150.98674">
        <ele>18.402344</ele>
        <time>2012-05-10T21:23:14Z</time>
      </trkpt>
      <trkpt lat="-16.71967" lon="-150.98711">
        <ele>16.960449</ele>
        <time>2012-05-10T21:23:25Z</time>
      </trkpt>
      <trkpt lat="-16.72057" lon="-150.9875">
        <ele>16.479736</ele>
        <time>2012-05-10T21:23:34Z</time>
      </trkpt>
      <trkpt lat="-16.72099" lon="-150.98749">
        <ele>18.402344</ele>
        <time>2012-05-10T21:23:38Z</time>
      </trkpt>
      <trkpt lat="-16.72241" lon="-150.98727">
        <ele>17.921753</ele>
        <time>2012-05-10T21:23:51Z</time>
      </trkpt>
      <trkpt lat="-16.72259" lon="-150.9872">
        <ele>16.479736</ele>
        <time>2012-05-10T21:23:53Z</time>
      </trkpt>
      <trkpt lat="-16.72286" lon="-150.98689">
        <ele>18.402344</ele>
        <time>2012-05-10T21:23:57Z</time>
      </trkpt>
      <trkpt lat="-16.72307" lon="-150.98643">
        <ele>16.479736</ele>
        <time>2012-05-10T21:24:02Z</time>
      </trkpt>
      <trkpt lat="-16.72388" lon="-150.98563">
        <ele>15.518433</ele>
        <time>2012-05-10T21:24:14Z</time>
      </trkpt>
      <trkpt lat="-16.72485" lon="-150.98523">
        <ele>15.999023</ele>
        <time>2012-05-10T21:24:25Z</time>
      </trkpt>
      <trkpt lat="-16.72528" lon="-150.98504">
        <ele>15.518433</ele>
        <time>2012-05-10T21:24:30Z</time>
      </trkpt>
      <trkpt lat="-16.7259" lon="-150.98515">
        <ele>15.03772</ele>
        <time>2012-05-10T21:24:37Z</time>
      </trkpt>
      <trkpt lat="-16.7267" lon="-150.98587">
        <ele>14.557007</ele>
        <time>2012-05-10T21:24:50Z</time>
      </trkpt>
      <trkpt lat="-16.72723" lon="-150.98664">
        <ele>15.03772</ele>
        <time>2012-05-10T21:25:01Z</time>
      </trkpt>
      <trkpt lat="-16.72776" lon="-150.98802">
        <ele>15.518433</ele>
        <time>2012-05-10T21:25:16Z</time>
      </trkpt>
      <trkpt lat="-16.7285" lon="-150.98926">
        <ele>15.03772</ele>
        <time>2012-05-10T21:25:31Z</time>
      </trkpt>
      <trkpt lat="-16.72898" lon="-150.99028">
        <ele>15.03772</ele>
        <time>2012-05-10T21:25:43Z</time>
      </trkpt>
      <trkpt lat="-16.7291" lon="-150.99085">
        <ele>16.479736</ele>
        <time>2012-05-10T21:25:49Z</time>
      </trkpt>
      <trkpt lat="-16.72931" lon="-150.99157">
        <ele>15.518433</ele>
        <time>2012-05-10T21:25:57Z</time>
      </trkpt>
      <trkpt lat="-16.72982" lon="-150.99226">
        <ele>15.03772</ele>
        <time>2012-05-10T21:26:06Z</time>
      </trkpt>
      <trkpt lat="-16.73014" lon="-150.99302">
        <ele>15.03772</ele>
        <time>2012-05-10T21:26:16Z</time>
      </trkpt>
      <trkpt lat="-16.73035" lon="-150.9932">
        <ele>15.999023</ele>
        <time>2012-05-10T21:26:20Z</time>
      </trkpt>
      <trkpt lat="-16.73077" lon="-150.99337">
        <ele>12.634399</ele>
        <time>2012-05-10T21:26:29Z</time>
      </trkpt>
      <trkpt lat="-16.73088" lon="-150.99346">
        <ele>13.115112</ele>
        <time>2012-05-10T21:26:34Z</time>
      </trkpt>
      <trkpt lat="-16.73108" lon="-150.99425">
        <ele>15.518433</ele>
        <time>2012-05-10T21:26:48Z</time>
      </trkpt>
      <trkpt lat="-16.73122" lon="-150.99476">
        <ele>16.960449</ele>
        <time>2012-05-10T21:27:00Z</time>
      </trkpt>
      <trkpt lat="-16.73127" lon="-150.99505">
        <ele>16.479736</ele>
        <time>2012-05-10T21:27:10Z</time>
      </trkpt>
      <trkpt lat="-16.73122" lon="-150.99506">
        <ele>16.479736</ele>
        <time>2012-05-10T21:27:24Z</time>
      </trkpt>
      <trkpt lat="-16.73121" lon="-150.99508">
        <ele>16.960449</ele>
        <time>2012-05-10T21:28:05Z</time>
      </trkpt>
      <trkpt lat="-16.7312" lon="-150.99505">
        <ele>16.479736</ele>
        <time>2012-05-10T21:28:39Z</time>
      </trkpt>
      <trkpt lat="-16.73124" lon="-150.99507">
        <ele>16.479736</ele>
        <time>2012-05-10T21:29:29Z</time>
      </trkpt>
      <trkpt lat="-16.73126" lon="-150.9951">
        <ele>15.999023</ele>
        <time>2012-05-10T21:30:01Z</time>
      </trkpt>
      <trkpt lat="-16.73131" lon="-150.99513">
        <ele>15.999023</ele>
        <time>2012-05-10T21:30:30Z</time>
      </trkpt>
      <trkpt lat="-16.73133" lon="-150.99513">
        <ele>17.441162</ele>
        <time>2012-05-10T21:31:24Z</time>
      </trkpt>
      <trkpt lat="-16.73126" lon="-150.99514">
        <ele>16.960449</ele>
        <time>2012-05-10T21:31:52Z</time>
      </trkpt>
      <trkpt lat="-16.73135" lon="-150.99546">
        <ele>17.441162</ele>
        <time>2012-05-10T21:32:06Z</time>
      </trkpt>
      <trkpt lat="-16.7313" lon="-150.99579">
        <ele>17.921753</ele>
        <time>2012-05-10T21:32:20Z</time>
      </trkpt>
      <trkpt lat="-16.73129" lon="-150.99577">
        <ele>17.921753</ele>
        <time>2012-05-10T21:32:31Z</time>
      </trkpt>
      <trkpt lat="-16.73131" lon="-150.99544">
        <ele>17.441162</ele>
        <time>2012-05-10T21:32:43Z</time>
      </trkpt>
      <trkpt lat="-16.7313" lon="-150.99536">
        <ele>16.960449</ele>
        <time>2012-05-10T21:32:56Z</time>
      </trkpt>
      <trkpt lat="-16.73132" lon="-150.99537">
        <ele>16.479736</ele>
        <time>2012-05-10T21:33:46Z</time>
      </trkpt>
      <trkpt lat="-16.73128" lon="-150.99538">
        <ele>15.999023</ele>
        <time>2012-05-10T21:34:38Z</time>
      </trkpt>
      <trkpt lat="-16.73126" lon="-150.99537">
        <ele>16.479736</ele>
        <time>2012-05-10T21:35:38Z</time>
      </trkpt>
      <trkpt lat="-16.73126" lon="-150.99537">
        <ele>16.479736</ele>
        <time>2012-05-10T21:36:12Z</time>
      </trkpt>
      <trkpt lat="-16.73126" lon="-150.99536">
        <ele>16.479736</ele>
        <time>2012-05-10T21:36:39Z</time>
      </trkpt>
      <trkpt lat="-16.73128" lon="-150.99538">
        <ele>16.479736</ele>
        <time>2012-05-10T21:37:00Z</time>
      </trkpt>
      <trkpt lat="-16.73127" lon="-150.99576">
        <ele>17.441162</ele>
        <time>2012-05-10T21:37:10Z</time>
      </trkpt>
      <trkpt lat="-16.73126" lon="-150.99581">
        <ele>17.441162</ele>
        <time>2012-05-10T21:37:11Z</time>
      </trkpt>
      <trkpt lat="-16.73136" lon="-150.99608">
        <ele>17.921753</ele>
        <time>2012-05-10T21:37:20Z</time>
      </trkpt>
      <trkpt lat="-16.73136" lon="-150.99607">
        <ele>17.921753</ele>
        <time>2012-05-10T21:37:22Z</time>
      </trkpt>
      <trkpt lat="-16.73134" lon="-150.99605">
        <ele>17.921753</ele>
        <time>2012-05-10T21:37:31Z</time>
      </trkpt>
      <trkpt lat="-16.73135" lon="-150.99599">
        <ele>17.441162</ele>
        <time>2012-05-10T21:37:36Z</time>
      </trkpt>
      <trkpt lat="-16.73133" lon="-150.99591">
        <ele>17.921753</ele>
        <time>2012-05-10T21:37:39Z</time>
      </trkpt>
      <trkpt lat="-16.73132" lon="-150.99582">
        <ele>18.402344</ele>
        <time>2012-05-10T21:37:41Z</time>
      </trkpt>
      <trkpt lat="-16.73131" lon="-150.99519">
        <ele>16.479736</ele>
        <time>2012-05-10T21:37:53Z</time>
      </trkpt>
      <trkpt lat="-16.73125" lon="-150.99474">
        <ele>16.960449</ele>
        <time>2012-05-10T21:38:06Z</time>
      </trkpt>
      <trkpt lat="-16.73111" lon="-150.99422">
        <ele>15.518433</ele>
        <time>2012-05-10T21:38:19Z</time>
      </trkpt>
      <trkpt lat="-16.73093" lon="-150.99353">
        <ele>15.518433</ele>
        <time>2012-05-10T21:38:31Z</time>
      </trkpt>
      <trkpt lat="-16.73087" lon="-150.99337">
        <ele>14.076416</ele>
        <time>2012-05-10T21:38:35Z</time>
      </trkpt>
      <trkpt lat="-16.73086" lon="-150.99329">
        <ele>13.115112</ele>
        <time>2012-05-10T21:38:46Z</time>
      </trkpt>
      <trkpt lat="-16.73087" lon="-150.9933">
        <ele>13.595825</ele>
        <time>2012-05-10T21:39:15Z</time>
      </trkpt>
      <trkpt lat="-16.73085" lon="-150.99331">
        <ele>14.076416</ele>
        <time>2012-05-10T21:40:53Z</time>
      </trkpt>
      <trkpt lat="-16.73077" lon="-150.99331">
        <ele>13.595825</ele>
        <time>2012-05-10T21:40:58Z</time>
      </trkpt>
      <trkpt lat="-16.7308" lon="-150.99338">
        <ele>13.595825</ele>
        <time>2012-05-10T21:41:06Z</time>
      </trkpt>
      <trkpt lat="-16.73089" lon="-150.99348">
        <ele>13.595825</ele>
        <time>2012-05-10T21:41:11Z</time>
      </trkpt>
      <trkpt lat="-16.73114" lon="-150.99436">
        <ele>15.999023</ele>
        <time>2012-05-10T21:41:27Z</time>
      </trkpt>
      <trkpt lat="-16.73127" lon="-150.9949">
        <ele>17.921753</ele>
        <time>2012-05-10T21:41:39Z</time>
      </trkpt>
      <trkpt lat="-16.73129" lon="-150.9953">
        <ele>16.960449</ele>
        <time>2012-05-10T21:41:52Z</time>
      </trkpt>
      <trkpt lat="-16.73125" lon="-150.99579">
        <ele>18.883057</ele>
        <time>2012-05-10T21:42:00Z</time>
      </trkpt>
      <trkpt lat="-16.73137" lon="-150.99617">
        <ele>19.36377</ele>
        <time>2012-05-10T21:42:06Z</time>
      </trkpt>
      <trkpt lat="-16.73159" lon="-150.99647">
        <ele>20.324951</ele>
        <time>2012-05-10T21:42:11Z</time>
      </trkpt>
      <trkpt lat="-16.73151" lon="-150.99704">
        <ele>22.728271</ele>
        <time>2012-05-10T21:42:19Z</time>
      </trkpt>
      <trkpt lat="-16.73143" lon="-150.99717">
        <ele>23.208984</ele>
        <time>2012-05-10T21:42:21Z</time>
      </trkpt>
      <trkpt lat="-16.73132" lon="-150.99766">
        <ele>24.170288</ele>
        <time>2012-05-10T21:42:28Z</time>
      </trkpt>
      <trkpt lat="-16.73144" lon="-150.99816">
        <ele>28.496216</ele>
        <time>2012-05-10T21:42:34Z</time>
      </trkpt>
      <trkpt lat="-16.73148" lon="-150.99833">
        <ele>32.822266</ele>
        <time>2012-05-10T21:42:36Z</time>
      </trkpt>
      <trkpt lat="-16.73156" lon="-150.99865">
        <ele>36.66748</ele>
        <time>2012-05-10T21:42:40Z</time>
      </trkpt>
      <trkpt lat="-16.7316" lon="-150.99883">
        <ele>40.032104</ele>
        <time>2012-05-10T21:42:42Z</time>
      </trkpt>
      <trkpt lat="-16.73164" lon="-150.99902">
        <ele>43.396606</ele>
        <time>2012-05-10T21:42:44Z</time>
      </trkpt>
      <trkpt lat="-16.7317" lon="-150.99921">
        <ele>46.76123</ele>
        <time>2012-05-10T21:42:46Z</time>
      </trkpt>
      <trkpt lat="-16.73175" lon="-150.99939">
        <ele>50.606567</ele>
        <time>2012-05-10T21:42:48Z</time>
      </trkpt>
      <trkpt lat="-16.73178" lon="-150.99947">
        <ele>52.048584</ele>
        <time>2012-05-10T21:42:49Z</time>
      </trkpt>
      <trkpt lat="-16.73199" lon="-150.99976">
        <ele>58.77771</ele>
        <time>2012-05-10T21:42:53Z</time>
      </trkpt>
      <trkpt lat="-16.73207" lon="-150.99982">
        <ele>60.700317</ele>
        <time>2012-05-10T21:42:54Z</time>
      </trkpt>
      <trkpt lat="-16.7324" lon="-151.00009">
        <ele>66.468262</ele>
        <time>2012-05-10T21:42:58Z</time>
      </trkpt>
      <trkpt lat="-16.73257" lon="-151.00024">
        <ele>72.236206</ele>
        <time>2012-05-10T21:43:00Z</time>
      </trkpt>
      <trkpt lat="-16.73275" lon="-151.00038">
        <ele>74.158813</ele>
        <time>2012-05-10T21:43:02Z</time>
      </trkpt>
      <trkpt lat="-16.73291" lon="-151.00052">
        <ele>75.120239</ele>
        <time>2012-05-10T21:43:04Z</time>
      </trkpt>
      <trkpt lat="-16.73315" lon="-151.00085">
        <ele>78.965454</ele>
        <time>2012-05-10T21:43:08Z</time>
      </trkpt>
      <trkpt lat="-16.73319" lon="-151.00094">
        <ele>79.446045</ele>
        <time>2012-05-10T21:43:09Z</time>
      </trkpt>
      <trkpt lat="-16.7335" lon="-151.00157">
        <ele>84.733398</ele>
        <time>2012-05-10T21:43:16Z</time>
      </trkpt>
      <trkpt lat="-16.73364" lon="-151.00185">
        <ele>88.098022</ele>
        <time>2012-05-10T21:43:19Z</time>
      </trkpt>
      <trkpt lat="-16.73397" lon="-151.0024">
        <ele>92.904541</ele>
        <time>2012-05-10T21:43:25Z</time>
      </trkpt>
      <trkpt lat="-16.73407" lon="-151.0026">
        <ele>93.385132</ele>
        <time>2012-05-10T21:43:27Z</time>
      </trkpt>
      <trkpt lat="-16.73411" lon="-151.0027">
        <ele>93.865845</ele>
        <time>2012-05-10T21:43:28Z</time>
      </trkpt>
      <trkpt lat="-16.73419" lon="-151.00315">
        <ele>98.672485</ele>
        <time>2012-05-10T21:43:32Z</time>
      </trkpt>
      <trkpt lat="-16.73424" lon="-151.00349">
        <ele>102.5177</ele>
        <time>2012-05-10T21:43:35Z</time>
      </trkpt>
      <trkpt lat="-16.73433" lon="-151.00377">
        <ele>104.44043</ele>
        <time>2012-05-10T21:43:38Z</time>
      </trkpt>
      <trkpt lat="-16.73465" lon="-151.00404">
        <ele>109.246948</ele>
        <time>2012-05-10T21:43:43Z</time>
      </trkpt>
      <trkpt lat="-16.73484" lon="-151.00406">
        <ele>110.688843</ele>
        <time>2012-05-10T21:43:45Z</time>
      </trkpt>
      <trkpt lat="-16.73526" lon="-151.00405">
        <ele>115.014893</ele>
        <time>2012-05-10T21:43:49Z</time>
      </trkpt>
      <trkpt lat="-16.73566" lon="-151.00405">
        <ele>119.34082</ele>
        <time>2012-05-10T21:43:53Z</time>
      </trkpt>
      <trkpt lat="-16.73596" lon="-151.00407">
        <ele>122.705444</ele>
        <time>2012-05-10T21:43:56Z</time>
      </trkpt>
      <trkpt lat="-16.73615" lon="-151.00409">
        <ele>124.147339</ele>
        <time>2012-05-10T21:43:58Z</time>
      </trkpt>
      <trkpt lat="-16.73635" lon="-151.00412">
        <ele>127.511963</ele>
        <time>2012-05-10T21:44:00Z</time>
      </trkpt>
      <trkpt lat="-16.73669" lon="-151.00417">
        <ele>130.876709</ele>
        <time>2012-05-10T21:44:03Z</time>
      </trkpt>
      <trkpt lat="-16.73687" lon="-151.00423">
        <ele>131.837891</ele>
        <time>2012-05-10T21:44:05Z</time>
      </trkpt>
      <trkpt lat="-16.73714" lon="-151.00431">
        <ele>133.760498</ele>
        <time>2012-05-10T21:44:08Z</time>
      </trkpt>
      <trkpt lat="-16.73756" lon="-151.00447">
        <ele>135.683105</ele>
        <time>2012-05-10T21:44:13Z</time>
      </trkpt>
      <trkpt lat="-16.73796" lon="-151.0044">
        <ele>139.528442</ele>
        <time>2012-05-10T21:44:18Z</time>
      </trkpt>
      <trkpt lat="-16.73804" lon="-151.00434">
        <ele>139.528442</ele>
        <time>2012-05-10T21:44:19Z</time>
      </trkpt>
      <trkpt lat="-16.73884" lon="-151.00394">
        <ele>140.970459</ele>
        <time>2012-05-10T21:44:30Z</time>
      </trkpt>
      <trkpt lat="-16.73916" lon="-151.00376">
        <ele>136.644653</ele>
        <time>2012-05-10T21:44:35Z</time>
      </trkpt>
      <trkpt lat="-16.73943" lon="-151.00359">
        <ele>133.760498</ele>
        <time>2012-05-10T21:44:39Z</time>
      </trkpt>
      <trkpt lat="-16.73954" lon="-151.00353">
        <ele>132.318604</ele>
        <time>2012-05-10T21:44:41Z</time>
      </trkpt>
      <trkpt lat="-16.73962" lon="-151.00342">
        <ele>128.954102</ele>
        <time>2012-05-10T21:44:49Z</time>
      </trkpt>
      <trkpt lat="-16.73965" lon="-151.0034">
        <ele>128.473389</ele>
        <time>2012-05-10T21:44:51Z</time>
      </trkpt>
      <trkpt lat="-16.73976" lon="-151.00338">
        <ele>128.954102</ele>
        <time>2012-05-10T21:45:05Z</time>
      </trkpt>
      <trkpt lat="-16.73979" lon="-151.00338">
        <ele>128.954102</ele>
        <time>2012-05-10T21:46:10Z</time>
      </trkpt>
      <trkpt lat="-16.73979" lon="-151.00305">
        <ele>127.031372</ele>
        <time>2012-05-10T21:46:21Z</time>
      </trkpt>
      <trkpt lat="-16.73981" lon="-151.0029">
        <ele>125.589355</ele>
        <time>2012-05-10T21:46:24Z</time>
      </trkpt>
      <trkpt lat="-16.73983" lon="-151.00278">
        <ele>125.589355</ele>
        <time>2012-05-10T21:46:26Z</time>
      </trkpt>
      <trkpt lat="-16.73988" lon="-151.00249">
        <ele>121.744141</ele>
        <time>2012-05-10T21:46:31Z</time>
      </trkpt>
      <trkpt lat="-16.73991" lon="-151.00244">
        <ele>120.302124</ele>
        <time>2012-05-10T21:46:32Z</time>
      </trkpt>
      <trkpt lat="-16.73997" lon="-151.00236">
        <ele>119.34082</ele>
        <time>2012-05-10T21:46:34Z</time>
      </trkpt>
      <trkpt lat="-16.74009" lon="-151.00231">
        <ele>117.898804</ele>
        <time>2012-05-10T21:46:36Z</time>
      </trkpt>
      <trkpt lat="-16.74041" lon="-151.00226">
        <ele>113.572998</ele>
        <time>2012-05-10T21:46:40Z</time>
      </trkpt>
      <trkpt lat="-16.74083" lon="-151.00227">
        <ele>108.766235</ele>
        <time>2012-05-10T21:46:44Z</time>
      </trkpt>
      <trkpt lat="-16.74112" lon="-151.00232">
        <ele>104.44043</ele>
        <time>2012-05-10T21:46:47Z</time>
      </trkpt>
      <trkpt lat="-16.74139" lon="-151.00234">
        <ele>100.114502</ele>
        <time>2012-05-10T21:46:50Z</time>
      </trkpt>
      <trkpt lat="-16.74157" lon="-151.00235">
        <ele>96.749878</ele>
        <time>2012-05-10T21:46:52Z</time>
      </trkpt>
      <trkpt lat="-16.74166" lon="-151.00236">
        <ele>94.346558</ele>
        <time>2012-05-10T21:46:53Z</time>
      </trkpt>
      <trkpt lat="-16.74194" lon="-151.00233">
        <ele>89.059326</ele>
        <time>2012-05-10T21:46:56Z</time>
      </trkpt>
      <trkpt lat="-16.74222" lon="-151.00225">
        <ele>82.810791</ele>
        <time>2012-05-10T21:46:59Z</time>
      </trkpt>
      <trkpt lat="-16.7424" lon="-151.00221">
        <ele>78.965454</ele>
        <time>2012-05-10T21:47:01Z</time>
      </trkpt>
      <trkpt lat="-16.7425" lon="-151.00219">
        <ele>78.484741</ele>
        <time>2012-05-10T21:47:02Z</time>
      </trkpt>
      <trkpt lat="-16.74292" lon="-151.00224">
        <ele>72.716919</ele>
        <time>2012-05-10T21:47:06Z</time>
      </trkpt>
      <trkpt lat="-16.7433" lon="-151.0024">
        <ele>65.50708</ele>
        <time>2012-05-10T21:47:10Z</time>
      </trkpt>
      <trkpt lat="-16.74347" lon="-151.00245">
        <ele>62.142334</ele>
        <time>2012-05-10T21:47:12Z</time>
      </trkpt>
      <trkpt lat="-16.74366" lon="-151.0025">
        <ele>57.816528</ele>
        <time>2012-05-10T21:47:14Z</time>
      </trkpt>
      <trkpt lat="-16.74385" lon="-151.00255">
        <ele>52.048584</ele>
        <time>2012-05-10T21:47:16Z</time>
      </trkpt>
      <trkpt lat="-16.74402" lon="-151.0026">
        <ele>49.164551</ele>
        <time>2012-05-10T21:47:18Z</time>
      </trkpt>
      <trkpt lat="-16.74418" lon="-151.00267">
        <ele>44.838623</ele>
        <time>2012-05-10T21:47:20Z</time>
      </trkpt>
      <trkpt lat="-16.74435" lon="-151.00274">
        <ele>41.473999</ele>
        <time>2012-05-10T21:47:22Z</time>
      </trkpt>
      <trkpt lat="-16.74451" lon="-151.00279">
        <ele>37.148071</ele>
        <time>2012-05-10T21:47:24Z</time>
      </trkpt>
      <trkpt lat="-16.74475" lon="-151.0028">
        <ele>32.822266</ele>
        <time>2012-05-10T21:47:27Z</time>
      </trkpt>
      <trkpt lat="-16.74491" lon="-151.00279">
        <ele>28.976929</ele>
        <time>2012-05-10T21:47:29Z</time>
      </trkpt>
      <trkpt lat="-16.74509" lon="-151.00278">
        <ele>27.534912</ele>
        <time>2012-05-10T21:47:31Z</time>
      </trkpt>
      <trkpt lat="-16.74549" lon="-151.00278">
        <ele>23.208984</ele>
        <time>2012-05-10T21:47:35Z</time>
      </trkpt>
      <trkpt lat="-16.74598" lon="-151.00275">
        <ele>18.402344</ele>
        <time>2012-05-10T21:47:40Z</time>
      </trkpt>
      <trkpt lat="-16.74659" lon="-151.00275">
        <ele>16.479736</ele>
        <time>2012-05-10T21:47:47Z</time>
      </trkpt>
      <trkpt lat="-16.74664" lon="-151.00275">
        <ele>15.03772</ele>
        <time>2012-05-10T21:47:48Z</time>
      </trkpt>
      <trkpt lat="-16.74679" lon="-151.00297">
        <ele>15.03772</ele>
        <time>2012-05-10T21:47:55Z</time>
      </trkpt>
      <trkpt lat="-16.74664" lon="-151.00392">
        <ele>14.557007</ele>
        <time>2012-05-10T21:48:06Z</time>
      </trkpt>
      <trkpt lat="-16.74675" lon="-151.00505">
        <ele>16.479736</ele>
        <time>2012-05-10T21:48:18Z</time>
      </trkpt>
      <trkpt lat="-16.74689" lon="-151.00602">
        <ele>16.479736</ele>
        <time>2012-05-10T21:48:28Z</time>
      </trkpt>
      <trkpt lat="-16.74716" lon="-151.00646">
        <ele>15.03772</ele>
        <time>2012-05-10T21:48:34Z</time>
      </trkpt>
      <trkpt lat="-16.74818" lon="-151.00697">
        <ele>15.518433</ele>
        <time>2012-05-10T21:48:48Z</time>
      </trkpt>
      <trkpt lat="-16.74912" lon="-151.00726">
        <ele>15.999023</ele>
        <time>2012-05-10T21:48:59Z</time>
      </trkpt>
      <trkpt lat="-16.75029" lon="-151.00742">
        <ele>16.479736</ele>
        <time>2012-05-10T21:49:12Z</time>
      </trkpt>
      <trkpt lat="-16.75049" lon="-151.0074">
        <ele>18.883057</ele>
        <time>2012-05-10T21:49:14Z</time>
      </trkpt>
      <trkpt lat="-16.75074" lon="-151.00731">
        <ele>22.247559</ele>
        <time>2012-05-10T21:49:17Z</time>
      </trkpt>
      <trkpt lat="-16.75081" lon="-151.00726">
        <ele>22.247559</ele>
        <time>2012-05-10T21:49:18Z</time>
      </trkpt>
      <trkpt lat="-16.751" lon="-151.00711">
        <ele>26.573608</ele>
        <time>2012-05-10T21:49:21Z</time>
      </trkpt>
      <trkpt lat="-16.75124" lon="-151.00706">
        <ele>28.015503</ele>
        <time>2012-05-10T21:49:24Z</time>
      </trkpt>
      <trkpt lat="-16.75143" lon="-151.0072">
        <ele>29.45752</ele>
        <time>2012-05-10T21:49:27Z</time>
      </trkpt>
      <trkpt lat="-16.75151" lon="-151.00758">
        <ele>29.93811</ele>
        <time>2012-05-10T21:49:32Z</time>
      </trkpt>
      <trkpt lat="-16.75167" lon="-151.00779">
        <ele>28.976929</ele>
        <time>2012-05-10T21:49:36Z</time>
      </trkpt>
      <trkpt lat="-16.75221" lon="-151.00808">
        <ele>25.131714</ele>
        <time>2012-05-10T21:49:43Z</time>
      </trkpt>
      <trkpt lat="-16.75228" lon="-151.00812">
        <ele>24.651001</ele>
        <time>2012-05-10T21:49:44Z</time>
      </trkpt>
      <trkpt lat="-16.75253" lon="-151.00846">
        <ele>21.766968</ele>
        <time>2012-05-10T21:49:48Z</time>
      </trkpt>
      <trkpt lat="-16.75306" lon="-151.00921">
        <ele>18.402344</ele>
        <time>2012-05-10T21:49:56Z</time>
      </trkpt>
      <trkpt lat="-16.75318" lon="-151.00938">
        <ele>17.441162</ele>
        <time>2012-05-10T21:49:58Z</time>
      </trkpt>
      <trkpt lat="-16.75357" lon="-151.00976">
        <ele>16.479736</ele>
        <time>2012-05-10T21:50:04Z</time>
      </trkpt>
      <trkpt lat="-16.75373" lon="-151.01004">
        <ele>15.518433</ele>
        <time>2012-05-10T21:50:08Z</time>
      </trkpt>
      <trkpt lat="-16.75388" lon="-151.01088">
        <ele>15.518433</ele>
        <time>2012-05-10T21:50:18Z</time>
      </trkpt>
      <trkpt lat="-16.75377" lon="-151.01123">
        <ele>16.960449</ele>
        <time>2012-05-10T21:50:22Z</time>
      </trkpt>
      <trkpt lat="-16.7529" lon="-151.01242">
        <ele>16.479736</ele>
        <time>2012-05-10T21:50:38Z</time>
      </trkpt>
      <trkpt lat="-16.75205" lon="-151.01311">
        <ele>15.999023</ele>
        <time>2012-05-10T21:50:49Z</time>
      </trkpt>
      <trkpt lat="-16.75138" lon="-151.01415">
        <ele>17.441162</ele>
        <time>2012-05-10T21:51:01Z</time>
      </trkpt>
      <trkpt lat="-16.75126" lon="-151.01431">
        <ele>16.960449</ele>
        <time>2012-05-10T21:51:03Z</time>
      </trkpt>
      <trkpt lat="-16.75045" lon="-151.01516">
        <ele>16.479736</ele>
        <time>2012-05-10T21:51:14Z</time>
      </trkpt>
      <trkpt lat="-16.75043" lon="-151.01577">
        <ele>15.518433</ele>
        <time>2012-05-10T21:51:21Z</time>
      </trkpt>
      <trkpt lat="-16.75083" lon="-151.01593">
        <ele>17.441162</ele>
        <time>2012-05-10T21:51:26Z</time>
      </trkpt>
      <trkpt lat="-16.75092" lon="-151.01593">
        <ele>17.441162</ele>
        <time>2012-05-10T21:51:27Z</time>
      </trkpt>
      <trkpt lat="-16.75154" lon="-151.01587">
        <ele>17.441162</ele>
        <time>2012-05-10T21:51:34Z</time>
      </trkpt>
      <trkpt lat="-16.75229" lon="-151.01626">
        <ele>15.518433</ele>
        <time>2012-05-10T21:51:43Z</time>
      </trkpt>
      <trkpt lat="-16.753" lon="-151.01664">
        <ele>18.402344</ele>
        <time>2012-05-10T21:51:51Z</time>
      </trkpt>
      <trkpt lat="-16.75334" lon="-151.017">
        <ele>20.805664</ele>
        <time>2012-05-10T21:51:56Z</time>
      </trkpt>
      <trkpt lat="-16.75344" lon="-151.01723">
        <ele>25.131714</ele>
        <time>2012-05-10T21:52:01Z</time>
      </trkpt>
      <trkpt lat="-16.75344" lon="-151.01723">
        <ele>25.131714</ele>
        <time>2012-05-10T21:52:02Z</time>
      </trkpt>
      <trkpt lat="-16.75351" lon="-151.01717">
        <ele>27.054321</ele>
        <time>2012-05-10T21:52:07Z</time>
      </trkpt>
      <trkpt lat="-16.7538" lon="-151.01637">
        <ele>29.45752</ele>
        <time>2012-05-10T21:52:18Z</time>
      </trkpt>
      <trkpt lat="-16.75411" lon="-151.01576">
        <ele>25.612305</ele>
        <time>2012-05-10T21:52:25Z</time>
      </trkpt>
      <trkpt lat="-16.75417" lon="-151.01568">
        <ele>25.612305</ele>
        <time>2012-05-10T21:52:26Z</time>
      </trkpt>
      <trkpt lat="-16.75456" lon="-151.01517">
        <ele>25.131714</ele>
        <time>2012-05-10T21:52:32Z</time>
      </trkpt>
      <trkpt lat="-16.75501" lon="-151.01471">
        <ele>21.766968</ele>
        <time>2012-05-10T21:52:38Z</time>
      </trkpt>
      <trkpt lat="-16.75532" lon="-151.0144">
        <ele>21.766968</ele>
        <time>2012-05-10T21:52:42Z</time>
      </trkpt>
      <trkpt lat="-16.75589" lon="-151.01407">
        <ele>24.651001</ele>
        <time>2012-05-10T21:52:48Z</time>
      </trkpt>
      <trkpt lat="-16.75599" lon="-151.01404">
        <ele>24.651001</ele>
        <time>2012-05-10T21:52:49Z</time>
      </trkpt>
      <trkpt lat="-16.75646" lon="-151.01389">
        <ele>25.612305</ele>
        <time>2012-05-10T21:52:54Z</time>
      </trkpt>
      <trkpt lat="-16.7575" lon="-151.01324">
        <ele>25.131714</ele>
        <time>2012-05-10T21:53:06Z</time>
      </trkpt>
      <trkpt lat="-16.75877" lon="-151.01248">
        <ele>24.651001</ele>
        <time>2012-05-10T21:53:19Z</time>
      </trkpt>
      <trkpt lat="-16.76006" lon="-151.01177">
        <ele>25.131714</ele>
        <time>2012-05-10T21:53:32Z</time>
      </trkpt>
      <trkpt lat="-16.76109" lon="-151.01161">
        <ele>22.728271</ele>
        <time>2012-05-10T21:53:41Z</time>
      </trkpt>
      <trkpt lat="-16.76258" lon="-151.01143">
        <ele>22.247559</ele>
        <time>2012-05-10T21:53:53Z</time>
      </trkpt>
      <trkpt lat="-16.76339" lon="-151.01105">
        <ele>20.805664</ele>
        <time>2012-05-10T21:54:01Z</time>
      </trkpt>
      <trkpt lat="-16.76372" lon="-151.0109">
        <ele>17.441162</ele>
        <time>2012-05-10T21:54:04Z</time>
      </trkpt>
      <trkpt lat="-16.76525" lon="-151.01041">
        <ele>16.960449</ele>
        <time>2012-05-10T21:54:18Z</time>
      </trkpt>
      <trkpt lat="-16.76688" lon="-151.01">
        <ele>16.960449</ele>
        <time>2012-05-10T21:54:33Z</time>
      </trkpt>
      <trkpt lat="-16.76729" lon="-151.01004">
        <ele>16.960449</ele>
        <time>2012-05-10T21:54:40Z</time>
      </trkpt>
      <trkpt lat="-16.76735" lon="-151.01003">
        <ele>16.960449</ele>
        <time>2012-05-10T21:54:42Z</time>
      </trkpt>
      <trkpt lat="-16.76753" lon="-151.00988">
        <ele>18.402344</ele>
        <time>2012-05-10T21:54:47Z</time>
      </trkpt>
      <trkpt lat="-16.76806" lon="-151.00896">
        <ele>17.441162</ele>
        <time>2012-05-10T21:55:02Z</time>
      </trkpt>
      <trkpt lat="-16.76837" lon="-151.00882">
        <ele>17.921753</ele>
        <time>2012-05-10T21:55:07Z</time>
      </trkpt>
      <trkpt lat="-16.76902" lon="-151.00886">
        <ele>18.402344</ele>
        <time>2012-05-10T21:55:14Z</time>
      </trkpt>
      <trkpt lat="-16.76921" lon="-151.00893">
        <ele>20.324951</ele>
        <time>2012-05-10T21:55:16Z</time>
      </trkpt>
      <trkpt lat="-16.76963" lon="-151.00942">
        <ele>21.766968</ele>
        <time>2012-05-10T21:55:23Z</time>
      </trkpt>
      <trkpt lat="-16.76964" lon="-151.00962">
        <ele>22.247559</ele>
        <time>2012-05-10T21:55:25Z</time>
      </trkpt>
      <trkpt lat="-16.76963" lon="-151.00983">
        <ele>23.689575</ele>
        <time>2012-05-10T21:55:27Z</time>
      </trkpt>
      <trkpt lat="-16.76982" lon="-151.01035">
        <ele>27.054321</ele>
        <time>2012-05-10T21:55:33Z</time>
      </trkpt>
      <trkpt lat="-16.76998" lon="-151.01037">
        <ele>30.418823</ele>
        <time>2012-05-10T21:55:35Z</time>
      </trkpt>
      <trkpt lat="-16.77015" lon="-151.01026">
        <ele>31.860718</ele>
        <time>2012-05-10T21:55:37Z</time>
      </trkpt>
      <trkpt lat="-16.77023" lon="-151.01019">
        <ele>32.822266</ele>
        <time>2012-05-10T21:55:38Z</time>
      </trkpt>
      <trkpt lat="-16.7704" lon="-151.01003">
        <ele>33.783447</ele>
        <time>2012-05-10T21:55:40Z</time>
      </trkpt>
      <trkpt lat="-16.77055" lon="-151.0099">
        <ele>33.783447</ele>
        <time>2012-05-10T21:55:42Z</time>
      </trkpt>
      <trkpt lat="-16.77117" lon="-151.00994">
        <ele>35.706055</ele>
        <time>2012-05-10T21:55:49Z</time>
      </trkpt>
      <trkpt lat="-16.77157" lon="-151.01004">
        <ele>39.070679</ele>
        <time>2012-05-10T21:55:54Z</time>
      </trkpt>
      <trkpt lat="-16.77184" lon="-151.00987">
        <ele>41.954712</ele>
        <time>2012-05-10T21:55:58Z</time>
      </trkpt>
      <trkpt lat="-16.77198" lon="-151.00975">
        <ele>42.916016</ele>
        <time>2012-05-10T21:56:00Z</time>
      </trkpt>
      <trkpt lat="-16.77228" lon="-151.00957">
        <ele>45.319214</ele>
        <time>2012-05-10T21:56:04Z</time>
      </trkpt>
      <trkpt lat="-16.77259" lon="-151.00926">
        <ele>47.241821</ele>
        <time>2012-05-10T21:56:09Z</time>
      </trkpt>
      <trkpt lat="-16.77268" lon="-151.00908">
        <ele>48.203369</ele>
        <time>2012-05-10T21:56:11Z</time>
      </trkpt>
      <trkpt lat="-16.77309" lon="-151.00879">
        <ele>52.048584</ele>
        <time>2012-05-10T21:56:16Z</time>
      </trkpt>
      <trkpt lat="-16.77338" lon="-151.00872">
        <ele>55.413086</ele>
        <time>2012-05-10T21:56:19Z</time>
      </trkpt>
      <trkpt lat="-16.77368" lon="-151.00876">
        <ele>58.297119</ele>
        <time>2012-05-10T21:56:22Z</time>
      </trkpt>
      <trkpt lat="-16.77378" lon="-151.0088">
        <ele>58.77771</ele>
        <time>2012-05-10T21:56:23Z</time>
      </trkpt>
      <trkpt lat="-16.77416" lon="-151.00899">
        <ele>63.584351</ele>
        <time>2012-05-10T21:56:27Z</time>
      </trkpt>
      <trkpt lat="-16.77442" lon="-151.00928">
        <ele>68.390869</ele>
        <time>2012-05-10T21:56:31Z</time>
      </trkpt>
      <trkpt lat="-16.77463" lon="-151.00946">
        <ele>69.352295</ele>
        <time>2012-05-10T21:56:34Z</time>
      </trkpt>
      <trkpt lat="-16.7748" lon="-151.00975">
        <ele>69.352295</ele>
        <time>2012-05-10T21:56:38Z</time>
      </trkpt>
      <trkpt lat="-16.77463" lon="-151.01041">
        <ele>71.274902</ele>
        <time>2012-05-10T21:56:45Z</time>
      </trkpt>
      <trkpt lat="-16.77464" lon="-151.01071">
        <ele>73.197632</ele>
        <time>2012-05-10T21:56:48Z</time>
      </trkpt>
      <trkpt lat="-16.77502" lon="-151.01101">
        <ele>75.120239</ele>
        <time>2012-05-10T21:56:53Z</time>
      </trkpt>
      <trkpt lat="-16.77512" lon="-151.01104">
        <ele>75.60083</ele>
        <time>2012-05-10T21:56:54Z</time>
      </trkpt>
      <trkpt lat="-16.77552" lon="-151.01115">
        <ele>77.042847</ele>
        <time>2012-05-10T21:56:58Z</time>
      </trkpt>
      <trkpt lat="-16.77585" lon="-151.0114">
        <ele>77.523438</ele>
        <time>2012-05-10T21:57:02Z</time>
      </trkpt>
      <trkpt lat="-16.77619" lon="-151.01157">
        <ele>77.523438</ele>
        <time>2012-05-10T21:57:06Z</time>
      </trkpt>
      <trkpt lat="-16.77649" lon="-151.01197">
        <ele>74.158813</ele>
        <time>2012-05-10T21:57:12Z</time>
      </trkpt>
      <trkpt lat="-16.77654" lon="-151.01213">
        <ele>73.678223</ele>
        <time>2012-05-10T21:57:14Z</time>
      </trkpt>
      <trkpt lat="-16.77664" lon="-151.01232">
        <ele>73.678223</ele>
        <time>2012-05-10T21:57:17Z</time>
      </trkpt>
      <trkpt lat="-16.77682" lon="-151.01253">
        <ele>72.716919</ele>
        <time>2012-05-10T21:57:25Z</time>
      </trkpt>
      <trkpt lat="-16.77694" lon="-151.01286">
        <ele>75.120239</ele>
        <time>2012-05-10T21:57:37Z</time>
      </trkpt>
      <trkpt lat="-16.77701" lon="-151.01306">
        <ele>78.965454</ele>
        <time>2012-05-10T21:57:43Z</time>
      </trkpt>
      <trkpt lat="-16.77701" lon="-151.01316">
        <ele>80.888184</ele>
        <time>2012-05-10T21:57:46Z</time>
      </trkpt>
      <trkpt lat="-16.77685" lon="-151.01338">
        <ele>83.771973</ele>
        <time>2012-05-10T21:57:53Z</time>
      </trkpt>
      <trkpt lat="-16.77652" lon="-151.01371">
        <ele>84.252686</ele>
        <time>2012-05-10T21:58:05Z</time>
      </trkpt>
      <trkpt lat="-16.7765" lon="-151.01399">
        <ele>83.771973</ele>
        <time>2012-05-10T21:58:16Z</time>
      </trkpt>
      <trkpt lat="-16.77667" lon="-151.01427">
        <ele>82.330078</ele>
        <time>2012-05-10T21:58:27Z</time>
      </trkpt>
      <trkpt lat="-16.77676" lon="-151.01465">
        <ele>80.407471</ele>
        <time>2012-05-10T21:58:40Z</time>
      </trkpt>
      <trkpt lat="-16.77687" lon="-151.0151">
        <ele>78.484741</ele>
        <time>2012-05-10T21:58:54Z</time>
      </trkpt>
      <trkpt lat="-16.77689" lon="-151.01525">
        <ele>73.678223</ele>
        <time>2012-05-10T21:59:00Z</time>
      </trkpt>
      <trkpt lat="-16.77693" lon="-151.01533">
        <ele>76.562134</ele>
        <time>2012-05-10T21:59:05Z</time>
      </trkpt>
      <trkpt lat="-16.77692" lon="-151.01543">
        <ele>77.042847</ele>
        <time>2012-05-10T21:59:09Z</time>
      </trkpt>
      <trkpt lat="-16.77697" lon="-151.01577">
        <ele>71.755493</ele>
        <time>2012-05-10T21:59:25Z</time>
      </trkpt>
      <trkpt lat="-16.77717" lon="-151.01594">
        <ele>67.910278</ele>
        <time>2012-05-10T21:59:37Z</time>
      </trkpt>
      <trkpt lat="-16.77732" lon="-151.01619">
        <ele>66.948975</ele>
        <time>2012-05-10T21:59:52Z</time>
      </trkpt>
      <trkpt lat="-16.77749" lon="-151.0165">
        <ele>64.065063</ele>
        <time>2012-05-10T22:00:07Z</time>
      </trkpt>
      <trkpt lat="-16.77747" lon="-151.01672">
        <ele>62.622925</ele>
        <time>2012-05-10T22:00:16Z</time>
      </trkpt>
      <trkpt lat="-16.77754" lon="-151.01713">
        <ele>60.219727</ele>
        <time>2012-05-10T22:00:32Z</time>
      </trkpt>
      <trkpt lat="-16.7777" lon="-151.01744">
        <ele>55.893799</ele>
        <time>2012-05-10T22:00:46Z</time>
      </trkpt>
      <trkpt lat="-16.77773" lon="-151.01746">
        <ele>55.893799</ele>
        <time>2012-05-10T22:00:47Z</time>
      </trkpt>
      <trkpt lat="-16.77787" lon="-151.01757">
        <ele>52.529175</ele>
        <time>2012-05-10T22:00:53Z</time>
      </trkpt>
      <trkpt lat="-16.77791" lon="-151.0176">
        <ele>51.567871</ele>
        <time>2012-05-10T22:00:55Z</time>
      </trkpt>
      <trkpt lat="-16.77809" lon="-151.01777">
        <ele>47.722534</ele>
        <time>2012-05-10T22:01:05Z</time>
      </trkpt>
      <trkpt lat="-16.77816" lon="-151.01787">
        <ele>45.799927</ele>
        <time>2012-05-10T22:01:09Z</time>
      </trkpt>
      <trkpt lat="-16.77838" lon="-151.01826">
        <ele>42.916016</ele>
        <time>2012-05-10T22:01:23Z</time>
      </trkpt>
      <trkpt lat="-16.77855" lon="-151.01888">
        <ele>43.396606</ele>
        <time>2012-05-10T22:01:40Z</time>
      </trkpt>
      <trkpt lat="-16.77875" lon="-151.01931">
        <ele>46.28064</ele>
        <time>2012-05-10T22:01:52Z</time>
      </trkpt>
      <trkpt lat="-16.7791" lon="-151.01963">
        <ele>48.68396</ele>
        <time>2012-05-10T22:02:04Z</time>
      </trkpt>
      <trkpt lat="-16.77933" lon="-151.01973">
        <ele>51.567871</ele>
        <time>2012-05-10T22:02:11Z</time>
      </trkpt>
      <trkpt lat="-16.77941" lon="-151.02006">
        <ele>50.606567</ele>
        <time>2012-05-10T22:02:22Z</time>
      </trkpt>
      <trkpt lat="-16.7794" lon="-151.02041">
        <ele>48.203369</ele>
        <time>2012-05-10T22:02:38Z</time>
      </trkpt>
      <trkpt lat="-16.77937" lon="-151.02073">
        <ele>44.838623</ele>
        <time>2012-05-10T22:02:53Z</time>
      </trkpt>
      <trkpt lat="-16.77937" lon="-151.02112">
        <ele>45.319214</ele>
        <time>2012-05-10T22:03:05Z</time>
      </trkpt>
      <trkpt lat="-16.77939" lon="-151.02138">
        <ele>48.68396</ele>
        <time>2012-05-10T22:03:12Z</time>
      </trkpt>
      <trkpt lat="-16.7794" lon="-151.02154">
        <ele>50.606567</ele>
        <time>2012-05-10T22:03:17Z</time>
      </trkpt>
      <trkpt lat="-16.77931" lon="-151.02186">
        <ele>53.490479</ele>
        <time>2012-05-10T22:03:27Z</time>
      </trkpt>
      <trkpt lat="-16.77933" lon="-151.02217">
        <ele>56.855103</ele>
        <time>2012-05-10T22:03:38Z</time>
      </trkpt>
      <trkpt lat="-16.77936" lon="-151.02236">
        <ele>60.219727</ele>
        <time>2012-05-10T22:03:44Z</time>
      </trkpt>
      <trkpt lat="-16.77939" lon="-151.02243">
        <ele>61.661743</ele>
        <time>2012-05-10T22:03:47Z</time>
      </trkpt>
      <trkpt lat="-16.77943" lon="-151.02251">
        <ele>64.545654</ele>
        <time>2012-05-10T22:03:51Z</time>
      </trkpt>
      <trkpt lat="-16.77946" lon="-151.02255">
        <ele>65.987671</ele>
        <time>2012-05-10T22:03:53Z</time>
      </trkpt>
      <trkpt lat="-16.77955" lon="-151.02264">
        <ele>67.429688</ele>
        <time>2012-05-10T22:04:00Z</time>
      </trkpt>
      <trkpt lat="-16.77951" lon="-151.02264">
        <ele>65.026367</ele>
        <time>2012-05-10T22:04:09Z</time>
      </trkpt>
      <trkpt lat="-16.77952" lon="-151.02264">
        <ele>67.429688</ele>
        <time>2012-05-10T22:04:11Z</time>
      </trkpt>
      <trkpt lat="-16.77952" lon="-151.02264">
        <ele>64.545654</ele>
        <time>2012-05-10T22:04:15Z</time>
      </trkpt>
      <trkpt lat="-16.77952" lon="-151.02263">
        <ele>67.429688</ele>
        <time>2012-05-10T22:04:17Z</time>
      </trkpt>
      <trkpt lat="-16.77952" lon="-151.02263">
        <ele>64.545654</ele>
        <time>2012-05-10T22:04:18Z</time>
      </trkpt>
      <trkpt lat="-16.77952" lon="-151.02262">
        <ele>67.429688</ele>
        <time>2012-05-10T22:04:19Z</time>
      </trkpt>
      <trkpt lat="-16.77954" lon="-151.02265">
        <ele>63.584351</ele>
        <time>2012-05-10T22:04:35Z</time>
      </trkpt>
      <trkpt lat="-16.77954" lon="-151.02264">
        <ele>66.948975</ele>
        <time>2012-05-10T22:04:37Z</time>
      </trkpt>
      <trkpt lat="-16.77954" lon="-151.02264">
        <ele>67.429688</ele>
        <time>2012-05-10T22:04:39Z</time>
      </trkpt>
      <trkpt lat="-16.77953" lon="-151.02264">
        <ele>66.468262</ele>
        <time>2012-05-10T22:04:41Z</time>
      </trkpt>
      <trkpt lat="-16.77957" lon="-151.02262">
        <ele>65.026367</ele>
        <time>2012-05-10T22:05:40Z</time>
      </trkpt>
      <trkpt lat="-16.77957" lon="-151.02262">
        <ele>65.026367</ele>
        <time>2012-05-10T22:06:10Z</time>
      </trkpt>
      <trkpt lat="-16.77958" lon="-151.02264">
        <ele>65.50708</ele>
        <time>2012-05-10T22:06:23Z</time>
      </trkpt>
      <trkpt lat="-16.77956" lon="-151.02262">
        <ele>65.50708</ele>
        <time>2012-05-10T22:06:51Z</time>
      </trkpt>
      <trkpt lat="-16.77956" lon="-151.0226">
        <ele>65.987671</ele>
        <time>2012-05-10T22:07:00Z</time>
      </trkpt>
      <trkpt lat="-16.77947" lon="-151.02251">
        <ele>64.065063</ele>
        <time>2012-05-10T22:07:09Z</time>
      </trkpt>
      <trkpt lat="-16.77939" lon="-151.0224">
        <ele>60.700317</ele>
        <time>2012-05-10T22:07:26Z</time>
      </trkpt>
      <trkpt lat="-16.77935" lon="-151.02213">
        <ele>57.816528</ele>
        <time>2012-05-10T22:07:37Z</time>
      </trkpt>
      <trkpt lat="-16.77931" lon="-151.02199">
        <ele>56.374512</ele>
        <time>2012-05-10T22:07:50Z</time>
      </trkpt>
      <trkpt lat="-16.7793" lon="-151.02182">
        <ele>54.451782</ele>
        <time>2012-05-10T22:09:57Z</time>
      </trkpt>
      <trkpt lat="-16.77938" lon="-151.02159">
        <ele>52.529175</ele>
        <time>2012-05-10T22:10:10Z</time>
      </trkpt>
      <trkpt lat="-16.77938" lon="-151.0214">
        <ele>49.645264</ele>
        <time>2012-05-10T22:10:23Z</time>
      </trkpt>
      <trkpt lat="-16.77937" lon="-151.02111">
        <ele>46.76123</ele>
        <time>2012-05-10T22:10:38Z</time>
      </trkpt>
      <trkpt lat="-16.77937" lon="-151.02097">
        <ele>47.241821</ele>
        <time>2012-05-10T22:10:53Z</time>
      </trkpt>
      <trkpt lat="-16.77937" lon="-151.02077">
        <ele>47.241821</ele>
        <time>2012-05-10T22:11:11Z</time>
      </trkpt>
      <trkpt lat="-16.77939" lon="-151.02049">
        <ele>50.125977</ele>
        <time>2012-05-10T22:11:22Z</time>
      </trkpt>
      <trkpt lat="-16.77942" lon="-151.02014">
        <ele>53.490479</ele>
        <time>2012-05-10T22:11:34Z</time>
      </trkpt>
      <trkpt lat="-16.77938" lon="-151.0198">
        <ele>55.413086</ele>
        <time>2012-05-10T22:11:48Z</time>
      </trkpt>
      <trkpt lat="-16.77913" lon="-151.01965">
        <ele>53.490479</ele>
        <time>2012-05-10T22:12:02Z</time>
      </trkpt>
      <trkpt lat="-16.77895" lon="-151.01952">
        <ele>50.606567</ele>
        <time>2012-05-10T22:12:12Z</time>
      </trkpt>
      <trkpt lat="-16.77872" lon="-151.01919">
        <ele>48.203369</ele>
        <time>2012-05-10T22:12:26Z</time>
      </trkpt>
      <trkpt lat="-16.7785" lon="-151.01864">
        <ele>46.28064</ele>
        <time>2012-05-10T22:12:41Z</time>
      </trkpt>
      <trkpt lat="-16.77834" lon="-151.01815">
        <ele>47.241821</ele>
        <time>2012-05-10T22:12:55Z</time>
      </trkpt>
      <trkpt lat="-16.77813" lon="-151.01785">
        <ele>51.087158</ele>
        <time>2012-05-10T22:13:04Z</time>
      </trkpt>
      <trkpt lat="-16.77805" lon="-151.01776">
        <ele>53.009766</ele>
        <time>2012-05-10T22:13:07Z</time>
      </trkpt>
      <trkpt lat="-16.77798" lon="-151.01769">
        <ele>53.971191</ele>
        <time>2012-05-10T22:13:09Z</time>
      </trkpt>
      <trkpt lat="-16.77791" lon="-151.01762">
        <ele>54.932373</ele>
        <time>2012-05-10T22:13:11Z</time>
      </trkpt>
      <trkpt lat="-16.7778" lon="-151.01751">
        <ele>58.297119</ele>
        <time>2012-05-10T22:13:14Z</time>
      </trkpt>
      <trkpt lat="-16.7777" lon="-151.0174">
        <ele>60.219727</ele>
        <time>2012-05-10T22:13:17Z</time>
      </trkpt>
      <trkpt lat="-16.77752" lon="-151.01713">
        <ele>63.103638</ele>
        <time>2012-05-10T22:13:24Z</time>
      </trkpt>
      <trkpt lat="-16.7775" lon="-151.01709">
        <ele>63.584351</ele>
        <time>2012-05-10T22:13:25Z</time>
      </trkpt>
      <trkpt lat="-16.77749" lon="-151.0167">
        <ele>65.987671</ele>
        <time>2012-05-10T22:13:34Z</time>
      </trkpt>
      <trkpt lat="-16.77748" lon="-151.01663">
        <ele>66.948975</ele>
        <time>2012-05-10T22:13:36Z</time>
      </trkpt>
      <trkpt lat="-16.77738" lon="-151.01645">
        <ele>68.871582</ele>
        <time>2012-05-10T22:13:40Z</time>
      </trkpt>
      <trkpt lat="-16.77728" lon="-151.01617">
        <ele>71.274902</ele>
        <time>2012-05-10T22:13:47Z</time>
      </trkpt>
      <trkpt lat="-16.77717" lon="-151.01603">
        <ele>72.236206</ele>
        <time>2012-05-10T22:13:51Z</time>
      </trkpt>
      <trkpt lat="-16.77704" lon="-151.01593">
        <ele>74.639526</ele>
        <time>2012-05-10T22:13:55Z</time>
      </trkpt>
      <trkpt lat="-16.77697" lon="-151.01588">
        <ele>75.120239</ele>
        <time>2012-05-10T22:13:57Z</time>
      </trkpt>
      <trkpt lat="-16.77691" lon="-151.01555">
        <ele>77.042847</ele>
        <time>2012-05-10T22:14:04Z</time>
      </trkpt>
      <trkpt lat="-16.77691" lon="-151.01545">
        <ele>78.004028</ele>
        <time>2012-05-10T22:14:06Z</time>
      </trkpt>
      <trkpt lat="-16.77684" lon="-151.01517">
        <ele>80.407471</ele>
        <time>2012-05-10T22:14:17Z</time>
      </trkpt>
      <trkpt lat="-16.77672" lon="-151.01471">
        <ele>81.368774</ele>
        <time>2012-05-10T22:14:30Z</time>
      </trkpt>
      <trkpt lat="-16.77666" lon="-151.01431">
        <ele>83.291382</ele>
        <time>2012-05-10T22:14:41Z</time>
      </trkpt>
      <trkpt lat="-16.77655" lon="-151.01411">
        <ele>86.175293</ele>
        <time>2012-05-10T22:14:47Z</time>
      </trkpt>
      <trkpt lat="-16.77648" lon="-151.01388">
        <ele>87.617188</ele>
        <time>2012-05-10T22:14:54Z</time>
      </trkpt>
      <trkpt lat="-16.77673" lon="-151.01348">
        <ele>85.69458</ele>
        <time>2012-05-10T22:15:07Z</time>
      </trkpt>
      <trkpt lat="-16.77688" lon="-151.01326">
        <ele>82.330078</ele>
        <time>2012-05-10T22:15:17Z</time>
      </trkpt>
      <trkpt lat="-16.77692" lon="-151.01298">
        <ele>78.484741</ele>
        <time>2012-05-10T22:15:31Z</time>
      </trkpt>
      <trkpt lat="-16.77679" lon="-151.01261">
        <ele>76.562134</ele>
        <time>2012-05-10T22:15:45Z</time>
      </trkpt>
      <trkpt lat="-16.77663" lon="-151.01231">
        <ele>77.042847</ele>
        <time>2012-05-10T22:15:55Z</time>
      </trkpt>
      <trkpt lat="-16.77659" lon="-151.01226">
        <ele>77.523438</ele>
        <time>2012-05-10T22:15:56Z</time>
      </trkpt>
      <trkpt lat="-16.77643" lon="-151.01182">
        <ele>77.523438</ele>
        <time>2012-05-10T22:16:02Z</time>
      </trkpt>
      <trkpt lat="-16.77612" lon="-151.01153">
        <ele>81.368774</ele>
        <time>2012-05-10T22:16:07Z</time>
      </trkpt>
      <trkpt lat="-16.77586" lon="-151.01142">
        <ele>80.888184</ele>
        <time>2012-05-10T22:16:10Z</time>
      </trkpt>
      <trkpt lat="-16.77564" lon="-151.01125">
        <ele>80.407471</ele>
        <time>2012-05-10T22:16:13Z</time>
      </trkpt>
      <trkpt lat="-16.77532" lon="-151.01106">
        <ele>81.368774</ele>
        <time>2012-05-10T22:16:17Z</time>
      </trkpt>
      <trkpt lat="-16.77487" lon="-151.01091">
        <ele>80.407471</ele>
        <time>2012-05-10T22:16:22Z</time>
      </trkpt>
      <trkpt lat="-16.77457" lon="-151.01033">
        <ele>78.965454</ele>
        <time>2012-05-10T22:16:29Z</time>
      </trkpt>
      <trkpt lat="-16.77468" lon="-151.00997">
        <ele>76.081421</ele>
        <time>2012-05-10T22:16:32Z</time>
      </trkpt>
      <trkpt lat="-16.77474" lon="-151.00977">
        <ele>75.60083</ele>
        <time>2012-05-10T22:16:34Z</time>
      </trkpt>
      <trkpt lat="-16.77465" lon="-151.00949">
        <ele>72.716919</ele>
        <time>2012-05-10T22:16:37Z</time>
      </trkpt>
      <trkpt lat="-16.77443" lon="-151.00933">
        <ele>70.313477</ele>
        <time>2012-05-10T22:16:40Z</time>
      </trkpt>
      <trkpt lat="-16.77418" lon="-151.00903">
        <ele>66.468262</ele>
        <time>2012-05-10T22:16:44Z</time>
      </trkpt>
      <trkpt lat="-16.7741" lon="-151.00899">
        <ele>66.468262</ele>
        <time>2012-05-10T22:16:45Z</time>
      </trkpt>
      <trkpt lat="-16.77401" lon="-151.00896">
        <ele>66.948975</ele>
        <time>2012-05-10T22:16:46Z</time>
      </trkpt>
      <trkpt lat="-16.77365" lon="-151.00878">
        <ele>62.142334</ele>
        <time>2012-05-10T22:16:50Z</time>
      </trkpt>
      <trkpt lat="-16.77313" lon="-151.0088">
        <ele>59.258423</ele>
        <time>2012-05-10T22:16:55Z</time>
      </trkpt>
      <trkpt lat="-16.77293" lon="-151.00886">
        <ele>55.893799</ele>
        <time>2012-05-10T22:16:57Z</time>
      </trkpt>
      <trkpt lat="-16.77274" lon="-151.00896">
        <ele>54.932373</ele>
        <time>2012-05-10T22:16:59Z</time>
      </trkpt>
      <trkpt lat="-16.77259" lon="-151.00911">
        <ele>53.490479</ele>
        <time>2012-05-10T22:17:01Z</time>
      </trkpt>
      <trkpt lat="-16.77255" lon="-151.0092">
        <ele>53.009766</ele>
        <time>2012-05-10T22:17:02Z</time>
      </trkpt>
      <trkpt lat="-16.77227" lon="-151.00952">
        <ele>50.125977</ele>
        <time>2012-05-10T22:17:07Z</time>
      </trkpt>
      <trkpt lat="-16.77219" lon="-151.00955">
        <ele>49.645264</ele>
        <time>2012-05-10T22:17:08Z</time>
      </trkpt>
      <trkpt lat="-16.77197" lon="-151.00965">
        <ele>46.76123</ele>
        <time>2012-05-10T22:17:11Z</time>
      </trkpt>
      <trkpt lat="-16.77173" lon="-151.00986">
        <ele>44.358032</ele>
        <time>2012-05-10T22:17:15Z</time>
      </trkpt>
      <trkpt lat="-16.77144" lon="-151.01001">
        <ele>42.435425</ele>
        <time>2012-05-10T22:17:19Z</time>
      </trkpt>
      <trkpt lat="-16.77085" lon="-151.00978">
        <ele>38.590088</ele>
        <time>2012-05-10T22:17:26Z</time>
      </trkpt>
      <trkpt lat="-16.77068" lon="-151.00978">
        <ele>36.66748</ele>
        <time>2012-05-10T22:17:28Z</time>
      </trkpt>
      <trkpt lat="-16.77027" lon="-151.01002">
        <ele>35.706055</ele>
        <time>2012-05-10T22:17:33Z</time>
      </trkpt>
      <trkpt lat="-16.77008" lon="-151.01023">
        <ele>33.783447</ele>
        <time>2012-05-10T22:17:36Z</time>
      </trkpt>
      <trkpt lat="-16.76967" lon="-151.01022">
        <ele>33.302856</ele>
        <time>2012-05-10T22:17:42Z</time>
      </trkpt>
      <trkpt lat="-16.76959" lon="-151.00995">
        <ele>29.93811</ele>
        <time>2012-05-10T22:17:45Z</time>
      </trkpt>
      <trkpt lat="-16.7696" lon="-151.00974">
        <ele>27.054321</ele>
        <time>2012-05-10T22:17:47Z</time>
      </trkpt>
      <trkpt lat="-16.7696" lon="-151.00945">
        <ele>26.092896</ele>
        <time>2012-05-10T22:17:50Z</time>
      </trkpt>
      <trkpt lat="-16.76918" lon="-151.00895">
        <ele>25.131714</ele>
        <time>2012-05-10T22:17:57Z</time>
      </trkpt>
      <trkpt lat="-16.76888" lon="-151.00885">
        <ele>23.208984</ele>
        <time>2012-05-10T22:18:00Z</time>
      </trkpt>
      <trkpt lat="-16.76877" lon="-151.00884">
        <ele>23.689575</ele>
        <time>2012-05-10T22:18:01Z</time>
      </trkpt>
      <trkpt lat="-16.76817" lon="-151.00879">
        <ele>20.805664</ele>
        <time>2012-05-10T22:18:09Z</time>
      </trkpt>
      <trkpt lat="-16.76808" lon="-151.00884">
        <ele>21.286377</ele>
        <time>2012-05-10T22:18:14Z</time>
      </trkpt>
      <trkpt lat="-16.768" lon="-151.009">
        <ele>22.728271</ele>
        <time>2012-05-10T22:18:17Z</time>
      </trkpt>
      <trkpt lat="-16.76792" lon="-151.00914">
        <ele>23.689575</ele>
        <time>2012-05-10T22:18:19Z</time>
      </trkpt>
      <trkpt lat="-16.76749" lon="-151.00987">
        <ele>23.689575</ele>
        <time>2012-05-10T22:18:29Z</time>
      </trkpt>
      <trkpt lat="-16.76712" lon="-151.01003">
        <ele>24.651001</ele>
        <time>2012-05-10T22:18:34Z</time>
      </trkpt>
      <trkpt lat="-16.76602" lon="-151.01014">
        <ele>25.131714</ele>
        <time>2012-05-10T22:18:43Z</time>
      </trkpt>
      <trkpt lat="-16.76427" lon="-151.01071">
        <ele>23.208984</ele>
        <time>2012-05-10T22:18:57Z</time>
      </trkpt>
      <trkpt lat="-16.76297" lon="-151.01118">
        <ele>25.131714</ele>
        <time>2012-05-10T22:19:09Z</time>
      </trkpt>
      <trkpt lat="-16.76203" lon="-151.01146">
        <ele>27.054321</ele>
        <time>2012-05-10T22:19:18Z</time>
      </trkpt>
      <trkpt lat="-16.76138" lon="-151.01152">
        <ele>25.131714</ele>
        <time>2012-05-10T22:19:23Z</time>
      </trkpt>
      <trkpt lat="-16.7604" lon="-151.01168">
        <ele>28.496216</ele>
        <time>2012-05-10T22:19:31Z</time>
      </trkpt>
      <trkpt lat="-16.75946" lon="-151.01202">
        <ele>28.976929</ele>
        <time>2012-05-10T22:19:39Z</time>
      </trkpt>
      <trkpt lat="-16.75806" lon="-151.01288">
        <ele>30.418823</ele>
        <time>2012-05-10T22:19:51Z</time>
      </trkpt>
      <trkpt lat="-16.75673" lon="-151.01365">
        <ele>29.93811</ele>
        <time>2012-05-10T22:20:02Z</time>
      </trkpt>
      <trkpt lat="-16.75643" lon="-151.01387">
        <ele>29.93811</ele>
        <time>2012-05-10T22:20:05Z</time>
      </trkpt>
      <trkpt lat="-16.75588" lon="-151.01407">
        <ele>28.496216</ele>
        <time>2012-05-10T22:20:10Z</time>
      </trkpt>
      <trkpt lat="-16.75542" lon="-151.01428">
        <ele>26.573608</ele>
        <time>2012-05-10T22:20:14Z</time>
      </trkpt>
      <trkpt lat="-16.75454" lon="-151.01516">
        <ele>23.689575</ele>
        <time>2012-05-10T22:20:24Z</time>
      </trkpt>
      <trkpt lat="-16.75422" lon="-151.01554">
        <ele>27.534912</ele>
        <time>2012-05-10T22:20:28Z</time>
      </trkpt>
      <trkpt lat="-16.75389" lon="-151.01606">
        <ele>29.93811</ele>
        <time>2012-05-10T22:20:33Z</time>
      </trkpt>
      <trkpt lat="-16.75339" lon="-151.01759">
        <ele>32.822266</ele>
        <time>2012-05-10T22:20:45Z</time>
      </trkpt>
      <trkpt lat="-16.75335" lon="-151.01803">
        <ele>36.186768</ele>
        <time>2012-05-10T22:20:48Z</time>
      </trkpt>
      <trkpt lat="-16.75334" lon="-151.01818">
        <ele>36.186768</ele>
        <time>2012-05-10T22:20:49Z</time>
      </trkpt>
      <trkpt lat="-16.75333" lon="-151.01864">
        <ele>39.55127</ele>
        <time>2012-05-10T22:20:52Z</time>
      </trkpt>
      <trkpt lat="-16.75332" lon="-151.0188">
        <ele>40.032104</ele>
        <time>2012-05-10T22:20:53Z</time>
      </trkpt>
      <trkpt lat="-16.75335" lon="-151.01936">
        <ele>41.473999</ele>
        <time>2012-05-10T22:20:57Z</time>
      </trkpt>
      <trkpt lat="-16.75331" lon="-151.01962">
        <ele>41.954712</ele>
        <time>2012-05-10T22:20:59Z</time>
      </trkpt>
      <trkpt lat="-16.75311" lon="-151.01996">
        <ele>43.396606</ele>
        <time>2012-05-10T22:21:02Z</time>
      </trkpt>
      <trkpt lat="-16.75285" lon="-151.02028">
        <ele>47.722534</ele>
        <time>2012-05-10T22:21:05Z</time>
      </trkpt>
      <trkpt lat="-16.75268" lon="-151.02048">
        <ele>50.606567</ele>
        <time>2012-05-10T22:21:07Z</time>
      </trkpt>
      <trkpt lat="-16.75226" lon="-151.02077">
        <ele>55.893799</ele>
        <time>2012-05-10T22:21:11Z</time>
      </trkpt>
      <trkpt lat="-16.75191" lon="-151.02089">
        <ele>59.258423</ele>
        <time>2012-05-10T22:21:14Z</time>
      </trkpt>
      <trkpt lat="-16.7516" lon="-151.02101">
        <ele>60.219727</ele>
        <time>2012-05-10T22:21:17Z</time>
      </trkpt>
      <trkpt lat="-16.75129" lon="-151.0213">
        <ele>62.142334</ele>
        <time>2012-05-10T22:21:21Z</time>
      </trkpt>
      <trkpt lat="-16.751" lon="-151.02171">
        <ele>61.18103</ele>
        <time>2012-05-10T22:21:26Z</time>
      </trkpt>
      <trkpt lat="-16.75055" lon="-151.02189">
        <ele>62.622925</ele>
        <time>2012-05-10T22:21:32Z</time>
      </trkpt>
      <trkpt lat="-16.75035" lon="-151.02184">
        <ele>61.661743</ele>
        <time>2012-05-10T22:21:34Z</time>
      </trkpt>
      <trkpt lat="-16.75004" lon="-151.02167">
        <ele>57.816528</ele>
        <time>2012-05-10T22:21:37Z</time>
      </trkpt>
      <trkpt lat="-16.74966" lon="-151.02123">
        <ele>52.048584</ele>
        <time>2012-05-10T22:21:42Z</time>
      </trkpt>
      <trkpt lat="-16.7493" lon="-151.021">
        <ele>49.645264</ele>
        <time>2012-05-10T22:21:45Z</time>
      </trkpt>
      <trkpt lat="-16.74878" lon="-151.02082">
        <ele>48.203369</ele>
        <time>2012-05-10T22:21:49Z</time>
      </trkpt>
      <trkpt lat="-16.74828" lon="-151.02085">
        <ele>50.125977</ele>
        <time>2012-05-10T22:21:53Z</time>
      </trkpt>
      <trkpt lat="-16.74769" lon="-151.02144">
        <ele>54.932373</ele>
        <time>2012-05-10T22:22:00Z</time>
      </trkpt>
      <trkpt lat="-16.74764" lon="-151.02156">
        <ele>55.413086</ele>
        <time>2012-05-10T22:22:01Z</time>
      </trkpt>
      <trkpt lat="-16.74741" lon="-151.02212">
        <ele>59.258423</ele>
        <time>2012-05-10T22:22:06Z</time>
      </trkpt>
      <trkpt lat="-16.74737" lon="-151.02222">
        <ele>60.219727</ele>
        <time>2012-05-10T22:22:07Z</time>
      </trkpt>
      <trkpt lat="-16.74687" lon="-151.02284">
        <ele>64.065063</ele>
        <time>2012-05-10T22:22:14Z</time>
      </trkpt>
      <trkpt lat="-16.74659" lon="-151.02311">
        <ele>66.468262</ele>
        <time>2012-05-10T22:22:17Z</time>
      </trkpt>
      <trkpt lat="-16.74582" lon="-151.0239">
        <ele>65.987671</ele>
        <time>2012-05-10T22:22:26Z</time>
      </trkpt>
      <trkpt lat="-16.74561" lon="-151.02438">
        <ele>62.622925</ele>
        <time>2012-05-10T22:22:30Z</time>
      </trkpt>
      <trkpt lat="-16.74539" lon="-151.02488">
        <ele>59.258423</ele>
        <time>2012-05-10T22:22:34Z</time>
      </trkpt>
      <trkpt lat="-16.74516" lon="-151.02527">
        <ele>55.413086</ele>
        <time>2012-05-10T22:22:37Z</time>
      </trkpt>
      <trkpt lat="-16.74492" lon="-151.02568">
        <ele>52.048584</ele>
        <time>2012-05-10T22:22:40Z</time>
      </trkpt>
      <trkpt lat="-16.74478" lon="-151.02593">
        <ele>48.203369</ele>
        <time>2012-05-10T22:22:42Z</time>
      </trkpt>
      <trkpt lat="-16.74471" lon="-151.02605">
        <ele>48.203369</ele>
        <time>2012-05-10T22:22:43Z</time>
      </trkpt>
      <trkpt lat="-16.74431" lon="-151.02641">
        <ele>42.916016</ele>
        <time>2012-05-10T22:22:47Z</time>
      </trkpt>
      <trkpt lat="-16.7439" lon="-151.02662">
        <ele>38.590088</ele>
        <time>2012-05-10T22:22:50Z</time>
      </trkpt>
      <trkpt lat="-16.74351" lon="-151.02685">
        <ele>35.706055</ele>
        <time>2012-05-10T22:22:53Z</time>
      </trkpt>
      <trkpt lat="-16.74227" lon="-151.02794">
        <ele>37.628662</ele>
        <time>2012-05-10T22:23:03Z</time>
      </trkpt>
      <trkpt lat="-16.74153" lon="-151.02882">
        <ele>37.628662</ele>
        <time>2012-05-10T22:23:11Z</time>
      </trkpt>
      <trkpt lat="-16.7408" lon="-151.02943">
        <ele>33.302856</ele>
        <time>2012-05-10T22:23:19Z</time>
      </trkpt>
      <trkpt lat="-16.74" lon="-151.02954">
        <ele>31.380127</ele>
        <time>2012-05-10T22:23:26Z</time>
      </trkpt>
      <trkpt lat="-16.73976" lon="-151.02958">
        <ele>29.93811</ele>
        <time>2012-05-10T22:23:28Z</time>
      </trkpt>
      <trkpt lat="-16.73893" lon="-151.02979">
        <ele>26.092896</ele>
        <time>2012-05-10T22:23:35Z</time>
      </trkpt>
      <trkpt lat="-16.73809" lon="-151.03027">
        <ele>25.131714</ele>
        <time>2012-05-10T22:23:43Z</time>
      </trkpt>
      <trkpt lat="-16.73723" lon="-151.03106">
        <ele>21.286377</ele>
        <time>2012-05-10T22:23:53Z</time>
      </trkpt>
      <trkpt lat="-16.73714" lon="-151.03114">
        <ele>21.766968</ele>
        <time>2012-05-10T22:23:54Z</time>
      </trkpt>
      <trkpt lat="-16.73653" lon="-151.03171">
        <ele>17.921753</ele>
        <time>2012-05-10T22:24:02Z</time>
      </trkpt>
      <trkpt lat="-16.73648" lon="-151.03175">
        <ele>18.402344</ele>
        <time>2012-05-10T22:24:03Z</time>
      </trkpt>
      <trkpt lat="-16.73597" lon="-151.03225">
        <ele>19.84436</ele>
        <time>2012-05-10T22:24:12Z</time>
      </trkpt>
      <trkpt lat="-16.7348" lon="-151.03279">
        <ele>19.84436</ele>
        <time>2012-05-10T22:24:24Z</time>
      </trkpt>
      <trkpt lat="-16.73408" lon="-151.03314">
        <ele>20.805664</ele>
        <time>2012-05-10T22:24:32Z</time>
      </trkpt>
      <trkpt lat="-16.73377" lon="-151.03347">
        <ele>19.36377</ele>
        <time>2012-05-10T22:24:36Z</time>
      </trkpt>
      <trkpt lat="-16.7334" lon="-151.03419">
        <ele>19.36377</ele>
        <time>2012-05-10T22:24:43Z</time>
      </trkpt>
      <trkpt lat="-16.73247" lon="-151.03497">
        <ele>21.766968</ele>
        <time>2012-05-10T22:24:53Z</time>
      </trkpt>
      <trkpt lat="-16.73109" lon="-151.0354">
        <ele>20.324951</ele>
        <time>2012-05-10T22:25:05Z</time>
      </trkpt>
      <trkpt lat="-16.73088" lon="-151.03544">
        <ele>21.286377</ele>
        <time>2012-05-10T22:25:07Z</time>
      </trkpt>
      <trkpt lat="-16.73045" lon="-151.03581">
        <ele>20.805664</ele>
        <time>2012-05-10T22:25:12Z</time>
      </trkpt>
      <trkpt lat="-16.72957" lon="-151.03701">
        <ele>21.286377</ele>
        <time>2012-05-10T22:25:24Z</time>
      </trkpt>
      <trkpt lat="-16.72862" lon="-151.03762">
        <ele>24.651001</ele>
        <time>2012-05-10T22:25:33Z</time>
      </trkpt>
      <trkpt lat="-16.7285" lon="-151.03766">
        <ele>24.651001</ele>
        <time>2012-05-10T22:25:34Z</time>
      </trkpt>
      <trkpt lat="-16.72804" lon="-151.03777">
        <ele>21.766968</ele>
        <time>2012-05-10T22:25:38Z</time>
      </trkpt>
      <trkpt lat="-16.72693" lon="-151.03769">
        <ele>23.208984</ele>
        <time>2012-05-10T22:25:47Z</time>
      </trkpt>
      <trkpt lat="-16.72571" lon="-151.03719">
        <ele>23.689575</ele>
        <time>2012-05-10T22:25:57Z</time>
      </trkpt>
      <trkpt lat="-16.72546" lon="-151.03709">
        <ele>25.131714</ele>
        <time>2012-05-10T22:25:59Z</time>
      </trkpt>
      <trkpt lat="-16.72464" lon="-151.03683">
        <ele>22.728271</ele>
        <time>2012-05-10T22:26:06Z</time>
      </trkpt>
      <trkpt lat="-16.72389" lon="-151.03693">
        <ele>20.324951</ele>
        <time>2012-05-10T22:26:12Z</time>
      </trkpt>
      <trkpt lat="-16.72379" lon="-151.03696">
        <ele>20.805664</ele>
        <time>2012-05-10T22:26:13Z</time>
      </trkpt>
      <trkpt lat="-16.72336" lon="-151.03711">
        <ele>19.36377</ele>
        <time>2012-05-10T22:26:18Z</time>
      </trkpt>
      <trkpt lat="-16.7231" lon="-151.03713">
        <ele>20.324951</ele>
        <time>2012-05-10T22:26:21Z</time>
      </trkpt>
      <trkpt lat="-16.72291" lon="-151.03706">
        <ele>21.766968</ele>
        <time>2012-05-10T22:26:23Z</time>
      </trkpt>
      <trkpt lat="-16.72208" lon="-151.03671">
        <ele>20.805664</ele>
        <time>2012-05-10T22:26:31Z</time>
      </trkpt>
      <trkpt lat="-16.72182" lon="-151.03626">
        <ele>21.286377</ele>
        <time>2012-05-10T22:26:37Z</time>
      </trkpt>
      <trkpt lat="-16.7218" lon="-151.03556">
        <ele>21.286377</ele>
        <time>2012-05-10T22:26:43Z</time>
      </trkpt>
      <trkpt lat="-16.72199" lon="-151.03416">
        <ele>21.286377</ele>
        <time>2012-05-10T22:26:55Z</time>
      </trkpt>
      <trkpt lat="-16.72264" lon="-151.03249">
        <ele>21.286377</ele>
        <time>2012-05-10T22:27:10Z</time>
      </trkpt>
      <trkpt lat="-16.72267" lon="-151.03239">
        <ele>20.805664</ele>
        <time>2012-05-10T22:27:11Z</time>
      </trkpt>
      <trkpt lat="-16.72253" lon="-151.03172">
        <ele>19.84436</ele>
        <time>2012-05-10T22:27:18Z</time>
      </trkpt>
      <trkpt lat="-16.72224" lon="-151.03144">
        <ele>21.766968</ele>
        <time>2012-05-10T22:27:22Z</time>
      </trkpt>
      <trkpt lat="-16.72159" lon="-151.03104">
        <ele>22.247559</ele>
        <time>2012-05-10T22:27:29Z</time>
      </trkpt>
      <trkpt lat="-16.72132" lon="-151.031">
        <ele>20.324951</ele>
        <time>2012-05-10T22:27:32Z</time>
      </trkpt>
      <trkpt lat="-16.72107" lon="-151.03131">
        <ele>21.766968</ele>
        <time>2012-05-10T22:27:36Z</time>
      </trkpt>
      <trkpt lat="-16.72075" lon="-151.03199">
        <ele>22.728271</ele>
        <time>2012-05-10T22:27:42Z</time>
      </trkpt>
      <trkpt lat="-16.72026" lon="-151.03247">
        <ele>24.170288</ele>
        <time>2012-05-10T22:27:48Z</time>
      </trkpt>
      <trkpt lat="-16.71893" lon="-151.03321">
        <ele>23.208984</ele>
        <time>2012-05-10T22:28:00Z</time>
      </trkpt>
      <trkpt lat="-16.71829" lon="-151.03352">
        <ele>21.766968</ele>
        <time>2012-05-10T22:28:06Z</time>
      </trkpt>
      <trkpt lat="-16.71789" lon="-151.03359">
        <ele>21.766968</ele>
        <time>2012-05-10T22:28:10Z</time>
      </trkpt>
      <trkpt lat="-16.71663" lon="-151.03347">
        <ele>22.728271</ele>
        <time>2012-05-10T22:28:22Z</time>
      </trkpt>
      <trkpt lat="-16.71556" lon="-151.03312">
        <ele>22.247559</ele>
        <time>2012-05-10T22:28:34Z</time>
      </trkpt>
      <trkpt lat="-16.71533" lon="-151.03312">
        <ele>18.883057</ele>
        <time>2012-05-10T22:28:37Z</time>
      </trkpt>
      <trkpt lat="-16.71528" lon="-151.03314">
        <ele>18.883057</ele>
        <time>2012-05-10T22:28:38Z</time>
      </trkpt>
      <trkpt lat="-16.71519" lon="-151.03352">
        <ele>18.402344</ele>
        <time>2012-05-10T22:28:44Z</time>
      </trkpt>
      <trkpt lat="-16.71508" lon="-151.0336">
        <ele>18.883057</ele>
        <time>2012-05-10T22:28:46Z</time>
      </trkpt>
      <trkpt lat="-16.71452" lon="-151.03411">
        <ele>18.402344</ele>
        <time>2012-05-10T22:28:59Z</time>
      </trkpt>
      <trkpt lat="-16.71446" lon="-151.03419">
        <ele>18.402344</ele>
        <time>2012-05-10T22:29:01Z</time>
      </trkpt>
      <trkpt lat="-16.7142" lon="-151.03459">
        <ele>18.402344</ele>
        <time>2012-05-10T22:29:12Z</time>
      </trkpt>
      <trkpt lat="-16.71403" lon="-151.03496">
        <ele>18.883057</ele>
        <time>2012-05-10T22:29:19Z</time>
      </trkpt>
      <trkpt lat="-16.71387" lon="-151.03559">
        <ele>18.883057</ele>
        <time>2012-05-10T22:29:31Z</time>
      </trkpt>
      <trkpt lat="-16.71387" lon="-151.03565">
        <ele>17.441162</ele>
        <time>2012-05-10T22:29:33Z</time>
      </trkpt>
      <trkpt lat="-16.71388" lon="-151.03568">
        <ele>17.441162</ele>
        <time>2012-05-10T22:29:35Z</time>
      </trkpt>
      <trkpt lat="-16.71391" lon="-151.03573">
        <ele>17.921753</ele>
        <time>2012-05-10T22:29:53Z</time>
      </trkpt>
      <trkpt lat="-16.71393" lon="-151.03571">
        <ele>17.441162</ele>
        <time>2012-05-10T22:29:59Z</time>
      </trkpt>
      <trkpt lat="-16.71395" lon="-151.03559">
        <ele>17.921753</ele>
        <time>2012-05-10T22:30:11Z</time>
      </trkpt>
      <trkpt lat="-16.71398" lon="-151.03559">
        <ele>18.402344</ele>
        <time>2012-05-10T22:30:24Z</time>
      </trkpt>
      <trkpt lat="-16.71402" lon="-151.03561">
        <ele>18.402344</ele>
        <time>2012-05-10T22:30:37Z</time>
      </trkpt>
      <trkpt lat="-16.714" lon="-151.0356">
        <ele>17.441162</ele>
        <time>2012-05-10T22:30:59Z</time>
      </trkpt>
      <trkpt lat="-16.714" lon="-151.03562">
        <ele>17.441162</ele>
        <time>2012-05-10T22:32:33Z</time>
      </trkpt>
      <trkpt lat="-16.71403" lon="-151.03561">
        <ele>17.441162</ele>
        <time>2012-05-10T22:32:49Z</time>
      </trkpt>
      <trkpt lat="-16.71408" lon="-151.03568">
        <ele>17.441162</ele>
        <time>2012-05-10T22:33:01Z</time>
      </trkpt>
      <trkpt lat="-16.71402" lon="-151.03588">
        <ele>17.441162</ele>
        <time>2012-05-10T22:33:19Z</time>
      </trkpt>
      <trkpt lat="-16.71398" lon="-151.03601">
        <ele>18.402344</ele>
        <time>2012-05-10T22:33:34Z</time>
      </trkpt>
      <trkpt lat="-16.71396" lon="-151.03611">
        <ele>17.441162</ele>
        <time>2012-05-10T22:33:49Z</time>
      </trkpt>
      <trkpt lat="-16.71394" lon="-151.03618">
        <ele>17.441162</ele>
        <time>2012-05-10T22:33:57Z</time>
      </trkpt>
      <trkpt lat="-16.71374" lon="-151.03638">
        <ele>18.402344</ele>
        <time>2012-05-10T22:34:18Z</time>
      </trkpt>
      <trkpt lat="-16.7136" lon="-151.03656">
        <ele>19.36377</ele>
        <time>2012-05-10T22:34:37Z</time>
      </trkpt>
      <trkpt lat="-16.71346" lon="-151.03668">
        <ele>17.921753</ele>
        <time>2012-05-10T22:34:54Z</time>
      </trkpt>
      <trkpt lat="-16.71327" lon="-151.03682">
        <ele>18.402344</ele>
        <time>2012-05-10T22:35:14Z</time>
      </trkpt>
      <trkpt lat="-16.7131" lon="-151.03698">
        <ele>18.883057</ele>
        <time>2012-05-10T22:35:33Z</time>
      </trkpt>
      <trkpt lat="-16.71293" lon="-151.03708">
        <ele>17.921753</ele>
        <time>2012-05-10T22:35:49Z</time>
      </trkpt>
      <trkpt lat="-16.7127" lon="-151.03726">
        <ele>18.883057</ele>
        <time>2012-05-10T22:36:12Z</time>
      </trkpt>
      <trkpt lat="-16.71248" lon="-151.03742">
        <ele>18.883057</ele>
        <time>2012-05-10T22:36:34Z</time>
      </trkpt>
      <trkpt lat="-16.71232" lon="-151.03755">
        <ele>18.402344</ele>
        <time>2012-05-10T22:36:52Z</time>
      </trkpt>
      <trkpt lat="-16.71214" lon="-151.0377">
        <ele>17.921753</ele>
        <time>2012-05-10T22:37:12Z</time>
      </trkpt>
      <trkpt lat="-16.71194" lon="-151.03785">
        <ele>17.921753</ele>
        <time>2012-05-10T22:37:34Z</time>
      </trkpt>
      <trkpt lat="-16.71188" lon="-151.0379">
        <ele>17.441162</ele>
        <time>2012-05-10T22:37:41Z</time>
      </trkpt>
      <trkpt lat="-16.71168" lon="-151.03802">
        <ele>18.402344</ele>
        <time>2012-05-10T22:38:02Z</time>
      </trkpt>
      <trkpt lat="-16.71154" lon="-151.03809">
        <ele>17.921753</ele>
        <time>2012-05-10T22:38:19Z</time>
      </trkpt>
      <trkpt lat="-16.71145" lon="-151.03812">
        <ele>17.441162</ele>
        <time>2012-05-10T22:38:38Z</time>
      </trkpt>
      <trkpt lat="-16.71143" lon="-151.03811">
        <ele>17.441162</ele>
        <time>2012-05-10T22:39:33Z</time>
      </trkpt>
      <trkpt lat="-16.71145" lon="-151.03812">
        <ele>17.921753</ele>
        <time>2012-05-10T22:40:17Z</time>
      </trkpt>
      <trkpt lat="-16.71146" lon="-151.03814">
        <ele>18.402344</ele>
        <time>2012-05-10T22:41:13Z</time>
      </trkpt>
      <trkpt lat="-16.71144" lon="-151.03814">
        <ele>18.883057</ele>
        <time>2012-05-10T22:41:50Z</time>
      </trkpt>
      <trkpt lat="-16.71142" lon="-151.03812">
        <ele>18.883057</ele>
        <time>2012-05-10T22:42:14Z</time>
      </trkpt>
      <trkpt lat="-16.71143" lon="-151.03812">
        <ele>18.402344</ele>
        <time>2012-05-10T22:42:43Z</time>
      </trkpt>
      <trkpt lat="-16.71143" lon="-151.03813">
        <ele>17.921753</ele>
        <time>2012-05-10T22:43:14Z</time>
      </trkpt>
      <trkpt lat="-16.71142" lon="-151.0381">
        <ele>17.921753</ele>
        <time>2012-05-10T22:43:42Z</time>
      </trkpt>
      <trkpt lat="-16.71142" lon="-151.03813">
        <ele>17.441162</ele>
        <time>2012-05-10T22:44:10Z</time>
      </trkpt>
      <trkpt lat="-16.71142" lon="-151.03812">
        <ele>17.441162</ele>
        <time>2012-05-10T22:44:34Z</time>
      </trkpt>
      <trkpt lat="-16.71145" lon="-151.0381">
        <ele>17.441162</ele>
        <time>2012-05-10T22:45:12Z</time>
      </trkpt>
      <trkpt lat="-16.71143" lon="-151.03812">
        <ele>16.960449</ele>
        <time>2012-05-10T22:46:00Z</time>
      </trkpt>
      <trkpt lat="-16.71143" lon="-151.03814">
        <ele>16.960449</ele>
        <time>2012-05-10T22:46:56Z</time>
      </trkpt>
      <trkpt lat="-16.71141" lon="-151.03815">
        <ele>17.441162</ele>
        <time>2012-05-10T22:47:23Z</time>
      </trkpt>
      <trkpt lat="-16.71141" lon="-151.03815">
        <ele>17.441162</ele>
        <time>2012-05-10T22:48:12Z</time>
      </trkpt>
      <trkpt lat="-16.71142" lon="-151.03816">
        <ele>17.921753</ele>
        <time>2012-05-10T22:48:41Z</time>
      </trkpt>
      <trkpt lat="-16.71143" lon="-151.03815">
        <ele>17.921753</ele>
        <time>2012-05-10T22:49:03Z</time>
      </trkpt>
      <trkpt lat="-16.71142" lon="-151.03813">
        <ele>17.921753</ele>
        <time>2012-05-10T22:49:28Z</time>
      </trkpt>
      <trkpt lat="-16.71142" lon="-151.03811">
        <ele>18.402344</ele>
        <time>2012-05-10T22:50:01Z</time>
      </trkpt>
      <trkpt lat="-16.71143" lon="-151.03813">
        <ele>18.402344</ele>
        <time>2012-05-10T22:50:33Z</time>
      </trkpt>
      <trkpt lat="-16.71141" lon="-151.03812">
        <ele>18.402344</ele>
        <time>2012-05-10T22:51:13Z</time>
      </trkpt>
      <trkpt lat="-16.71142" lon="-151.03814">
        <ele>18.883057</ele>
        <time>2012-05-10T22:51:49Z</time>
      </trkpt>
      <trkpt lat="-16.71143" lon="-151.03812">
        <ele>18.883057</ele>
        <time>2012-05-10T22:52:54Z</time>
      </trkpt>
      <trkpt lat="-16.71144" lon="-151.03812">
        <ele>19.36377</ele>
        <time>2012-05-10T22:53:36Z</time>
      </trkpt>
      <trkpt lat="-16.71144" lon="-151.03809">
        <ele>19.36377</ele>
        <time>2012-05-10T22:53:58Z</time>
      </trkpt>
      <trkpt lat="-16.71147" lon="-151.0381">
        <ele>17.441162</ele>
        <time>2012-05-10T22:54:15Z</time>
      </trkpt>
      <trkpt lat="-16.71146" lon="-151.0381">
        <ele>19.36377</ele>
        <time>2012-05-10T22:54:17Z</time>
      </trkpt>
      <trkpt lat="-16.71143" lon="-151.03811">
        <ele>17.441162</ele>
        <time>2012-05-10T22:54:27Z</time>
      </trkpt>
      <trkpt lat="-16.71146" lon="-151.03812">
        <ele>19.84436</ele>
        <time>2012-05-10T22:54:42Z</time>
      </trkpt>
      <trkpt lat="-16.71146" lon="-151.03812">
        <ele>19.36377</ele>
        <time>2012-05-10T22:55:04Z</time>
      </trkpt>
      <trkpt lat="-16.71142" lon="-151.03814">
        <ele>19.84436</ele>
        <time>2012-05-10T22:56:04Z</time>
      </trkpt>
      <trkpt lat="-16.7114" lon="-151.03812">
        <ele>20.324951</ele>
        <time>2012-05-10T22:56:18Z</time>
      </trkpt>
      <trkpt lat="-16.71141" lon="-151.03813">
        <ele>21.286377</ele>
        <time>2012-05-10T22:56:50Z</time>
      </trkpt>
      <trkpt lat="-16.71145" lon="-151.03811">
        <ele>19.84436</ele>
        <time>2012-05-10T22:57:36Z</time>
      </trkpt>
      <trkpt lat="-16.71147" lon="-151.03811">
        <ele>20.805664</ele>
        <time>2012-05-10T22:58:10Z</time>
      </trkpt>
      <trkpt lat="-16.71145" lon="-151.03816">
        <ele>20.324951</ele>
        <time>2012-05-10T22:58:39Z</time>
      </trkpt>
      <trkpt lat="-16.71142" lon="-151.03814">
        <ele>20.324951</ele>
        <time>2012-05-10T22:59:04Z</time>
      </trkpt>
      <trkpt lat="-16.71149" lon="-151.03815">
        <ele>20.324951</ele>
        <time>2012-05-10T22:59:19Z</time>
      </trkpt>
      <trkpt lat="-16.71149" lon="-151.03813">
        <ele>20.324951</ele>
        <time>2012-05-10T22:59:31Z</time>
      </trkpt>
      <trkpt lat="-16.71131" lon="-151.03801">
        <ele>20.805664</ele>
        <time>2012-05-10T22:59:44Z</time>
      </trkpt>
      <trkpt lat="-16.71131" lon="-151.03801">
        <ele>19.84436</ele>
        <time>2012-05-10T22:59:46Z</time>
      </trkpt>
      <trkpt lat="-16.7114" lon="-151.03807">
        <ele>20.324951</ele>
        <time>2012-05-10T23:00:01Z</time>
      </trkpt>
      <trkpt lat="-16.71143" lon="-151.03809">
        <ele>19.84436</ele>
        <time>2012-05-10T23:00:04Z</time>
      </trkpt>
      <trkpt lat="-16.71139" lon="-151.03811">
        <ele>20.324951</ele>
        <time>2012-05-10T23:00:07Z</time>
      </trkpt>
      <trkpt lat="-16.71134" lon="-151.03813">
        <ele>20.324951</ele>
        <time>2012-05-10T23:00:23Z</time>
      </trkpt>
      <trkpt lat="-16.71136" lon="-151.03814">
        <ele>19.84436</ele>
        <time>2012-05-10T23:00:45Z</time>
      </trkpt>
      <trkpt lat="-16.71141" lon="-151.03811">
        <ele>19.36377</ele>
        <time>2012-05-10T23:01:04Z</time>
      </trkpt>
      <trkpt lat="-16.71139" lon="-151.03812">
        <ele>19.84436</ele>
        <time>2012-05-10T23:01:28Z</time>
      </trkpt>
      <trkpt lat="-16.71141" lon="-151.03812">
        <ele>19.84436</ele>
        <time>2012-05-10T23:01:56Z</time>
      </trkpt>
      <trkpt lat="-16.71142" lon="-151.03813">
        <ele>19.84436</ele>
        <time>2012-05-10T23:03:00Z</time>
      </trkpt>
      <trkpt lat="-16.71142" lon="-151.03811">
        <ele>19.84436</ele>
        <time>2012-05-10T23:03:17Z</time>
      </trkpt>
      <trkpt lat="-16.71145" lon="-151.03812">
        <ele>19.84436</ele>
        <time>2012-05-10T23:03:49Z</time>
      </trkpt>
      <trkpt lat="-16.71146" lon="-151.03813">
        <ele>19.84436</ele>
        <time>2012-05-10T23:04:33Z</time>
      </trkpt>
      <trkpt lat="-16.71147" lon="-151.03812">
        <ele>19.36377</ele>
        <time>2012-05-10T23:05:29Z</time>
      </trkpt>
      <trkpt lat="-16.71144" lon="-151.03811">
        <ele>19.84436</ele>
        <time>2012-05-10T23:05:47Z</time>
      </trkpt>
      <trkpt lat="-16.71146" lon="-151.0381">
        <ele>19.84436</ele>
        <time>2012-05-10T23:06:24Z</time>
      </trkpt>
      <trkpt lat="-16.71145" lon="-151.03812">
        <ele>19.84436</ele>
        <time>2012-05-10T23:06:56Z</time>
      </trkpt>
      <trkpt lat="-16.71139" lon="-151.03809">
        <ele>20.324951</ele>
        <time>2012-05-10T23:07:20Z</time>
      </trkpt>
      <trkpt lat="-16.71147" lon="-151.03809">
        <ele>19.84436</ele>
        <time>2012-05-10T23:07:42Z</time>
      </trkpt>
      <trkpt lat="-16.71147" lon="-151.03811">
        <ele>19.84436</ele>
        <time>2012-05-10T23:08:08Z</time>
      </trkpt>
      <trkpt lat="-16.71143" lon="-151.03813">
        <ele>19.36377</ele>
        <time>2012-05-10T23:08:39Z</time>
      </trkpt>
      <trkpt lat="-16.71142" lon="-151.03815">
        <ele>19.36377</ele>
        <time>2012-05-10T23:09:02Z</time>
      </trkpt>
      <trkpt lat="-16.71143" lon="-151.03812">
        <ele>18.883057</ele>
        <time>2012-05-10T23:09:25Z</time>
      </trkpt>
      <trkpt lat="-16.71141" lon="-151.03814">
        <ele>19.36377</ele>
        <time>2012-05-10T23:10:07Z</time>
      </trkpt>
      <trkpt lat="-16.71143" lon="-151.03813">
        <ele>18.883057</ele>
        <time>2012-05-10T23:11:24Z</time>
      </trkpt>
      <trkpt lat="-16.71145" lon="-151.03814">
        <ele>18.883057</ele>
        <time>2012-05-10T23:11:40Z</time>
      </trkpt>
      <trkpt lat="-16.71147" lon="-151.03814">
        <ele>18.402344</ele>
        <time>2012-05-10T23:13:29Z</time>
      </trkpt>
      <trkpt lat="-16.71144" lon="-151.03809">
        <ele>18.402344</ele>
        <time>2012-05-10T23:13:59Z</time>
      </trkpt>
      <trkpt lat="-16.71144" lon="-151.03809">
        <ele>18.402344</ele>
        <time>2012-05-10T23:14:23Z</time>
      </trkpt>
      <trkpt lat="-16.71141" lon="-151.03814">
        <ele>18.402344</ele>
        <time>2012-05-10T23:15:05Z</time>
      </trkpt>
      <trkpt lat="-16.71143" lon="-151.03814">
        <ele>17.921753</ele>
        <time>2012-05-10T23:15:30Z</time>
      </trkpt>
      <trkpt lat="-16.71141" lon="-151.03809">
        <ele>17.921753</ele>
        <time>2012-05-10T23:16:24Z</time>
      </trkpt>
      <trkpt lat="-16.71143" lon="-151.03809">
        <ele>17.921753</ele>
        <time>2012-05-10T23:17:08Z</time>
      </trkpt>
      <trkpt lat="-16.71143" lon="-151.03807">
        <ele>16.960449</ele>
        <time>2012-05-10T23:18:00Z</time>
      </trkpt>
      <trkpt lat="-16.71144" lon="-151.03813">
        <ele>17.921753</ele>
        <time>2012-05-10T23:19:40Z</time>
      </trkpt>
      <trkpt lat="-16.71145" lon="-151.03807">
        <ele>16.960449</ele>
        <time>2012-05-10T23:21:39Z</time>
      </trkpt>
      <trkpt lat="-16.71143" lon="-151.03812">
        <ele>16.960449</ele>
        <time>2012-05-10T23:22:00Z</time>
      </trkpt>
      <trkpt lat="-16.71142" lon="-151.03808">
        <ele>16.960449</ele>
        <time>2012-05-10T23:22:34Z</time>
      </trkpt>
      <trkpt lat="-16.71141" lon="-151.03813">
        <ele>17.441162</ele>
        <time>2012-05-10T23:22:56Z</time>
      </trkpt>
      <trkpt lat="-16.71142" lon="-151.03813">
        <ele>17.441162</ele>
        <time>2012-05-10T23:23:35Z</time>
      </trkpt>
      <trkpt lat="-16.71142" lon="-151.03813">
        <ele>16.479736</ele>
        <time>2012-05-10T23:23:59Z</time>
      </trkpt>
      <trkpt lat="-16.71143" lon="-151.03815">
        <ele>16.479736</ele>
        <time>2012-05-10T23:24:42Z</time>
      </trkpt>
      <trkpt lat="-16.71143" lon="-151.03815">
        <ele>16.960449</ele>
        <time>2012-05-10T23:25:29Z</time>
      </trkpt>
      <trkpt lat="-16.7114" lon="-151.03813">
        <ele>16.479736</ele>
        <time>2012-05-10T23:26:02Z</time>
      </trkpt>
      <trkpt lat="-16.71145" lon="-151.0381">
        <ele>16.960449</ele>
        <time>2012-05-10T23:27:03Z</time>
      </trkpt>
      <trkpt lat="-16.71143" lon="-151.03814">
        <ele>16.479736</ele>
        <time>2012-05-10T23:28:36Z</time>
      </trkpt>
      <trkpt lat="-16.71142" lon="-151.03814">
        <ele>16.479736</ele>
        <time>2012-05-10T23:28:53Z</time>
      </trkpt>
      <trkpt lat="-16.71142" lon="-151.03816">
        <ele>16.479736</ele>
        <time>2012-05-10T23:29:19Z</time>
      </trkpt>
      <trkpt lat="-16.71143" lon="-151.03812">
        <ele>16.479736</ele>
        <time>2012-05-10T23:29:44Z</time>
      </trkpt>
      <trkpt lat="-16.71143" lon="-151.03814">
        <ele>16.960449</ele>
        <time>2012-05-10T23:30:08Z</time>
      </trkpt>
      <trkpt lat="-16.71142" lon="-151.03814">
        <ele>15.999023</ele>
        <time>2012-05-10T23:30:34Z</time>
      </trkpt>
      <trkpt lat="-16.71143" lon="-151.03816">
        <ele>16.479736</ele>
        <time>2012-05-10T23:31:08Z</time>
      </trkpt>
      <trkpt lat="-16.71142" lon="-151.03813">
        <ele>16.479736</ele>
        <time>2012-05-10T23:31:33Z</time>
      </trkpt>
      <trkpt lat="-16.71145" lon="-151.03815">
        <ele>15.999023</ele>
        <time>2012-05-10T23:31:57Z</time>
      </trkpt>
      <trkpt lat="-16.71143" lon="-151.03812">
        <ele>16.479736</ele>
        <time>2012-05-10T23:32:39Z</time>
      </trkpt>
      <trkpt lat="-16.71145" lon="-151.03813">
        <ele>15.999023</ele>
        <time>2012-05-10T23:32:58Z</time>
      </trkpt>
      <trkpt lat="-16.71144" lon="-151.03818">
        <ele>15.999023</ele>
        <time>2012-05-10T23:33:17Z</time>
      </trkpt>
      <trkpt lat="-16.71143" lon="-151.03819">
        <ele>15.999023</ele>
        <time>2012-05-10T23:33:30Z</time>
      </trkpt>
      <trkpt lat="-16.71144" lon="-151.03814">
        <ele>15.999023</ele>
        <time>2012-05-10T23:34:04Z</time>
      </trkpt>
      <trkpt lat="-16.71144" lon="-151.03815">
        <ele>15.999023</ele>
        <time>2012-05-10T23:34:37Z</time>
      </trkpt>
      <trkpt lat="-16.71143" lon="-151.03814">
        <ele>15.999023</ele>
        <time>2012-05-10T23:34:58Z</time>
      </trkpt>
      <trkpt lat="-16.71145" lon="-151.03816">
        <ele>15.999023</ele>
        <time>2012-05-10T23:35:18Z</time>
      </trkpt>
      <trkpt lat="-16.71143" lon="-151.03815">
        <ele>15.999023</ele>
        <time>2012-05-10T23:36:06Z</time>
      </trkpt>
      <trkpt lat="-16.71143" lon="-151.03809">
        <ele>15.999023</ele>
        <time>2012-05-10T23:36:39Z</time>
      </trkpt>
      <trkpt lat="-16.7114" lon="-151.03812">
        <ele>15.999023</ele>
        <time>2012-05-10T23:37:27Z</time>
      </trkpt>
      <trkpt lat="-16.71138" lon="-151.03813">
        <ele>15.999023</ele>
        <time>2012-05-10T23:38:39Z</time>
      </trkpt>
      <trkpt lat="-16.7114" lon="-151.03815">
        <ele>16.479736</ele>
        <time>2012-05-10T23:39:08Z</time>
      </trkpt>
      <trkpt lat="-16.71141" lon="-151.03812">
        <ele>16.479736</ele>
        <time>2012-05-10T23:40:30Z</time>
      </trkpt>
      <trkpt lat="-16.71142" lon="-151.03817">
        <ele>16.479736</ele>
        <time>2012-05-10T23:41:17Z</time>
      </trkpt>
      <trkpt lat="-16.71142" lon="-151.03815">
        <ele>16.479736</ele>
        <time>2012-05-10T23:41:44Z</time>
      </trkpt>
      <trkpt lat="-16.71142" lon="-151.03813">
        <ele>16.479736</ele>
        <time>2012-05-10T23:42:17Z</time>
      </trkpt>
      <trkpt lat="-16.7114" lon="-151.03817">
        <ele>16.960449</ele>
        <time>2012-05-10T23:42:42Z</time>
      </trkpt>
      <trkpt lat="-16.7114" lon="-151.03817">
        <ele>16.479736</ele>
        <time>2012-05-10T23:43:07Z</time>
      </trkpt>
      <trkpt lat="-16.71144" lon="-151.03813">
        <ele>15.999023</ele>
        <time>2012-05-10T23:46:27Z</time>
      </trkpt>
      <trkpt lat="-16.71143" lon="-151.03814">
        <ele>15.999023</ele>
        <time>2012-05-10T23:47:16Z</time>
      </trkpt>
      <trkpt lat="-16.71142" lon="-151.0381">
        <ele>15.999023</ele>
        <time>2012-05-10T23:47:41Z</time>
      </trkpt>
      <trkpt lat="-16.71142" lon="-151.03815">
        <ele>15.999023</ele>
        <time>2012-05-10T23:48:09Z</time>
      </trkpt>
      <trkpt lat="-16.71142" lon="-151.03818">
        <ele>15.999023</ele>
        <time>2012-05-10T23:48:30Z</time>
      </trkpt>
      <trkpt lat="-16.71142" lon="-151.03811">
        <ele>15.999023</ele>
        <time>2012-05-10T23:49:02Z</time>
      </trkpt>
      <trkpt lat="-16.71141" lon="-151.03815">
        <ele>15.518433</ele>
        <time>2012-05-10T23:49:26Z</time>
      </trkpt>
      <trkpt lat="-16.71144" lon="-151.03821">
        <ele>16.479736</ele>
        <time>2012-05-10T23:50:13Z</time>
      </trkpt>
      <trkpt lat="-16.71139" lon="-151.03811">
        <ele>16.479736</ele>
        <time>2012-05-10T23:50:50Z</time>
      </trkpt>
      <trkpt lat="-16.71141" lon="-151.03811">
        <ele>16.479736</ele>
        <time>2012-05-10T23:51:24Z</time>
      </trkpt>
      <trkpt lat="-16.71145" lon="-151.03814">
        <ele>16.960449</ele>
        <time>2012-05-10T23:51:42Z</time>
      </trkpt>
      <trkpt lat="-16.7114" lon="-151.03816">
        <ele>16.479736</ele>
        <time>2012-05-10T23:51:55Z</time>
      </trkpt>
      <trkpt lat="-16.71136" lon="-151.03815">
        <ele>16.960449</ele>
        <time>2012-05-10T23:52:09Z</time>
      </trkpt>
      <trkpt lat="-16.71143" lon="-151.0382">
        <ele>16.479736</ele>
        <time>2012-05-10T23:52:28Z</time>
      </trkpt>
      <trkpt lat="-16.71139" lon="-151.03817">
        <ele>16.479736</ele>
        <time>2012-05-10T23:52:46Z</time>
      </trkpt>
      <trkpt lat="-16.71141" lon="-151.03815">
        <ele>16.479736</ele>
        <time>2012-05-10T23:53:10Z</time>
      </trkpt>
      <trkpt lat="-16.71143" lon="-151.03816">
        <ele>16.479736</ele>
        <time>2012-05-10T23:55:24Z</time>
      </trkpt>
      <trkpt lat="-16.71142" lon="-151.03813">
        <ele>16.960449</ele>
        <time>2012-05-10T23:56:14Z</time>
      </trkpt>
      <trkpt lat="-16.71141" lon="-151.03816">
        <ele>16.479736</ele>
        <time>2012-05-10T23:57:24Z</time>
      </trkpt>
      <trkpt lat="-16.7114" lon="-151.0381">
        <ele>16.960449</ele>
        <time>2012-05-10T23:58:26Z</time>
      </trkpt>
      <trkpt lat="-16.71142" lon="-151.03816">
        <ele>16.479736</ele>
        <time>2012-05-10T23:59:51Z</time>
      </trkpt>
      <trkpt lat="-16.71142" lon="-151.03816">
        <ele>16.960449</ele>
        <time>2012-05-11T00:00:13Z</time>
      </trkpt>
      <trkpt lat="-16.71143" lon="-151.03823">
        <ele>16.960449</ele>
        <time>2012-05-11T00:00:20Z</time>
      </trkpt>
      <trkpt lat="-16.71143" lon="-151.03817">
        <ele>16.479736</ele>
        <time>2012-05-11T00:00:41Z</time>
      </trkpt>
      <trkpt lat="-16.71144" lon="-151.03815">
        <ele>16.479736</ele>
        <time>2012-05-11T00:01:18Z</time>
      </trkpt>
      <trkpt lat="-16.71141" lon="-151.0381">
        <ele>17.441162</ele>
        <time>2012-05-11T00:01:43Z</time>
      </trkpt>
      <trkpt lat="-16.71143" lon="-151.03815">
        <ele>16.960449</ele>
        <time>2012-05-11T00:02:52Z</time>
      </trkpt>
      <trkpt lat="-16.71143" lon="-151.03812">
        <ele>16.960449</ele>
        <time>2012-05-11T00:03:48Z</time>
      </trkpt>
      <trkpt lat="-16.71142" lon="-151.03811">
        <ele>16.479736</ele>
        <time>2012-05-11T00:04:20Z</time>
      </trkpt>
      <trkpt lat="-16.71142" lon="-151.03811">
        <ele>16.960449</ele>
        <time>2012-05-11T00:05:02Z</time>
      </trkpt>
      <trkpt lat="-16.7114" lon="-151.03808">
        <ele>16.479736</ele>
        <time>2012-05-11T00:06:12Z</time>
      </trkpt>
      <trkpt lat="-16.71141" lon="-151.03809">
        <ele>16.479736</ele>
        <time>2012-05-11T00:06:41Z</time>
      </trkpt>
      <trkpt lat="-16.71141" lon="-151.03809">
        <ele>16.960449</ele>
        <time>2012-05-11T00:07:13Z</time>
      </trkpt>
      <trkpt lat="-16.71142" lon="-151.03809">
        <ele>16.960449</ele>
        <time>2012-05-11T00:07:33Z</time>
      </trkpt>
      <trkpt lat="-16.71142" lon="-151.03809">
        <ele>15.518433</ele>
        <time>2012-05-11T00:07:54Z</time>
      </trkpt>
      <trkpt lat="-16.71143" lon="-151.0381">
        <ele>16.479736</ele>
        <time>2012-05-11T00:08:20Z</time>
      </trkpt>
      <trkpt lat="-16.71137" lon="-151.03814">
        <ele>15.999023</ele>
        <time>2012-05-11T00:09:01Z</time>
      </trkpt>
      <trkpt lat="-16.71142" lon="-151.03811">
        <ele>16.479736</ele>
        <time>2012-05-11T00:09:41Z</time>
      </trkpt>
      <trkpt lat="-16.71144" lon="-151.03816">
        <ele>16.479736</ele>
        <time>2012-05-11T00:10:03Z</time>
      </trkpt>
      <trkpt lat="-16.71143" lon="-151.03812">
        <ele>16.479736</ele>
        <time>2012-05-11T00:10:57Z</time>
      </trkpt>
      <trkpt lat="-16.71142" lon="-151.03813">
        <ele>16.960449</ele>
        <time>2012-05-11T00:11:48Z</time>
      </trkpt>
      <trkpt lat="-16.71137" lon="-151.03814">
        <ele>17.441162</ele>
        <time>2012-05-11T00:12:30Z</time>
      </trkpt>
      <trkpt lat="-16.71138" lon="-151.03812">
        <ele>18.402344</ele>
        <time>2012-05-11T00:13:12Z</time>
      </trkpt>
      <trkpt lat="-16.71146" lon="-151.03813">
        <ele>18.402344</ele>
        <time>2012-05-11T00:14:21Z</time>
      </trkpt>
      <trkpt lat="-16.71146" lon="-151.03815">
        <ele>17.921753</ele>
        <time>2012-05-11T00:14:47Z</time>
      </trkpt>
      <trkpt lat="-16.71145" lon="-151.03815">
        <ele>17.441162</ele>
        <time>2012-05-11T00:15:09Z</time>
      </trkpt>
      <trkpt lat="-16.71146" lon="-151.03807">
        <ele>17.441162</ele>
        <time>2012-05-11T00:15:41Z</time>
      </trkpt>
      <trkpt lat="-16.71149" lon="-151.0381">
        <ele>16.960449</ele>
        <time>2012-05-11T00:16:04Z</time>
      </trkpt>
      <trkpt lat="-16.71146" lon="-151.03808">
        <ele>16.960449</ele>
        <time>2012-05-11T00:16:26Z</time>
      </trkpt>
      <trkpt lat="-16.71145" lon="-151.03812">
        <ele>16.960449</ele>
        <time>2012-05-11T00:16:42Z</time>
      </trkpt>
      <trkpt lat="-16.71143" lon="-151.03814">
        <ele>17.441162</ele>
        <time>2012-05-11T00:16:57Z</time>
      </trkpt>
      <trkpt lat="-16.71145" lon="-151.03807">
        <ele>16.960449</ele>
        <time>2012-05-11T00:17:17Z</time>
      </trkpt>
      <trkpt lat="-16.71141" lon="-151.03809">
        <ele>16.479736</ele>
        <time>2012-05-11T00:17:53Z</time>
      </trkpt>
      <trkpt lat="-16.71141" lon="-151.03812">
        <ele>16.960449</ele>
        <time>2012-05-11T00:18:30Z</time>
      </trkpt>
      <trkpt lat="-16.71141" lon="-151.03814">
        <ele>17.441162</ele>
        <time>2012-05-11T00:18:49Z</time>
      </trkpt>
      <trkpt lat="-16.71142" lon="-151.03811">
        <ele>16.960449</ele>
        <time>2012-05-11T00:19:56Z</time>
      </trkpt>
      <trkpt lat="-16.71142" lon="-151.0381">
        <ele>17.441162</ele>
        <time>2012-05-11T00:20:15Z</time>
      </trkpt>
      <trkpt lat="-16.71142" lon="-151.0381">
        <ele>16.479736</ele>
        <time>2012-05-11T00:20:54Z</time>
      </trkpt>
      <trkpt lat="-16.71142" lon="-151.03811">
        <ele>16.960449</ele>
        <time>2012-05-11T00:21:33Z</time>
      </trkpt>
      <trkpt lat="-16.71143" lon="-151.0381">
        <ele>16.960449</ele>
        <time>2012-05-11T00:22:35Z</time>
      </trkpt>
      <trkpt lat="-16.71144" lon="-151.0381">
        <ele>16.479736</ele>
        <time>2012-05-11T00:23:06Z</time>
      </trkpt>
      <trkpt lat="-16.71144" lon="-151.03808">
        <ele>16.960449</ele>
        <time>2012-05-11T00:23:30Z</time>
      </trkpt>
      <trkpt lat="-16.71143" lon="-151.03808">
        <ele>17.441162</ele>
        <time>2012-05-11T00:24:05Z</time>
      </trkpt>
      <trkpt lat="-16.71142" lon="-151.0381">
        <ele>17.441162</ele>
        <time>2012-05-11T00:25:00Z</time>
      </trkpt>
      <trkpt lat="-16.71142" lon="-151.03809">
        <ele>17.441162</ele>
        <time>2012-05-11T00:25:31Z</time>
      </trkpt>
      <trkpt lat="-16.71143" lon="-151.0381">
        <ele>16.960449</ele>
        <time>2012-05-11T00:26:05Z</time>
      </trkpt>
      <trkpt lat="-16.71145" lon="-151.03811">
        <ele>17.441162</ele>
        <time>2012-05-11T00:26:39Z</time>
      </trkpt>
      <trkpt lat="-16.71147" lon="-151.03811">
        <ele>17.921753</ele>
        <time>2012-05-11T00:26:58Z</time>
      </trkpt>
      <trkpt lat="-16.71152" lon="-151.03808">
        <ele>17.441162</ele>
        <time>2012-05-11T00:27:18Z</time>
      </trkpt>
      <trkpt lat="-16.71149" lon="-151.0381">
        <ele>17.921753</ele>
        <time>2012-05-11T00:27:42Z</time>
      </trkpt>
      <trkpt lat="-16.71146" lon="-151.03813">
        <ele>18.402344</ele>
        <time>2012-05-11T00:28:15Z</time>
      </trkpt>
      <trkpt lat="-16.71146" lon="-151.03815">
        <ele>17.921753</ele>
        <time>2012-05-11T00:28:40Z</time>
      </trkpt>
      <trkpt lat="-16.71144" lon="-151.03812">
        <ele>17.441162</ele>
        <time>2012-05-11T00:29:07Z</time>
      </trkpt>
      <trkpt lat="-16.71143" lon="-151.03812">
        <ele>18.402344</ele>
        <time>2012-05-11T00:29:36Z</time>
      </trkpt>
      <trkpt lat="-16.71145" lon="-151.03813">
        <ele>17.441162</ele>
        <time>2012-05-11T00:30:02Z</time>
      </trkpt>
      <trkpt lat="-16.71147" lon="-151.03818">
        <ele>16.960449</ele>
        <time>2012-05-11T00:30:28Z</time>
      </trkpt>
      <trkpt lat="-16.71142" lon="-151.03812">
        <ele>17.921753</ele>
        <time>2012-05-11T00:31:49Z</time>
      </trkpt>
      <trkpt lat="-16.7114" lon="-151.0381">
        <ele>17.921753</ele>
        <time>2012-05-11T00:32:11Z</time>
      </trkpt>
      <trkpt lat="-16.71143" lon="-151.03814">
        <ele>17.921753</ele>
        <time>2012-05-11T00:32:43Z</time>
      </trkpt>
      <trkpt lat="-16.7114" lon="-151.03815">
        <ele>17.921753</ele>
        <time>2012-05-11T00:33:11Z</time>
      </trkpt>
      <trkpt lat="-16.71141" lon="-151.03813">
        <ele>16.960449</ele>
        <time>2012-05-11T00:33:38Z</time>
      </trkpt>
      <trkpt lat="-16.71144" lon="-151.03813">
        <ele>17.441162</ele>
        <time>2012-05-11T00:33:56Z</time>
      </trkpt>
      <trkpt lat="-16.71142" lon="-151.03814">
        <ele>18.402344</ele>
        <time>2012-05-11T00:34:19Z</time>
      </trkpt>
      <trkpt lat="-16.71141" lon="-151.03813">
        <ele>16.960449</ele>
        <time>2012-05-11T00:35:28Z</time>
      </trkpt>
      <trkpt lat="-16.7114" lon="-151.0381">
        <ele>17.441162</ele>
        <time>2012-05-11T00:37:02Z</time>
      </trkpt>
      <trkpt lat="-16.71141" lon="-151.03812">
        <ele>15.999023</ele>
        <time>2012-05-11T00:38:04Z</time>
      </trkpt>
      <trkpt lat="-16.71141" lon="-151.03812">
        <ele>16.479736</ele>
        <time>2012-05-11T00:39:08Z</time>
      </trkpt>
      <trkpt lat="-16.71141" lon="-151.03813">
        <ele>17.921753</ele>
        <time>2012-05-11T00:39:40Z</time>
      </trkpt>
      <trkpt lat="-16.71145" lon="-151.03809">
        <ele>16.479736</ele>
        <time>2012-05-11T00:39:51Z</time>
      </trkpt>
      <trkpt lat="-16.71153" lon="-151.03805">
        <ele>17.441162</ele>
        <time>2012-05-11T00:40:08Z</time>
      </trkpt>
      <trkpt lat="-16.71153" lon="-151.03806">
        <ele>17.441162</ele>
        <time>2012-05-11T00:40:21Z</time>
      </trkpt>
      <trkpt lat="-16.71159" lon="-151.03805">
        <ele>16.960449</ele>
        <time>2012-05-11T00:40:33Z</time>
      </trkpt>
      <trkpt lat="-16.71168" lon="-151.03801">
        <ele>16.479736</ele>
        <time>2012-05-11T00:40:51Z</time>
      </trkpt>
      <trkpt lat="-16.71181" lon="-151.03792">
        <ele>15.999023</ele>
        <time>2012-05-11T00:41:09Z</time>
      </trkpt>
      <trkpt lat="-16.71192" lon="-151.03785">
        <ele>15.999023</ele>
        <time>2012-05-11T00:41:28Z</time>
      </trkpt>
      <trkpt lat="-16.71201" lon="-151.03779">
        <ele>16.479736</ele>
        <time>2012-05-11T00:41:46Z</time>
      </trkpt>
      <trkpt lat="-16.7121" lon="-151.03773">
        <ele>16.479736</ele>
        <time>2012-05-11T00:42:03Z</time>
      </trkpt>
      <trkpt lat="-16.7122" lon="-151.03765">
        <ele>16.479736</ele>
        <time>2012-05-11T00:42:19Z</time>
      </trkpt>
      <trkpt lat="-16.7123" lon="-151.03756">
        <ele>15.999023</ele>
        <time>2012-05-11T00:42:37Z</time>
      </trkpt>
      <trkpt lat="-16.71236" lon="-151.03748">
        <ele>15.518433</ele>
        <time>2012-05-11T00:42:54Z</time>
      </trkpt>
      <trkpt lat="-16.71241" lon="-151.03741">
        <ele>17.441162</ele>
        <time>2012-05-11T00:43:07Z</time>
      </trkpt>
      <trkpt lat="-16.71245" lon="-151.0374">
        <ele>17.441162</ele>
        <time>2012-05-11T00:43:13Z</time>
      </trkpt>
      <trkpt lat="-16.71246" lon="-151.03739">
        <ele>17.441162</ele>
        <time>2012-05-11T00:43:14Z</time>
      </trkpt>
      <trkpt lat="-16.71258" lon="-151.03729">
        <ele>17.441162</ele>
        <time>2012-05-11T00:43:33Z</time>
      </trkpt>
      <trkpt lat="-16.71272" lon="-151.0372">
        <ele>17.441162</ele>
        <time>2012-05-11T00:43:50Z</time>
      </trkpt>
      <trkpt lat="-16.71284" lon="-151.0371">
        <ele>16.960449</ele>
        <time>2012-05-11T00:44:08Z</time>
      </trkpt>
      <trkpt lat="-16.71302" lon="-151.03697">
        <ele>17.441162</ele>
        <time>2012-05-11T00:44:31Z</time>
      </trkpt>
      <trkpt lat="-16.71321" lon="-151.03684">
        <ele>15.999023</ele>
        <time>2012-05-11T00:44:54Z</time>
      </trkpt>
      <trkpt lat="-16.71334" lon="-151.03674">
        <ele>16.960449</ele>
        <time>2012-05-11T00:45:11Z</time>
      </trkpt>
      <trkpt lat="-16.71352" lon="-151.03657">
        <ele>17.441162</ele>
        <time>2012-05-11T00:45:35Z</time>
      </trkpt>
      <trkpt lat="-16.71368" lon="-151.03642">
        <ele>16.960449</ele>
        <time>2012-05-11T00:45:56Z</time>
      </trkpt>
      <trkpt lat="-16.71381" lon="-151.03626">
        <ele>16.960449</ele>
        <time>2012-05-11T00:46:17Z</time>
      </trkpt>
      <trkpt lat="-16.71384" lon="-151.03611">
        <ele>17.441162</ele>
        <time>2012-05-11T00:46:37Z</time>
      </trkpt>
      <trkpt lat="-16.71382" lon="-151.0361">
        <ele>16.960449</ele>
        <time>2012-05-11T00:46:40Z</time>
      </trkpt>
      <trkpt lat="-16.71381" lon="-151.03597">
        <ele>16.960449</ele>
        <time>2012-05-11T00:46:52Z</time>
      </trkpt>
      <trkpt lat="-16.71386" lon="-151.03582">
        <ele>16.479736</ele>
        <time>2012-05-11T00:47:09Z</time>
      </trkpt>
      <trkpt lat="-16.71391" lon="-151.03562">
        <ele>16.479736</ele>
        <time>2012-05-11T00:47:27Z</time>
      </trkpt>
      <trkpt lat="-16.71395" lon="-151.0356">
        <ele>15.999023</ele>
        <time>2012-05-11T00:47:39Z</time>
      </trkpt>
      <trkpt lat="-16.71396" lon="-151.03559">
        <ele>15.999023</ele>
        <time>2012-05-11T00:47:48Z</time>
      </trkpt>
      <trkpt lat="-16.71399" lon="-151.03557">
        <ele>15.518433</ele>
        <time>2012-05-11T00:48:21Z</time>
      </trkpt>
      <trkpt lat="-16.71399" lon="-151.03558">
        <ele>15.518433</ele>
        <time>2012-05-11T00:48:38Z</time>
      </trkpt>
      <trkpt lat="-16.71399" lon="-151.03558">
        <ele>16.960449</ele>
        <time>2012-05-11T00:48:40Z</time>
      </trkpt>
      <trkpt lat="-16.71399" lon="-151.03557">
        <ele>15.03772</ele>
        <time>2012-05-11T00:48:44Z</time>
      </trkpt>
      <trkpt lat="-16.71395" lon="-151.03556">
        <ele>14.557007</ele>
        <time>2012-05-11T00:49:27Z</time>
      </trkpt>
      <trkpt lat="-16.714" lon="-151.03523">
        <ele>16.479736</ele>
        <time>2012-05-11T00:49:36Z</time>
      </trkpt>
      <trkpt lat="-16.7142" lon="-151.03469">
        <ele>15.999023</ele>
        <time>2012-05-11T00:49:50Z</time>
      </trkpt>
      <trkpt lat="-16.71433" lon="-151.03438">
        <ele>16.479736</ele>
        <time>2012-05-11T00:50:02Z</time>
      </trkpt>
      <trkpt lat="-16.71434" lon="-151.03436">
        <ele>16.479736</ele>
        <time>2012-05-11T00:50:03Z</time>
      </trkpt>
      <trkpt lat="-16.71438" lon="-151.03434">
        <ele>15.03772</ele>
        <time>2012-05-11T00:50:16Z</time>
      </trkpt>
      <trkpt lat="-16.71442" lon="-151.03432">
        <ele>15.03772</ele>
        <time>2012-05-11T00:51:00Z</time>
      </trkpt>
      <trkpt lat="-16.71442" lon="-151.03434">
        <ele>14.076416</ele>
        <time>2012-05-11T00:51:36Z</time>
      </trkpt>
      <trkpt lat="-16.71439" lon="-151.03437">
        <ele>15.518433</ele>
        <time>2012-05-11T00:52:10Z</time>
      </trkpt>
      <trkpt lat="-16.71434" lon="-151.03439">
        <ele>15.999023</ele>
        <time>2012-05-11T00:52:37Z</time>
      </trkpt>
      <trkpt lat="-16.71433" lon="-151.03439">
        <ele>15.999023</ele>
        <time>2012-05-11T00:53:31Z</time>
      </trkpt>
      <trkpt lat="-16.7144" lon="-151.03438">
        <ele>16.479736</ele>
        <time>2012-05-11T00:54:13Z</time>
      </trkpt>
      <trkpt lat="-16.71437" lon="-151.03436">
        <ele>15.999023</ele>
        <time>2012-05-11T00:54:28Z</time>
      </trkpt>
      <trkpt lat="-16.71443" lon="-151.03425">
        <ele>15.999023</ele>
        <time>2012-05-11T00:54:35Z</time>
      </trkpt>
      <trkpt lat="-16.71447" lon="-151.03416">
        <ele>15.518433</ele>
        <time>2012-05-11T00:54:40Z</time>
      </trkpt>
      <trkpt lat="-16.71445" lon="-151.03408">
        <ele>15.999023</ele>
        <time>2012-05-11T00:54:44Z</time>
      </trkpt>
      <trkpt lat="-16.71435" lon="-151.03396">
        <ele>15.999023</ele>
        <time>2012-05-11T00:54:58Z</time>
      </trkpt>
      <trkpt lat="-16.71422" lon="-151.03387">
        <ele>15.518433</ele>
        <time>2012-05-11T00:55:26Z</time>
      </trkpt>
      <trkpt lat="-16.71397" lon="-151.03409">
        <ele>15.518433</ele>
        <time>2012-05-11T00:55:35Z</time>
      </trkpt>
      <trkpt lat="-16.71385" lon="-151.03417">
        <ele>15.518433</ele>
        <time>2012-05-11T00:55:40Z</time>
      </trkpt>
      <trkpt lat="-16.71369" lon="-151.03409">
        <ele>15.518433</ele>
        <time>2012-05-11T00:55:49Z</time>
      </trkpt>
      <trkpt lat="-16.71372" lon="-151.03409">
        <ele>15.518433</ele>
        <time>2012-05-11T00:56:21Z</time>
      </trkpt>
      <trkpt lat="-16.71368" lon="-151.03423">
        <ele>13.595825</ele>
        <time>2012-05-11T00:58:42Z</time>
      </trkpt>
      <trkpt lat="-16.71369" lon="-151.03426">
        <ele>14.076416</ele>
        <time>2012-05-11T00:58:57Z</time>
      </trkpt>
      <trkpt lat="-16.71381" lon="-151.03423">
        <ele>15.03772</ele>
        <time>2012-05-11T00:59:02Z</time>
      </trkpt>
      <trkpt lat="-16.71435" lon="-151.0337">
        <ele>15.03772</ele>
        <time>2012-05-11T00:59:15Z</time>
      </trkpt>
      <trkpt lat="-16.71451" lon="-151.03355">
        <ele>16.479736</ele>
        <time>2012-05-11T00:59:18Z</time>
      </trkpt>
      <trkpt lat="-16.7153" lon="-151.03316">
        <ele>16.479736</ele>
        <time>2012-05-11T00:59:30Z</time>
      </trkpt>
      <trkpt lat="-16.7161" lon="-151.03331">
        <ele>16.479736</ele>
        <time>2012-05-11T00:59:40Z</time>
      </trkpt>
      <trkpt lat="-16.71672" lon="-151.03352">
        <ele>15.518433</ele>
        <time>2012-05-11T00:59:47Z</time>
      </trkpt>
      <trkpt lat="-16.71719" lon="-151.03356">
        <ele>15.518433</ele>
        <time>2012-05-11T00:59:52Z</time>
      </trkpt>
      <trkpt lat="-16.71797" lon="-151.03363">
        <ele>17.441162</ele>
        <time>2012-05-11T01:00:00Z</time>
      </trkpt>
      <trkpt lat="-16.71836" lon="-151.03355">
        <ele>17.441162</ele>
        <time>2012-05-11T01:00:04Z</time>
      </trkpt>
      <trkpt lat="-16.71938" lon="-151.03294">
        <ele>16.960449</ele>
        <time>2012-05-11T01:00:16Z</time>
      </trkpt>
      <trkpt lat="-16.72038" lon="-151.03243">
        <ele>17.921753</ele>
        <time>2012-05-11T01:00:27Z</time>
      </trkpt>
      <trkpt lat="-16.72046" lon="-151.03237">
        <ele>17.441162</ele>
        <time>2012-05-11T01:00:28Z</time>
      </trkpt>
      <trkpt lat="-16.72079" lon="-151.03196">
        <ele>17.921753</ele>
        <time>2012-05-11T01:00:33Z</time>
      </trkpt>
      <trkpt lat="-16.721" lon="-151.03156">
        <ele>19.84436</ele>
        <time>2012-05-11T01:00:37Z</time>
      </trkpt>
      <trkpt lat="-16.7211" lon="-151.03138">
        <ele>17.921753</ele>
        <time>2012-05-11T01:00:39Z</time>
      </trkpt>
      <trkpt lat="-16.72118" lon="-151.03121">
        <ele>17.441162</ele>
        <time>2012-05-11T01:00:41Z</time>
      </trkpt>
      <trkpt lat="-16.72157" lon="-151.03105">
        <ele>17.921753</ele>
        <time>2012-05-11T01:00:47Z</time>
      </trkpt>
      <trkpt lat="-16.72173" lon="-151.03114">
        <ele>16.960449</ele>
        <time>2012-05-11T01:00:49Z</time>
      </trkpt>
      <trkpt lat="-16.72206" lon="-151.03136">
        <ele>17.921753</ele>
        <time>2012-05-11T01:00:53Z</time>
      </trkpt>
      <trkpt lat="-16.72259" lon="-151.03192">
        <ele>16.960449</ele>
        <time>2012-05-11T01:01:01Z</time>
      </trkpt>
      <trkpt lat="-16.72267" lon="-151.03233">
        <ele>15.03772</ele>
        <time>2012-05-11T01:01:06Z</time>
      </trkpt>
      <trkpt lat="-16.72265" lon="-151.03248">
        <ele>14.557007</ele>
        <time>2012-05-11T01:01:08Z</time>
      </trkpt>
      <trkpt lat="-16.72257" lon="-151.03275">
        <ele>15.518433</ele>
        <time>2012-05-11T01:01:12Z</time>
      </trkpt>
      <trkpt lat="-16.72213" lon="-151.03379">
        <ele>15.03772</ele>
        <time>2012-05-11T01:01:27Z</time>
      </trkpt>
      <trkpt lat="-16.72183" lon="-151.03464">
        <ele>16.960449</ele>
        <time>2012-05-11T01:01:37Z</time>
      </trkpt>
      <trkpt lat="-16.72183" lon="-151.03598">
        <ele>15.518433</ele>
        <time>2012-05-11T01:01:50Z</time>
      </trkpt>
      <trkpt lat="-16.72185" lon="-151.0365">
        <ele>15.999023</ele>
        <time>2012-05-11T01:01:56Z</time>
      </trkpt>
      <trkpt lat="-16.72204" lon="-151.03674">
        <ele>16.479736</ele>
        <time>2012-05-11T01:02:00Z</time>
      </trkpt>
      <trkpt lat="-16.723" lon="-151.03714">
        <ele>16.479736</ele>
        <time>2012-05-11T01:02:11Z</time>
      </trkpt>
      <trkpt lat="-16.72346" lon="-151.03711">
        <ele>16.960449</ele>
        <time>2012-05-11T01:02:16Z</time>
      </trkpt>
      <trkpt lat="-16.72476" lon="-151.03687">
        <ele>16.479736</ele>
        <time>2012-05-11T01:02:30Z</time>
      </trkpt>
      <trkpt lat="-16.7258" lon="-151.03724">
        <ele>15.999023</ele>
        <time>2012-05-11T01:02:42Z</time>
      </trkpt>
      <trkpt lat="-16.72705" lon="-151.03774">
        <ele>16.960449</ele>
        <time>2012-05-11T01:02:56Z</time>
      </trkpt>
      <trkpt lat="-16.72833" lon="-151.03773">
        <ele>17.921753</ele>
        <time>2012-05-11T01:03:10Z</time>
      </trkpt>
      <trkpt lat="-16.7294" lon="-151.03723">
        <ele>18.402344</ele>
        <time>2012-05-11T01:03:22Z</time>
      </trkpt>
      <trkpt lat="-16.73027" lon="-151.03621">
        <ele>18.402344</ele>
        <time>2012-05-11T01:03:35Z</time>
      </trkpt>
      <trkpt lat="-16.73048" lon="-151.03587">
        <ele>16.479736</ele>
        <time>2012-05-11T01:03:39Z</time>
      </trkpt>
      <trkpt lat="-16.73058" lon="-151.03571">
        <ele>16.479736</ele>
        <time>2012-05-11T01:03:41Z</time>
      </trkpt>
      <trkpt lat="-16.73112" lon="-151.0354">
        <ele>17.441162</ele>
        <time>2012-05-11T01:03:48Z</time>
      </trkpt>
      <trkpt lat="-16.73239" lon="-151.03504">
        <ele>18.883057</ele>
        <time>2012-05-11T01:04:02Z</time>
      </trkpt>
      <trkpt lat="-16.73256" lon="-151.03496">
        <ele>18.883057</ele>
        <time>2012-05-11T01:04:04Z</time>
      </trkpt>
      <trkpt lat="-16.73343" lon="-151.0342">
        <ele>18.402344</ele>
        <time>2012-05-11T01:04:16Z</time>
      </trkpt>
      <trkpt lat="-16.73405" lon="-151.03322">
        <ele>15.518433</ele>
        <time>2012-05-11T01:04:28Z</time>
      </trkpt>
      <trkpt lat="-16.73433" lon="-151.03301">
        <ele>13.115112</ele>
        <time>2012-05-11T01:04:35Z</time>
      </trkpt>
      <trkpt lat="-16.73475" lon="-151.03284">
        <ele>12.634399</ele>
        <time>2012-05-11T01:04:49Z</time>
      </trkpt>
      <trkpt lat="-16.73493" lon="-151.03276">
        <ele>12.634399</ele>
        <time>2012-05-11T01:05:00Z</time>
      </trkpt>
      <trkpt lat="-16.7355" lon="-151.03252">
        <ele>14.076416</ele>
        <time>2012-05-11T01:05:11Z</time>
      </trkpt>
      <trkpt lat="-16.73563" lon="-151.03245">
        <ele>13.115112</ele>
        <time>2012-05-11T01:05:13Z</time>
      </trkpt>
      <trkpt lat="-16.736" lon="-151.03226">
        <ele>15.999023</ele>
        <time>2012-05-11T01:05:19Z</time>
      </trkpt>
      <trkpt lat="-16.73693" lon="-151.03141">
        <ele>16.479736</ele>
        <time>2012-05-11T01:05:33Z</time>
      </trkpt>
      <trkpt lat="-16.7374" lon="-151.03099">
        <ele>17.441162</ele>
        <time>2012-05-11T01:05:39Z</time>
      </trkpt>
      <trkpt lat="-16.73822" lon="-151.03022">
        <ele>18.402344</ele>
        <time>2012-05-11T01:05:50Z</time>
      </trkpt>
      <trkpt lat="-16.73908" lon="-151.02978">
        <ele>22.728271</ele>
        <time>2012-05-11T01:05:59Z</time>
      </trkpt>
      <trkpt lat="-16.7393" lon="-151.02972">
        <ele>23.689575</ele>
        <time>2012-05-11T01:06:01Z</time>
      </trkpt>
      <trkpt lat="-16.7405" lon="-151.02952">
        <ele>26.092896</ele>
        <time>2012-05-11T01:06:12Z</time>
      </trkpt>
      <trkpt lat="-16.74059" lon="-151.0295">
        <ele>26.092896</ele>
        <time>2012-05-11T01:06:13Z</time>
      </trkpt>
      <trkpt lat="-16.74103" lon="-151.02931">
        <ele>29.45752</ele>
        <time>2012-05-11T01:06:18Z</time>
      </trkpt>
      <trkpt lat="-16.74184" lon="-151.02844">
        <ele>28.496216</ele>
        <time>2012-05-11T01:06:29Z</time>
      </trkpt>
      <trkpt lat="-16.74269" lon="-151.0276">
        <ele>27.054321</ele>
        <time>2012-05-11T01:06:39Z</time>
      </trkpt>
      <trkpt lat="-16.74376" lon="-151.02663">
        <ele>26.092896</ele>
        <time>2012-05-11T01:06:51Z</time>
      </trkpt>
      <trkpt lat="-16.74417" lon="-151.02642">
        <ele>30.418823</ele>
        <time>2012-05-11T01:06:55Z</time>
      </trkpt>
      <trkpt lat="-16.74447" lon="-151.02629">
        <ele>33.783447</ele>
        <time>2012-05-11T01:06:58Z</time>
      </trkpt>
      <trkpt lat="-16.74469" lon="-151.02611">
        <ele>37.628662</ele>
        <time>2012-05-11T01:07:01Z</time>
      </trkpt>
      <trkpt lat="-16.74481" lon="-151.02597">
        <ele>40.032104</ele>
        <time>2012-05-11T01:07:03Z</time>
      </trkpt>
      <trkpt lat="-16.74511" lon="-151.02554">
        <ele>43.877319</ele>
        <time>2012-05-11T01:07:08Z</time>
      </trkpt>
      <trkpt lat="-16.74536" lon="-151.02511">
        <ele>48.203369</ele>
        <time>2012-05-11T01:07:12Z</time>
      </trkpt>
      <trkpt lat="-16.74553" lon="-151.0248">
        <ele>52.048584</ele>
        <time>2012-05-11T01:07:15Z</time>
      </trkpt>
      <trkpt lat="-16.74571" lon="-151.02443">
        <ele>55.413086</ele>
        <time>2012-05-11T01:07:19Z</time>
      </trkpt>
      <trkpt lat="-16.74587" lon="-151.02409">
        <ele>57.816528</ele>
        <time>2012-05-11T01:07:23Z</time>
      </trkpt>
      <trkpt lat="-16.74607" lon="-151.02376">
        <ele>60.219727</ele>
        <time>2012-05-11T01:07:27Z</time>
      </trkpt>
      <trkpt lat="-16.74629" lon="-151.02351">
        <ele>61.661743</ele>
        <time>2012-05-11T01:07:30Z</time>
      </trkpt>
      <trkpt lat="-16.74663" lon="-151.02308">
        <ele>61.661743</ele>
        <time>2012-05-11T01:07:35Z</time>
      </trkpt>
      <trkpt lat="-16.74705" lon="-151.02269">
        <ele>57.816528</ele>
        <time>2012-05-11T01:07:40Z</time>
      </trkpt>
      <trkpt lat="-16.74724" lon="-151.02253">
        <ele>56.374512</ele>
        <time>2012-05-11T01:07:42Z</time>
      </trkpt>
      <trkpt lat="-16.74745" lon="-151.02215">
        <ele>54.932373</ele>
        <time>2012-05-11T01:07:46Z</time>
      </trkpt>
      <trkpt lat="-16.74765" lon="-151.02169">
        <ele>52.048584</ele>
        <time>2012-05-11T01:07:50Z</time>
      </trkpt>
      <trkpt lat="-16.74778" lon="-151.02144">
        <ele>50.606567</ele>
        <time>2012-05-11T01:07:52Z</time>
      </trkpt>
      <trkpt lat="-16.74792" lon="-151.02122">
        <ele>48.68396</ele>
        <time>2012-05-11T01:07:54Z</time>
      </trkpt>
      <trkpt lat="-16.74832" lon="-151.02086">
        <ele>44.838623</ele>
        <time>2012-05-11T01:07:58Z</time>
      </trkpt>
      <trkpt lat="-16.74845" lon="-151.02081">
        <ele>44.358032</ele>
        <time>2012-05-11T01:07:59Z</time>
      </trkpt>
      <trkpt lat="-16.74911" lon="-151.02089">
        <ele>43.396606</ele>
        <time>2012-05-11T01:08:04Z</time>
      </trkpt>
      <trkpt lat="-16.74935" lon="-151.02101">
        <ele>44.358032</ele>
        <time>2012-05-11T01:08:06Z</time>
      </trkpt>
      <trkpt lat="-16.74977" lon="-151.02127">
        <ele>46.76123</ele>
        <time>2012-05-11T01:08:10Z</time>
      </trkpt>
      <trkpt lat="-16.75003" lon="-151.02158">
        <ele>50.606567</ele>
        <time>2012-05-11T01:08:14Z</time>
      </trkpt>
      <trkpt lat="-16.75022" lon="-151.02178">
        <ele>55.893799</ele>
        <time>2012-05-11T01:08:17Z</time>
      </trkpt>
      <trkpt lat="-16.75038" lon="-151.02186">
        <ele>57.335815</ele>
        <time>2012-05-11T01:08:19Z</time>
      </trkpt>
      <trkpt lat="-16.75066" lon="-151.02193">
        <ele>57.816528</ele>
        <time>2012-05-11T01:08:22Z</time>
      </trkpt>
      <trkpt lat="-16.75101" lon="-151.02179">
        <ele>57.816528</ele>
        <time>2012-05-11T01:08:27Z</time>
      </trkpt>
      <trkpt lat="-16.75112" lon="-151.02163">
        <ele>58.77771</ele>
        <time>2012-05-11T01:08:29Z</time>
      </trkpt>
      <trkpt lat="-16.75138" lon="-151.02123">
        <ele>54.932373</ele>
        <time>2012-05-11T01:08:34Z</time>
      </trkpt>
      <trkpt lat="-16.75184" lon="-151.02089">
        <ele>53.490479</ele>
        <time>2012-05-11T01:08:40Z</time>
      </trkpt>
      <trkpt lat="-16.75204" lon="-151.02084">
        <ele>52.048584</ele>
        <time>2012-05-11T01:08:42Z</time>
      </trkpt>
      <trkpt lat="-16.75223" lon="-151.02078">
        <ele>51.087158</ele>
        <time>2012-05-11T01:08:44Z</time>
      </trkpt>
      <trkpt lat="-16.75267" lon="-151.02048">
        <ele>45.799927</ele>
        <time>2012-05-11T01:08:49Z</time>
      </trkpt>
      <trkpt lat="-16.75299" lon="-151.02008">
        <ele>42.435425</ele>
        <time>2012-05-11T01:08:53Z</time>
      </trkpt>
      <trkpt lat="-16.7532" lon="-151.01978">
        <ele>40.032104</ele>
        <time>2012-05-11T01:08:56Z</time>
      </trkpt>
      <trkpt lat="-16.75334" lon="-151.01945">
        <ele>34.744873</ele>
        <time>2012-05-11T01:08:59Z</time>
      </trkpt>
      <trkpt lat="-16.75336" lon="-151.01919">
        <ele>32.822266</ele>
        <time>2012-05-11T01:09:01Z</time>
      </trkpt>
      <trkpt lat="-16.75336" lon="-151.01851">
        <ele>31.860718</ele>
        <time>2012-05-11T01:09:06Z</time>
      </trkpt>
      <trkpt lat="-16.75338" lon="-151.01811">
        <ele>28.496216</ele>
        <time>2012-05-11T01:09:09Z</time>
      </trkpt>
      <trkpt lat="-16.75338" lon="-151.01798">
        <ele>28.496216</ele>
        <time>2012-05-11T01:09:10Z</time>
      </trkpt>
      <trkpt lat="-16.75366" lon="-151.01657">
        <ele>26.573608</ele>
        <time>2012-05-11T01:09:22Z</time>
      </trkpt>
      <trkpt lat="-16.75421" lon="-151.01559">
        <ele>23.689575</ele>
        <time>2012-05-11T01:09:32Z</time>
      </trkpt>
      <trkpt lat="-16.75428" lon="-151.0155">
        <ele>23.689575</ele>
        <time>2012-05-11T01:09:33Z</time>
      </trkpt>
      <trkpt lat="-16.7545" lon="-151.01524">
        <ele>22.247559</ele>
        <time>2012-05-11T01:09:36Z</time>
      </trkpt>
      <trkpt lat="-16.75517" lon="-151.01454">
        <ele>20.324951</ele>
        <time>2012-05-11T01:09:44Z</time>
      </trkpt>
      <trkpt lat="-16.75534" lon="-151.01438">
        <ele>19.84436</ele>
        <time>2012-05-11T01:09:46Z</time>
      </trkpt>
      <trkpt lat="-16.75608" lon="-151.01402">
        <ele>23.208984</ele>
        <time>2012-05-11T01:09:53Z</time>
      </trkpt>
      <trkpt lat="-16.75629" lon="-151.01396">
        <ele>23.689575</ele>
        <time>2012-05-11T01:09:55Z</time>
      </trkpt>
      <trkpt lat="-16.75667" lon="-151.01375">
        <ele>23.208984</ele>
        <time>2012-05-11T01:09:59Z</time>
      </trkpt>
      <trkpt lat="-16.75777" lon="-151.01311">
        <ele>23.689575</ele>
        <time>2012-05-11T01:10:10Z</time>
      </trkpt>
      <trkpt lat="-16.75891" lon="-151.01244">
        <ele>22.247559</ele>
        <time>2012-05-11T01:10:21Z</time>
      </trkpt>
      <trkpt lat="-16.76008" lon="-151.01181">
        <ele>21.766968</ele>
        <time>2012-05-11T01:10:32Z</time>
      </trkpt>
      <trkpt lat="-16.76117" lon="-151.01159">
        <ele>18.402344</ele>
        <time>2012-05-11T01:10:42Z</time>
      </trkpt>
      <trkpt lat="-16.76128" lon="-151.01157">
        <ele>18.402344</ele>
        <time>2012-05-11T01:10:43Z</time>
      </trkpt>
      <trkpt lat="-16.76151" lon="-151.01154">
        <ele>16.960449</ele>
        <time>2012-05-11T01:10:45Z</time>
      </trkpt>
      <trkpt lat="-16.76263" lon="-151.01138">
        <ele>17.921753</ele>
        <time>2012-05-11T01:10:57Z</time>
      </trkpt>
      <trkpt lat="-16.76339" lon="-151.01102">
        <ele>16.479736</ele>
        <time>2012-05-11T01:11:07Z</time>
      </trkpt>
      <trkpt lat="-16.76371" lon="-151.0109">
        <ele>14.557007</ele>
        <time>2012-05-11T01:11:11Z</time>
      </trkpt>
      <trkpt lat="-16.76483" lon="-151.01054">
        <ele>14.557007</ele>
        <time>2012-05-11T01:11:24Z</time>
      </trkpt>
      <trkpt lat="-16.76657" lon="-151.01001">
        <ele>16.479736</ele>
        <time>2012-05-11T01:11:41Z</time>
      </trkpt>
      <trkpt lat="-16.76677" lon="-151.00997">
        <ele>15.999023</ele>
        <time>2012-05-11T01:11:43Z</time>
      </trkpt>
      <trkpt lat="-16.76721" lon="-151.01001">
        <ele>15.999023</ele>
        <time>2012-05-11T01:11:48Z</time>
      </trkpt>
      <trkpt lat="-16.76756" lon="-151.00982">
        <ele>16.960449</ele>
        <time>2012-05-11T01:11:54Z</time>
      </trkpt>
      <trkpt lat="-16.768" lon="-151.00906">
        <ele>16.960449</ele>
        <time>2012-05-11T01:12:07Z</time>
      </trkpt>
      <trkpt lat="-16.76804" lon="-151.009">
        <ele>16.960449</ele>
        <time>2012-05-11T01:12:08Z</time>
      </trkpt>
      <trkpt lat="-16.76832" lon="-151.00884">
        <ele>15.999023</ele>
        <time>2012-05-11T01:12:13Z</time>
      </trkpt>
      <trkpt lat="-16.76896" lon="-151.00888">
        <ele>17.441162</ele>
        <time>2012-05-11T01:12:20Z</time>
      </trkpt>
      <trkpt lat="-16.76958" lon="-151.00932">
        <ele>17.921753</ele>
        <time>2012-05-11T01:12:28Z</time>
      </trkpt>
      <trkpt lat="-16.7696" lon="-151.00963">
        <ele>21.286377</ele>
        <time>2012-05-11T01:12:31Z</time>
      </trkpt>
      <trkpt lat="-16.76959" lon="-151.00997">
        <ele>23.208984</ele>
        <time>2012-05-11T01:12:34Z</time>
      </trkpt>
      <trkpt lat="-16.76992" lon="-151.01037">
        <ele>25.612305</ele>
        <time>2012-05-11T01:12:40Z</time>
      </trkpt>
      <trkpt lat="-16.77016" lon="-151.01021">
        <ele>28.496216</ele>
        <time>2012-05-11T01:12:43Z</time>
      </trkpt>
      <trkpt lat="-16.77038" lon="-151.01">
        <ele>30.899536</ele>
        <time>2012-05-11T01:12:46Z</time>
      </trkpt>
      <trkpt lat="-16.77053" lon="-151.00988">
        <ele>31.380127</ele>
        <time>2012-05-11T01:12:48Z</time>
      </trkpt>
      <trkpt lat="-16.77113" lon="-151.0099">
        <ele>35.225464</ele>
        <time>2012-05-11T01:12:55Z</time>
      </trkpt>
      <trkpt lat="-16.7717" lon="-151.00997">
        <ele>39.070679</ele>
        <time>2012-05-11T01:13:02Z</time>
      </trkpt>
      <trkpt lat="-16.77177" lon="-151.00991">
        <ele>39.55127</ele>
        <time>2012-05-11T01:13:03Z</time>
      </trkpt>
      <trkpt lat="-16.77191" lon="-151.00977">
        <ele>40.512817</ele>
        <time>2012-05-11T01:13:05Z</time>
      </trkpt>
      <trkpt lat="-16.77207" lon="-151.00966">
        <ele>41.954712</ele>
        <time>2012-05-11T01:13:07Z</time>
      </trkpt>
      <trkpt lat="-16.77232" lon="-151.00955">
        <ele>43.877319</ele>
        <time>2012-05-11T01:13:10Z</time>
      </trkpt>
      <trkpt lat="-16.77276" lon="-151.00899">
        <ele>47.241821</ele>
        <time>2012-05-11T01:13:17Z</time>
      </trkpt>
      <trkpt lat="-16.77303" lon="-151.00883">
        <ele>51.087158</ele>
        <time>2012-05-11T01:13:20Z</time>
      </trkpt>
      <trkpt lat="-16.77325" lon="-151.00878">
        <ele>54.451782</ele>
        <time>2012-05-11T01:13:22Z</time>
      </trkpt>
      <trkpt lat="-16.77357" lon="-151.00879">
        <ele>57.335815</ele>
        <time>2012-05-11T01:13:25Z</time>
      </trkpt>
      <trkpt lat="-16.77367" lon="-151.00882">
        <ele>57.816528</ele>
        <time>2012-05-11T01:13:26Z</time>
      </trkpt>
      <trkpt lat="-16.77377" lon="-151.00886">
        <ele>58.297119</ele>
        <time>2012-05-11T01:13:27Z</time>
      </trkpt>
      <trkpt lat="-16.77406" lon="-151.00898">
        <ele>62.142334</ele>
        <time>2012-05-11T01:13:30Z</time>
      </trkpt>
      <trkpt lat="-16.77431" lon="-151.00915">
        <ele>66.468262</ele>
        <time>2012-05-11T01:13:33Z</time>
      </trkpt>
      <trkpt lat="-16.77443" lon="-151.00932">
        <ele>67.429688</ele>
        <time>2012-05-11T01:13:35Z</time>
      </trkpt>
      <trkpt lat="-16.77479" lon="-151.00982">
        <ele>68.390869</ele>
        <time>2012-05-11T01:13:42Z</time>
      </trkpt>
      <trkpt lat="-16.77464" lon="-151.01023">
        <ele>71.755493</ele>
        <time>2012-05-11T01:13:46Z</time>
      </trkpt>
      <trkpt lat="-16.77477" lon="-151.01093">
        <ele>72.716919</ele>
        <time>2012-05-11T01:13:53Z</time>
      </trkpt>
      <trkpt lat="-16.77508" lon="-151.01103">
        <ele>74.158813</ele>
        <time>2012-05-11T01:13:56Z</time>
      </trkpt>
      <trkpt lat="-16.7754" lon="-151.01113">
        <ele>75.60083</ele>
        <time>2012-05-11T01:13:59Z</time>
      </trkpt>
      <trkpt lat="-16.77583" lon="-151.01141">
        <ele>75.60083</ele>
        <time>2012-05-11T01:14:04Z</time>
      </trkpt>
      <trkpt lat="-16.77611" lon="-151.01155">
        <ele>74.639526</ele>
        <time>2012-05-11T01:14:07Z</time>
      </trkpt>
      <trkpt lat="-16.77648" lon="-151.01199">
        <ele>74.158813</ele>
        <time>2012-05-11T01:14:13Z</time>
      </trkpt>
      <trkpt lat="-16.77689" lon="-151.01251">
        <ele>74.158813</ele>
        <time>2012-05-11T01:14:20Z</time>
      </trkpt>
      <trkpt lat="-16.77764" lon="-151.01285">
        <ele>73.197632</ele>
        <time>2012-05-11T01:14:28Z</time>
      </trkpt>
      <trkpt lat="-16.77805" lon="-151.01287">
        <ele>70.313477</ele>
        <time>2012-05-11T01:14:32Z</time>
      </trkpt>
      <trkpt lat="-16.77823" lon="-151.01277">
        <ele>68.390869</ele>
        <time>2012-05-11T01:14:34Z</time>
      </trkpt>
      <trkpt lat="-16.7784" lon="-151.01263">
        <ele>69.352295</ele>
        <time>2012-05-11T01:14:36Z</time>
      </trkpt>
      <trkpt lat="-16.77868" lon="-151.0125">
        <ele>66.948975</ele>
        <time>2012-05-11T01:14:39Z</time>
      </trkpt>
      <trkpt lat="-16.77886" lon="-151.01252">
        <ele>63.584351</ele>
        <time>2012-05-11T01:14:41Z</time>
      </trkpt>
      <trkpt lat="-16.7791" lon="-151.01274">
        <ele>61.661743</ele>
        <time>2012-05-11T01:14:44Z</time>
      </trkpt>
      <trkpt lat="-16.77951" lon="-151.01317">
        <ele>57.816528</ele>
        <time>2012-05-11T01:14:49Z</time>
      </trkpt>
      <trkpt lat="-16.77959" lon="-151.01325">
        <ele>57.816528</ele>
        <time>2012-05-11T01:14:50Z</time>
      </trkpt>
      <trkpt lat="-16.77968" lon="-151.01333">
        <ele>57.816528</ele>
        <time>2012-05-11T01:14:51Z</time>
      </trkpt>
      <trkpt lat="-16.78035" lon="-151.01324">
        <ele>55.413086</ele>
        <time>2012-05-11T01:14:58Z</time>
      </trkpt>
      <trkpt lat="-16.78051" lon="-151.01306">
        <ele>53.971191</ele>
        <time>2012-05-11T01:15:00Z</time>
      </trkpt>
      <trkpt lat="-16.78089" lon="-151.01289">
        <ele>50.606567</ele>
        <time>2012-05-11T01:15:04Z</time>
      </trkpt>
      <trkpt lat="-16.78131" lon="-151.01308">
        <ele>52.048584</ele>
        <time>2012-05-11T01:15:08Z</time>
      </trkpt>
      <trkpt lat="-16.7821" lon="-151.0135">
        <ele>48.68396</ele>
        <time>2012-05-11T01:15:15Z</time>
      </trkpt>
      <trkpt lat="-16.78232" lon="-151.01361">
        <ele>47.722534</ele>
        <time>2012-05-11T01:15:17Z</time>
      </trkpt>
      <trkpt lat="-16.78255" lon="-151.01369">
        <ele>47.241821</ele>
        <time>2012-05-11T01:15:19Z</time>
      </trkpt>
      <trkpt lat="-16.78347" lon="-151.01366">
        <ele>46.28064</ele>
        <time>2012-05-11T01:15:27Z</time>
      </trkpt>
      <trkpt lat="-16.7837" lon="-151.01358">
        <ele>44.838623</ele>
        <time>2012-05-11T01:15:29Z</time>
      </trkpt>
      <trkpt lat="-16.78402" lon="-151.01348">
        <ele>43.396606</ele>
        <time>2012-05-11T01:15:32Z</time>
      </trkpt>
      <trkpt lat="-16.78425" lon="-151.01344">
        <ele>41.473999</ele>
        <time>2012-05-11T01:15:34Z</time>
      </trkpt>
      <trkpt lat="-16.78467" lon="-151.01325">
        <ele>40.512817</ele>
        <time>2012-05-11T01:15:38Z</time>
      </trkpt>
      <trkpt lat="-16.78528" lon="-151.01255">
        <ele>35.706055</ele>
        <time>2012-05-11T01:15:45Z</time>
      </trkpt>
      <trkpt lat="-16.78548" lon="-151.01226">
        <ele>32.341553</ele>
        <time>2012-05-11T01:15:48Z</time>
      </trkpt>
      <trkpt lat="-16.78559" lon="-151.0121">
        <ele>30.899536</ele>
        <time>2012-05-11T01:15:50Z</time>
      </trkpt>
      <trkpt lat="-16.78565" lon="-151.01202">
        <ele>30.899536</ele>
        <time>2012-05-11T01:15:51Z</time>
      </trkpt>
      <trkpt lat="-16.78595" lon="-151.01178">
        <ele>28.015503</ele>
        <time>2012-05-11T01:15:55Z</time>
      </trkpt>
      <trkpt lat="-16.78614" lon="-151.01169">
        <ele>26.092896</ele>
        <time>2012-05-11T01:15:57Z</time>
      </trkpt>
      <trkpt lat="-16.7867" lon="-151.01133">
        <ele>22.728271</ele>
        <time>2012-05-11T01:16:03Z</time>
      </trkpt>
      <trkpt lat="-16.78712" lon="-151.01102">
        <ele>19.36377</ele>
        <time>2012-05-11T01:16:08Z</time>
      </trkpt>
      <trkpt lat="-16.78737" lon="-151.01069">
        <ele>17.921753</ele>
        <time>2012-05-11T01:16:12Z</time>
      </trkpt>
      <trkpt lat="-16.78743" lon="-151.01062">
        <ele>16.960449</ele>
        <time>2012-05-11T01:16:13Z</time>
      </trkpt>
      <trkpt lat="-16.78774" lon="-151.01046">
        <ele>15.518433</ele>
        <time>2012-05-11T01:16:17Z</time>
      </trkpt>
      <trkpt lat="-16.78815" lon="-151.01037">
        <ele>13.115112</ele>
        <time>2012-05-11T01:16:26Z</time>
      </trkpt>
      <trkpt lat="-16.78819" lon="-151.01034">
        <ele>13.115112</ele>
        <time>2012-05-11T01:16:29Z</time>
      </trkpt>
      <trkpt lat="-16.78818" lon="-151.01031">
        <ele>13.115112</ele>
        <time>2012-05-11T01:16:39Z</time>
      </trkpt>
      <trkpt lat="-16.78801" lon="-151.01041">
        <ele>13.115112</ele>
        <time>2012-05-11T01:16:50Z</time>
      </trkpt>
      <trkpt lat="-16.78758" lon="-151.01052">
        <ele>13.595825</ele>
        <time>2012-05-11T01:16:58Z</time>
      </trkpt>
      <trkpt lat="-16.78721" lon="-151.01086">
        <ele>15.03772</ele>
        <time>2012-05-11T01:17:04Z</time>
      </trkpt>
      <trkpt lat="-16.78707" lon="-151.01107">
        <ele>16.479736</ele>
        <time>2012-05-11T01:17:07Z</time>
      </trkpt>
      <trkpt lat="-16.7868" lon="-151.01128">
        <ele>17.441162</ele>
        <time>2012-05-11T01:17:11Z</time>
      </trkpt>
      <trkpt lat="-16.78664" lon="-151.01136">
        <ele>19.36377</ele>
        <time>2012-05-11T01:17:13Z</time>
      </trkpt>
      <trkpt lat="-16.78635" lon="-151.01158">
        <ele>22.247559</ele>
        <time>2012-05-11T01:17:17Z</time>
      </trkpt>
      <trkpt lat="-16.78583" lon="-151.01182">
        <ele>25.612305</ele>
        <time>2012-05-11T01:17:23Z</time>
      </trkpt>
      <trkpt lat="-16.7854" lon="-151.01184">
        <ele>26.092896</ele>
        <time>2012-05-11T01:17:30Z</time>
      </trkpt>
      <trkpt lat="-16.78523" lon="-151.01183">
        <ele>26.573608</ele>
        <time>2012-05-11T01:17:37Z</time>
      </trkpt>
      <trkpt lat="-16.7851" lon="-151.01183">
        <ele>27.054321</ele>
        <time>2012-05-11T01:17:39Z</time>
      </trkpt>
      <trkpt lat="-16.7846" lon="-151.01221">
        <ele>25.612305</ele>
        <time>2012-05-11T01:17:47Z</time>
      </trkpt>
      <trkpt lat="-16.78445" lon="-151.01252">
        <ele>23.689575</ele>
        <time>2012-05-11T01:17:51Z</time>
      </trkpt>
      <trkpt lat="-16.78431" lon="-151.01264">
        <ele>22.247559</ele>
        <time>2012-05-11T01:17:53Z</time>
      </trkpt>
      <trkpt lat="-16.78402" lon="-151.01273">
        <ele>20.805664</ele>
        <time>2012-05-11T01:17:56Z</time>
      </trkpt>
      <trkpt lat="-16.78286" lon="-151.01256">
        <ele>17.921753</ele>
        <time>2012-05-11T01:18:07Z</time>
      </trkpt>
      <trkpt lat="-16.78197" lon="-151.01245">
        <ele>19.36377</ele>
        <time>2012-05-11T01:18:15Z</time>
      </trkpt>
      <trkpt lat="-16.78176" lon="-151.01243">
        <ele>19.36377</ele>
        <time>2012-05-11T01:18:17Z</time>
      </trkpt>
      <trkpt lat="-16.78139" lon="-151.01225">
        <ele>20.324951</ele>
        <time>2012-05-11T01:18:21Z</time>
      </trkpt>
      <trkpt lat="-16.78045" lon="-151.01164">
        <ele>21.766968</ele>
        <time>2012-05-11T01:18:31Z</time>
      </trkpt>
      <trkpt lat="-16.78014" lon="-151.01113">
        <ele>19.36377</ele>
        <time>2012-05-11T01:18:36Z</time>
      </trkpt>
      <trkpt lat="-16.78001" lon="-151.01093">
        <ele>18.883057</ele>
        <time>2012-05-11T01:18:38Z</time>
      </trkpt>
      <trkpt lat="-16.77963" lon="-151.01052">
        <ele>18.402344</ele>
        <time>2012-05-11T01:18:43Z</time>
      </trkpt>
      <trkpt lat="-16.77927" lon="-151.0104">
        <ele>18.883057</ele>
        <time>2012-05-11T01:18:47Z</time>
      </trkpt>
      <trkpt lat="-16.77872" lon="-151.01">
        <ele>19.36377</ele>
        <time>2012-05-11T01:18:55Z</time>
      </trkpt>
      <trkpt lat="-16.77875" lon="-151.00959">
        <ele>20.324951</ele>
        <time>2012-05-11T01:18:59Z</time>
      </trkpt>
      <trkpt lat="-16.77892" lon="-151.00902">
        <ele>21.286377</ele>
        <time>2012-05-11T01:19:04Z</time>
      </trkpt>
      <trkpt lat="-16.77898" lon="-151.00844">
        <ele>20.805664</ele>
        <time>2012-05-11T01:19:09Z</time>
      </trkpt>
      <trkpt lat="-16.7793" lon="-151.0079">
        <ele>19.84436</ele>
        <time>2012-05-11T01:19:15Z</time>
      </trkpt>
      <trkpt lat="-16.77947" lon="-151.00779">
        <ele>19.36377</ele>
        <time>2012-05-11T01:19:17Z</time>
      </trkpt>
      <trkpt lat="-16.7798" lon="-151.00727">
        <ele>20.324951</ele>
        <time>2012-05-11T01:19:23Z</time>
      </trkpt>
      <trkpt lat="-16.78004" lon="-151.00585">
        <ele>21.286377</ele>
        <time>2012-05-11T01:19:35Z</time>
      </trkpt>
      <trkpt lat="-16.78038" lon="-151.00525">
        <ele>22.728271</ele>
        <time>2012-05-11T01:19:41Z</time>
      </trkpt>
      <trkpt lat="-16.78087" lon="-151.00473">
        <ele>26.573608</ele>
        <time>2012-05-11T01:19:47Z</time>
      </trkpt>
      <trkpt lat="-16.78152" lon="-151.00396">
        <ele>25.131714</ele>
        <time>2012-05-11T01:19:56Z</time>
      </trkpt>
      <trkpt lat="-16.7816" lon="-151.00387">
        <ele>25.131714</ele>
        <time>2012-05-11T01:19:57Z</time>
      </trkpt>
      <trkpt lat="-16.78221" lon="-151.00318">
        <ele>23.689575</ele>
        <time>2012-05-11T01:20:05Z</time>
      </trkpt>
      <trkpt lat="-16.78254" lon="-151.00296">
        <ele>24.170288</ele>
        <time>2012-05-11T01:20:09Z</time>
      </trkpt>
      <trkpt lat="-16.78288" lon="-151.00244">
        <ele>23.689575</ele>
        <time>2012-05-11T01:20:16Z</time>
      </trkpt>
      <trkpt lat="-16.78287" lon="-151.00223">
        <ele>23.208984</ele>
        <time>2012-05-11T01:20:18Z</time>
      </trkpt>
      <trkpt lat="-16.78281" lon="-151.00195">
        <ele>21.766968</ele>
        <time>2012-05-11T01:20:21Z</time>
      </trkpt>
      <trkpt lat="-16.78307" lon="-151.00153">
        <ele>20.805664</ele>
        <time>2012-05-11T01:20:27Z</time>
      </trkpt>
      <trkpt lat="-16.78353" lon="-151.00129">
        <ele>21.286377</ele>
        <time>2012-05-11T01:20:32Z</time>
      </trkpt>
      <trkpt lat="-16.78491" lon="-151.00102">
        <ele>19.36377</ele>
        <time>2012-05-11T01:20:45Z</time>
      </trkpt>
      <trkpt lat="-16.78553" lon="-151.00108">
        <ele>20.324951</ele>
        <time>2012-05-11T01:20:51Z</time>
      </trkpt>
      <trkpt lat="-16.78624" lon="-151.00073">
        <ele>19.84436</ele>
        <time>2012-05-11T01:20:59Z</time>
      </trkpt>
      <trkpt lat="-16.78725" lon="-150.99966">
        <ele>21.286377</ele>
        <time>2012-05-11T01:21:12Z</time>
      </trkpt>
      <trkpt lat="-16.78733" lon="-150.99959">
        <ele>20.805664</ele>
        <time>2012-05-11T01:21:13Z</time>
      </trkpt>
      <trkpt lat="-16.78793" lon="-150.99959">
        <ele>20.324951</ele>
        <time>2012-05-11T01:21:19Z</time>
      </trkpt>
      <trkpt lat="-16.7881" lon="-150.99973">
        <ele>20.324951</ele>
        <time>2012-05-11T01:21:21Z</time>
      </trkpt>
      <trkpt lat="-16.78908" lon="-151.00036">
        <ele>19.84436</ele>
        <time>2012-05-11T01:21:31Z</time>
      </trkpt>
      <trkpt lat="-16.78977" lon="-151.0007">
        <ele>19.84436</ele>
        <time>2012-05-11T01:21:38Z</time>
      </trkpt>
      <trkpt lat="-16.79004" lon="-151.00104">
        <ele>20.805664</ele>
        <time>2012-05-11T01:21:42Z</time>
      </trkpt>
      <trkpt lat="-16.79013" lon="-151.00126">
        <ele>21.286377</ele>
        <time>2012-05-11T01:21:44Z</time>
      </trkpt>
      <trkpt lat="-16.79029" lon="-151.00159">
        <ele>20.805664</ele>
        <time>2012-05-11T01:21:47Z</time>
      </trkpt>
      <trkpt lat="-16.79045" lon="-151.00241">
        <ele>17.441162</ele>
        <time>2012-05-11T01:21:54Z</time>
      </trkpt>
      <trkpt lat="-16.79068" lon="-151.00283">
        <ele>17.921753</ele>
        <time>2012-05-11T01:21:58Z</time>
      </trkpt>
      <trkpt lat="-16.79101" lon="-151.00318">
        <ele>17.441162</ele>
        <time>2012-05-11T01:22:02Z</time>
      </trkpt>
      <trkpt lat="-16.79198" lon="-151.00357">
        <ele>17.441162</ele>
        <time>2012-05-11T01:22:11Z</time>
      </trkpt>
      <trkpt lat="-16.79329" lon="-151.0041">
        <ele>19.84436</ele>
        <time>2012-05-11T01:22:23Z</time>
      </trkpt>
      <trkpt lat="-16.79355" lon="-151.00428">
        <ele>21.766968</ele>
        <time>2012-05-11T01:22:26Z</time>
      </trkpt>
      <trkpt lat="-16.79415" lon="-151.00473">
        <ele>21.766968</ele>
        <time>2012-05-11T01:22:33Z</time>
      </trkpt>
      <trkpt lat="-16.79429" lon="-151.00492">
        <ele>20.324951</ele>
        <time>2012-05-11T01:22:35Z</time>
      </trkpt>
      <trkpt lat="-16.79439" lon="-151.00516">
        <ele>18.402344</ele>
        <time>2012-05-11T01:22:37Z</time>
      </trkpt>
      <trkpt lat="-16.79446" lon="-151.00541">
        <ele>17.441162</ele>
        <time>2012-05-11T01:22:39Z</time>
      </trkpt>
      <trkpt lat="-16.79475" lon="-151.00585">
        <ele>16.479736</ele>
        <time>2012-05-11T01:22:43Z</time>
      </trkpt>
      <trkpt lat="-16.79493" lon="-151.00605">
        <ele>17.921753</ele>
        <time>2012-05-11T01:22:45Z</time>
      </trkpt>
      <trkpt lat="-16.79526" lon="-151.00644">
        <ele>16.960449</ele>
        <time>2012-05-11T01:22:49Z</time>
      </trkpt>
      <trkpt lat="-16.7954" lon="-151.00664">
        <ele>15.999023</ele>
        <time>2012-05-11T01:22:51Z</time>
      </trkpt>
      <trkpt lat="-16.79574" lon="-151.00767">
        <ele>15.999023</ele>
        <time>2012-05-11T01:23:00Z</time>
      </trkpt>
      <trkpt lat="-16.79578" lon="-151.00778">
        <ele>16.479736</ele>
        <time>2012-05-11T01:23:01Z</time>
      </trkpt>
      <trkpt lat="-16.7963" lon="-151.00875">
        <ele>16.960449</ele>
        <time>2012-05-11T01:23:10Z</time>
      </trkpt>
      <trkpt lat="-16.79645" lon="-151.00935">
        <ele>16.479736</ele>
        <time>2012-05-11T01:23:15Z</time>
      </trkpt>
      <trkpt lat="-16.79651" lon="-151.0097">
        <ele>15.518433</ele>
        <time>2012-05-11T01:23:18Z</time>
      </trkpt>
      <trkpt lat="-16.79697" lon="-151.01051">
        <ele>16.479736</ele>
        <time>2012-05-11T01:23:26Z</time>
      </trkpt>
      <trkpt lat="-16.79705" lon="-151.01074">
        <ele>15.999023</ele>
        <time>2012-05-11T01:23:28Z</time>
      </trkpt>
      <trkpt lat="-16.79722" lon="-151.01103">
        <ele>14.557007</ele>
        <time>2012-05-11T01:23:31Z</time>
      </trkpt>
      <trkpt lat="-16.79768" lon="-151.01114">
        <ele>14.076416</ele>
        <time>2012-05-11T01:23:36Z</time>
      </trkpt>
      <trkpt lat="-16.79803" lon="-151.01077">
        <ele>15.03772</ele>
        <time>2012-05-11T01:23:41Z</time>
      </trkpt>
      <trkpt lat="-16.79799" lon="-151.01053">
        <ele>15.03772</ele>
        <time>2012-05-11T01:23:43Z</time>
      </trkpt>
      <trkpt lat="-16.79794" lon="-151.0103">
        <ele>14.076416</ele>
        <time>2012-05-11T01:23:45Z</time>
      </trkpt>
      <trkpt lat="-16.79803" lon="-151.00976">
        <ele>14.076416</ele>
        <time>2012-05-11T01:23:50Z</time>
      </trkpt>
      <trkpt lat="-16.7984" lon="-151.0091">
        <ele>15.518433</ele>
        <time>2012-05-11T01:23:57Z</time>
      </trkpt>
      <trkpt lat="-16.79873" lon="-151.00882">
        <ele>14.557007</ele>
        <time>2012-05-11T01:24:01Z</time>
      </trkpt>
      <trkpt lat="-16.799" lon="-151.00848">
        <ele>16.479736</ele>
        <time>2012-05-11T01:24:05Z</time>
      </trkpt>
      <trkpt lat="-16.79985" lon="-151.0075">
        <ele>15.518433</ele>
        <time>2012-05-11T01:24:16Z</time>
      </trkpt>
      <trkpt lat="-16.80086" lon="-151.00675">
        <ele>16.479736</ele>
        <time>2012-05-11T01:24:27Z</time>
      </trkpt>
      <trkpt lat="-16.80177" lon="-151.00557">
        <ele>17.441162</ele>
        <time>2012-05-11T01:24:40Z</time>
      </trkpt>
      <trkpt lat="-16.80271" lon="-151.00482">
        <ele>15.518433</ele>
        <time>2012-05-11T01:24:50Z</time>
      </trkpt>
      <trkpt lat="-16.80366" lon="-151.00426">
        <ele>15.999023</ele>
        <time>2012-05-11T01:24:59Z</time>
      </trkpt>
      <trkpt lat="-16.8041" lon="-151.00417">
        <ele>15.03772</ele>
        <time>2012-05-11T01:25:03Z</time>
      </trkpt>
      <trkpt lat="-16.80431" lon="-151.00416">
        <ele>16.960449</ele>
        <time>2012-05-11T01:25:05Z</time>
      </trkpt>
      <trkpt lat="-16.80478" lon="-151.00392">
        <ele>15.03772</ele>
        <time>2012-05-11T01:25:10Z</time>
      </trkpt>
      <trkpt lat="-16.805" lon="-151.00334">
        <ele>15.03772</ele>
        <time>2012-05-11T01:25:16Z</time>
      </trkpt>
      <trkpt lat="-16.80499" lon="-151.003">
        <ele>15.03772</ele>
        <time>2012-05-11T01:25:19Z</time>
      </trkpt>
      <trkpt lat="-16.80519" lon="-151.00261">
        <ele>15.999023</ele>
        <time>2012-05-11T01:25:23Z</time>
      </trkpt>
      <trkpt lat="-16.80534" lon="-151.00241">
        <ele>16.960449</ele>
        <time>2012-05-11T01:25:25Z</time>
      </trkpt>
      <trkpt lat="-16.8056" lon="-151.00204">
        <ele>17.441162</ele>
        <time>2012-05-11T01:25:29Z</time>
      </trkpt>
      <trkpt lat="-16.80576" lon="-151.00189">
        <ele>15.03772</ele>
        <time>2012-05-11T01:25:31Z</time>
      </trkpt>
      <trkpt lat="-16.8057" lon="-151.00107">
        <ele>13.595825</ele>
        <time>2012-05-11T01:25:39Z</time>
      </trkpt>
      <trkpt lat="-16.80603" lon="-151.00053">
        <ele>15.518433</ele>
        <time>2012-05-11T01:25:46Z</time>
      </trkpt>
      <trkpt lat="-16.80636" lon="-151.00044">
        <ele>14.557007</ele>
        <time>2012-05-11T01:25:49Z</time>
      </trkpt>
      <trkpt lat="-16.8067" lon="-151.00041">
        <ele>15.518433</ele>
        <time>2012-05-11T01:25:52Z</time>
      </trkpt>
      <trkpt lat="-16.80744" lon="-151.00052">
        <ele>16.960449</ele>
        <time>2012-05-11T01:25:58Z</time>
      </trkpt>
      <trkpt lat="-16.80769" lon="-151.0006">
        <ele>17.441162</ele>
        <time>2012-05-11T01:26:00Z</time>
      </trkpt>
      <trkpt lat="-16.80861" lon="-151.00115">
        <ele>17.921753</ele>
        <time>2012-05-11T01:26:08Z</time>
      </trkpt>
      <trkpt lat="-16.80887" lon="-151.00121">
        <ele>19.36377</ele>
        <time>2012-05-11T01:26:11Z</time>
      </trkpt>
      <trkpt lat="-16.8092" lon="-151.00084">
        <ele>17.441162</ele>
        <time>2012-05-11T01:26:16Z</time>
      </trkpt>
      <trkpt lat="-16.80924" lon="-151.00073">
        <ele>16.479736</ele>
        <time>2012-05-11T01:26:17Z</time>
      </trkpt>
      <trkpt lat="-16.8094" lon="-151.00033">
        <ele>15.999023</ele>
        <time>2012-05-11T01:26:21Z</time>
      </trkpt>
      <trkpt lat="-16.80933" lon="-150.99982">
        <ele>15.03772</ele>
        <time>2012-05-11T01:26:26Z</time>
      </trkpt>
      <trkpt lat="-16.80907" lon="-150.99935">
        <ele>15.999023</ele>
        <time>2012-05-11T01:26:31Z</time>
      </trkpt>
      <trkpt lat="-16.80887" lon="-150.9991">
        <ele>13.595825</ele>
        <time>2012-05-11T01:26:34Z</time>
      </trkpt>
      <trkpt lat="-16.80832" lon="-150.99854">
        <ele>14.076416</ele>
        <time>2012-05-11T01:26:41Z</time>
      </trkpt>
      <trkpt lat="-16.80812" lon="-150.99813">
        <ele>14.557007</ele>
        <time>2012-05-11T01:26:45Z</time>
      </trkpt>
      <trkpt lat="-16.80788" lon="-150.99678">
        <ele>13.595825</ele>
        <time>2012-05-11T01:26:57Z</time>
      </trkpt>
      <trkpt lat="-16.8081" lon="-150.9962">
        <ele>16.479736</ele>
        <time>2012-05-11T01:27:03Z</time>
      </trkpt>
      <trkpt lat="-16.80816" lon="-150.99587">
        <ele>14.557007</ele>
        <time>2012-05-11T01:27:06Z</time>
      </trkpt>
      <trkpt lat="-16.80814" lon="-150.99564">
        <ele>14.557007</ele>
        <time>2012-05-11T01:27:08Z</time>
      </trkpt>
      <trkpt lat="-16.80797" lon="-150.99463">
        <ele>14.557007</ele>
        <time>2012-05-11T01:27:18Z</time>
      </trkpt>
      <trkpt lat="-16.80794" lon="-150.99441">
        <ele>13.595825</ele>
        <time>2012-05-11T01:27:20Z</time>
      </trkpt>
      <trkpt lat="-16.80798" lon="-150.99394">
        <ele>14.557007</ele>
        <time>2012-05-11T01:27:24Z</time>
      </trkpt>
      <trkpt lat="-16.80805" lon="-150.99369">
        <ele>15.999023</ele>
        <time>2012-05-11T01:27:26Z</time>
      </trkpt>
      <trkpt lat="-16.80879" lon="-150.99242">
        <ele>17.441162</ele>
        <time>2012-05-11T01:27:38Z</time>
      </trkpt>
      <trkpt lat="-16.8095" lon="-150.99102">
        <ele>17.921753</ele>
        <time>2012-05-11T01:27:50Z</time>
      </trkpt>
      <trkpt lat="-16.81036" lon="-150.9899">
        <ele>18.883057</ele>
        <time>2012-05-11T01:28:01Z</time>
      </trkpt>
      <trkpt lat="-16.81164" lon="-150.98901">
        <ele>15.999023</ele>
        <time>2012-05-11T01:28:13Z</time>
      </trkpt>
      <trkpt lat="-16.81272" lon="-150.98854">
        <ele>15.518433</ele>
        <time>2012-05-11T01:28:24Z</time>
      </trkpt>
      <trkpt lat="-16.81435" lon="-150.98824">
        <ele>17.921753</ele>
        <time>2012-05-11T01:28:39Z</time>
      </trkpt>
      <trkpt lat="-16.81585" lon="-150.98823">
        <ele>17.441162</ele>
        <time>2012-05-11T01:28:52Z</time>
      </trkpt>
      <trkpt lat="-16.81656" lon="-150.98813">
        <ele>17.441162</ele>
        <time>2012-05-11T01:28:58Z</time>
      </trkpt>
      <trkpt lat="-16.81755" lon="-150.98768">
        <ele>16.960449</ele>
        <time>2012-05-11T01:29:08Z</time>
      </trkpt>
      <trkpt lat="-16.81782" lon="-150.98749">
        <ele>15.518433</ele>
        <time>2012-05-11T01:29:11Z</time>
      </trkpt>
      <trkpt lat="-16.818" lon="-150.98733">
        <ele>16.479736</ele>
        <time>2012-05-11T01:29:13Z</time>
      </trkpt>
      <trkpt lat="-16.81865" lon="-150.98637">
        <ele>17.441162</ele>
        <time>2012-05-11T01:29:23Z</time>
      </trkpt>
      <trkpt lat="-16.81878" lon="-150.98565">
        <ele>20.324951</ele>
        <time>2012-05-11T01:29:29Z</time>
      </trkpt>
      <trkpt lat="-16.81884" lon="-150.98525">
        <ele>16.479736</ele>
        <time>2012-05-11T01:29:32Z</time>
      </trkpt>
      <trkpt lat="-16.81886" lon="-150.98499">
        <ele>15.518433</ele>
        <time>2012-05-11T01:29:34Z</time>
      </trkpt>
      <trkpt lat="-16.81898" lon="-150.98407">
        <ele>14.076416</ele>
        <time>2012-05-11T01:29:42Z</time>
      </trkpt>
      <trkpt lat="-16.81881" lon="-150.9836">
        <ele>12.153809</ele>
        <time>2012-05-11T01:29:49Z</time>
      </trkpt>
      <trkpt lat="-16.81874" lon="-150.98354">
        <ele>11.192505</ele>
        <time>2012-05-11T01:29:51Z</time>
      </trkpt>
      <trkpt lat="-16.81885" lon="-150.98349">
        <ele>11.192505</ele>
        <time>2012-05-11T01:29:58Z</time>
      </trkpt>
      <trkpt lat="-16.81931" lon="-150.98347">
        <ele>11.192505</ele>
        <time>2012-05-11T01:30:11Z</time>
      </trkpt>
      <trkpt lat="-16.81976" lon="-150.98329">
        <ele>11.673218</ele>
        <time>2012-05-11T01:30:22Z</time>
      </trkpt>
      <trkpt lat="-16.82022" lon="-150.98343">
        <ele>11.192505</ele>
        <time>2012-05-11T01:30:34Z</time>
      </trkpt>
      <trkpt lat="-16.82049" lon="-150.98344">
        <ele>11.673218</ele>
        <time>2012-05-11T01:30:44Z</time>
      </trkpt>
      <trkpt lat="-16.82057" lon="-150.98347">
        <ele>11.192505</ele>
        <time>2012-05-11T01:30:47Z</time>
      </trkpt>
      <trkpt lat="-16.82059" lon="-150.98347">
        <ele>11.192505</ele>
        <time>2012-05-11T01:30:59Z</time>
      </trkpt>
      <trkpt lat="-16.82062" lon="-150.98345">
        <ele>11.673218</ele>
        <time>2012-05-11T01:31:56Z</time>
      </trkpt>
      <trkpt lat="-16.82061" lon="-150.98343">
        <ele>12.153809</ele>
        <time>2012-05-11T01:33:06Z</time>
      </trkpt>
      <trkpt lat="-16.82063" lon="-150.98341">
        <ele>13.115112</ele>
        <time>2012-05-11T01:33:24Z</time>
      </trkpt>
      <trkpt lat="-16.82063" lon="-150.98342">
        <ele>12.153809</ele>
        <time>2012-05-11T01:33:25Z</time>
      </trkpt>
      <trkpt lat="-16.82058" lon="-150.98343">
        <ele>13.115112</ele>
        <time>2012-05-11T01:33:29Z</time>
      </trkpt>
    </trkseg>
  </trk>
</gpx>